[[{"header":{"parameterUnit":"m.s-1","parameterCategory":1,"la1":31.0,"la2":29.5877,"lo1":-88.7671,"lo2":-86.6584,"dy":0.0162,"dx":0.0185,"nx":115,"ny":88,"refTime":"2024-09-26T18:00:00:Z","depth":0,"parameterNumber":2,"parameterNumberName":"U-component_of_WINDS"},"data":[0.0,0.0,0.0,0.0,0.0,0.0,0.0,0.0,0.0,0.0,0.0,0.0,0.0,0.0,0.0,0.0,0.0,0.0,0.0,0.0,0.0,0.0,0.0,0.0,0.0,0.0,0.0,0.0,0.0,0.0,0.0,0.0,0.0,0.0,0.0,0.0,0.0,0.0,0.0,0.0,0.0,0.0,0.0,0.0,0.0,0.0,0.0,0.0,0.0,0.0,0.0,0.0,0.0,0.0,0.0,0.0,0.0,0.0,0.0,0.0,0.0,0.0,0.0,0.0,0.0,0.0,0.0,0.0,0.0,0.0,0.0,0.0,0.0,0.0,0.0,0.0,0.0,0.0,0.0,0.0,0.0,0.0,0.0,0.0,0.0,0.0,0.0,0.0,0.0,0.0,0.0,0.0,0.0,0.0,0.0,0.0,0.0,0.0,0.0,0.0,0.0,0.0,0.0,0.0,0.0,0.0,0.0,0.0,0.0,0.0,0.0,0.0,0.0,0.0,0.0,0.0,0.0,0.0,0.0,0.0,0.0,0.0,0.0,0.0,0.0,0.0,0.0,0.0,0.0,0.0,0.0,0.0,0.0,0.0,0.0,0.0,0.0,0.0,0.0,0.0,0.0,0.0,0.0,0.0,0.0,0.0,0.0,0.0,0.0,0.0,0.0,0.0,0.0,0.0,0.0,0.0,0.0,0.0,0.0,0.0,0.0,0.0,0.0,0.0,0.0,0.0,0.0,0.0,0.0,0.0,0.0,0.0,0.0,0.0,0.0,0.0,0.0,0.0,0.0,0.0,0.0,0.0,0.0,0.0,0.0,0.0,0.0,0.0,0.0,0.0,0.0,0.0,0.0,0.0,0.0,0.0,0.0,0.0,0.0,0.0,0.0,0.0,0.0,0.0,0.0,0.0,0.0,0.0,0.0,0.0,0.0,0.0,0.0,0.0,0.0,0.0,0.0,0.0,0.0,0.0,0.0,0.0,0.0,0.0,0.0,0.0,0.0,0.0,0.0,0.0,0.0,0.0,0.0,0.0,0.0,0.0,0.0,0.0,0.0,0.0,0.0,0.0,0.0,0.0,0.0,0.0,0.0,0.0,0.0,0.0,0.0,0.0,0.0,0.0,0.0,0.0,0.0,0.0,0.0,0.0,0.0,0.0,0.0,0.0,0.0,0.0,0.0,0.0,0.0,0.0,0.0,0.0,0.0,0.0,0.0,0.0,0.0,0.0,0.0,0.0,0.0,0.0,0.0,0.0,0.0,0.0,0.0,0.0,0.0,0.0,0.0,0.0,0.0,0.0,0.0,0.0,0.0,0.0,0.0,0.0,0.0,0.0,0.0,0.0,0.0,0.0,0.0,0.0,0.0,0.0,0.0,0.0,0.0,0.0,0.0,0.0,0.0,0.0,0.0,0.0,0.0,0.0,0.0,0.0,0.0,0.0,0.0,0.0,0.0,0.0,0.0,0.0,0.0,0.0,0.0,0.0,0.0,0.0,0.0,0.0,0.0,0.0,0.0,0.0,0.0,0.0,0.0,0.0,0.0,0.0,0.0,0.0,0.0,0.0,0.0,0.0,0.0,0.0,0.0,0.0,0.0,0.0,0.0,0.0,0.0,0.0,0.0,0.0,0.0,0.0,0.0,0.0,0.0,0.0,0.0,0.0,0.0,0.0,0.0,0.0,0.0,0.0,0.0,0.0,0.0,0.0,0.0,0.0,0.0,0.0,0.0,0.0,0.0,0.0,0.0,0.0,0.0,0.0,0.0,0.0,0.0,0.0,0.0,0.0,0.0,0.0,0.0,0.0,0.0,0.0,0.0,0.0,0.0,0.0,0.0,0.0,0.0,0.0,0.0,0.0,0.0,0.0,0.0,0.0,0.0,0.0,0.0,0.0,0.0,0.0,0.0,0.0,0.0,0.0,0.0,0.0,0.0,0.0,0.0,0.0,0.0,0.0,0.0,0.0,0.0,0.0,0.0,0.0,0.0,0.0,0.0,0.0,0.0,0.0,0.0,0.0,0.0,0.0,0.0,0.0,0.0,0.0,0.0,0.0,0.0,0.0,0.0,0.0,0.0,0.0,0.0,0.0,0.0,0.0,0.0,0.0,0.0,0.0,0.0,0.0,0.0,0.0,0.0,0.0,0.0,0.0,0.0,0.0,0.0,0.0,0.0,0.0,0.0,0.0,0.0,0.0,0.0,0.0,0.0,0.0,0.0,0.0,0.0,0.0,0.0,0.0,0.0,0.0,0.0,0.0,0.0,0.0,0.0,0.0,0.0,0.0,0.0,0.0,0.0,0.0,0.0,0.0,0.0,0.0,0.0,0.0,0.0,0.0,0.0,0.0,0.0,0.0,0.0,0.0,0.0,0.0,0.0,0.0,0.0,0.0,0.0,0.0,0.0,0.0,0.0,0.0,0.0,0.0,0.0,0.0,0.0,0.0,0.0,0.0,0.0,0.0,0.0,0.0,0.0,0.0,0.0,0.0,0.0,0.0,0.0,0.0,0.0,0.0,0.0,0.0,0.0,0.0,0.0,0.0,0.0,0.0,0.0,0.0,0.0,0.0,0.0,0.0,0.0,0.0,0.0,0.0,0.0,0.0,0.0,0.0,0.0,0.0,0.0,0.0,0.0,0.0,0.0,0.0,0.0,0.0,0.0,0.0,0.0,0.0,0.0,0.0,0.0,0.0,0.0,0.0,0.0,0.0,0.0,0.0,0.0,0.0,0.0,0.0,0.0,0.0,0.0,0.0,0.0,0.0,0.0,0.0,0.0,0.0,0.0,0.0,0.0,0.0,0.0,0.0,0.0,0.0,0.0,0.0,0.0,0.0,0.0,0.0,0.0,0.0,0.0,0.0,0.0,0.0,0.0,0.0,0.0,0.0,0.0,0.0,0.0,0.0,0.0,0.0,0.0,0.0,0.0,0.0,0.0,0.0,0.0,0.0,0.0,0.0,0.0,0.0,0.0,0.0,0.0,0.0,0.0,0.0,0.0,0.0,0.0,0.0,0.0,0.0,0.0,0.0,0.0,0.0,0.0,0.0,0.0,0.0,0.0,0.0,0.0,0.0,0.0,0.0,0.0,0.0,0.0,0.0,0.0,0.0,0.0,0.0,0.0,0.0,0.0,0.0,0.0,0.0,0.0,0.0,0.0,0.0,0.0,0.0,0.0,0.0,0.0,0.0,0.0,0.0,0.0,0.0,0.0,0.0,0.0,0.0,0.0,0.0,0.0,0.0,0.0,0.0,0.0,0.0,0.0,0.0,0.0,0.0,0.0,0.0,0.0,0.0,0.0,0.0,0.0,0.0,0.0,0.0,0.0,0.0,0.0,0.0,0.0,0.0,0.0,0.0,0.0,0.0,0.0,0.0,0.0,0.0,0.0,0.0,0.0,0.0,0.0,0.0,0.0,0.0,0.0,0.0,0.0,0.0,0.0,0.0,0.0,0.0,0.0,0.0,0.0,0.0,0.0,0.0,0.0,0.0,0.0,0.0,0.0,0.0,0.0,0.0,0.0,0.0,0.0,0.0,0.0,0.0,0.0,0.0,0.0,0.0,0.0,0.0,0.0,0.0,0.0,0.0,0.0,0.0,0.0,0.0,0.0,0.0,0.0,0.0,0.0,0.0,0.0,0.0,0.0,0.0,0.0,0.0,0.0,0.0,0.0,0.0,0.0,0.0,0.0,0.0,0.0,0.0,0.0,0.0,0.0,0.0,0.0,0.0,0.0,0.0,0.0,0.0,0.0,0.0,0.0,0.0,0.0,0.0,0.0,0.0,0.0,0.0,0.0,0.0,0.0,0.0,0.0,0.0,0.0,0.0,0.0,0.0,0.0,0.0,0.0,0.0,0.0,0.0,0.0,0.0,0.0,0.0,0.0,0.0,0.0,0.0,0.0,0.0,0.0,0.0,0.0,0.0,0.0,0.0,0.0,0.0,0.0,0.0,0.0,0.0,0.0,0.0,0.0,0.0,0.0,0.0,0.0,0.0,0.0,0.0,0.0,0.0,0.0,0.0,0.0,0.0,0.0,0.0,0.0,0.0,0.0,0.0,0.0,0.0,0.0,0.0,0.0,0.0,0.0,0.0,0.0,0.0,0.0,0.0,0.0,0.0,0.0,0.0,0.0,0.0,0.0,0.0,0.0,0.0,0.0,0.0,0.0,0.0,0.0,0.0,0.0,0.0,0.0,0.0,0.0,0.0,0.0,0.0,0.0,0.0,0.0,0.0,0.0,0.0,0.0,0.0,0.0,0.0,0.0,0.0,0.0,0.0,5.0921,0.0,0.0,0.0,0.0,0.0,0.0,0.0,0.0,0.0,0.0,0.0,0.0,0.0,0.0,0.0,0.0,0.0,0.0,0.0,0.0,0.0,0.0,0.0,0.0,0.0,0.0,0.0,0.0,0.0,0.0,0.0,0.0,0.0,0.0,0.0,0.0,0.0,0.0,0.0,0.0,0.0,0.0,0.0,0.0,0.0,0.0,0.0,0.0,0.0,0.0,0.0,0.0,0.0,0.0,0.0,0.0,0.0,0.0,0.0,0.0,0.0,0.0,0.0,0.0,0.0,0.0,0.0,0.0,0.0,0.0,0.0,0.0,0.0,0.0,0.0,0.0,0.0,0.0,0.0,0.0,0.0,0.0,0.0,0.0,0.0,0.0,0.0,0.0,0.0,0.0,0.0,0.0,0.0,0.0,0.0,0.0,0.0,0.0,0.0,0.0,0.0,0.0,0.0,0.0,0.0,0.0,0.0,0.0,0.0,0.0,5.1624,5.2176,5.2427,5.2477,5.2176,0.0,0.0,0.0,0.0,0.0,0.0,0.0,0.0,0.0,0.0,0.0,0.0,0.0,0.0,0.0,0.0,0.0,0.0,0.0,0.0,0.0,0.0,0.0,0.0,0.0,0.0,0.0,0.0,0.0,0.0,0.0,0.0,0.0,0.0,0.0,0.0,0.0,0.0,0.0,0.0,0.0,0.0,0.0,0.0,0.0,0.0,0.0,0.0,0.0,0.0,0.0,0.0,0.0,0.0,0.0,0.0,0.0,0.0,0.0,0.0,0.0,0.0,0.0,0.0,0.0,0.0,0.0,0.0,0.0,0.0,0.0,0.0,0.0,0.0,0.0,0.0,0.0,0.0,0.0,0.0,0.0,0.0,0.0,0.0,0.0,0.0,0.0,0.0,0.0,0.0,0.0,0.0,0.0,0.0,0.0,0.0,0.0,0.0,0.0,0.0,0.0,0.0,0.0,0.0,0.0,0.0,0.0,0.0,0.0,0.0,0.0,0.0,5.3733,5.3532,5.2729,0.0,0.0,0.0,0.0,0.0,0.0,0.0,0.0,0.0,0.0,0.0,0.0,0.0,0.0,0.0,0.0,0.0,0.0,0.0,0.0,0.0,0.0,0.0,0.0,0.0,0.0,0.0,0.0,0.0,0.0,0.0,0.0,0.0,0.0,0.0,0.0,0.0,0.0,0.0,0.0,0.0,0.0,0.0,0.0,0.0,0.0,0.0,0.0,0.0,0.0,0.0,0.0,0.0,0.0,0.0,0.0,0.0,0.0,0.0,0.0,0.0,0.0,0.0,0.0,0.0,0.0,0.0,0.0,0.0,0.0,0.0,0.0,0.0,0.0,0.0,0.0,0.0,0.0,0.0,0.0,0.0,0.0,0.0,0.0,0.0,0.0,0.0,0.0,0.0,0.0,0.0,0.0,0.0,0.0,0.0,0.0,0.0,0.0,0.0,0.0,0.0,0.0,0.0,0.0,0.0,0.0,0.0,0.0,0.0,0.0,5.3582,5.5089,5.4737,0.0,5.2327,0.0,0.0,0.0,0.0,0.0,0.0,0.0,0.0,0.0,0.0,0.0,0.0,0.0,0.0,0.0,0.0,0.0,0.0,0.0,0.0,0.0,0.0,0.0,0.0,0.0,0.0,0.0,0.0,0.0,0.0,0.0,0.0,0.0,0.0,0.0,0.0,0.0,0.0,0.0,0.0,0.0,0.0,0.0,0.0,0.0,0.0,0.0,0.0,0.0,0.0,0.0,0.0,0.0,0.0,0.0,0.0,0.0,0.0,0.0,0.0,0.0,0.0,0.0,0.0,0.0,0.0,0.0,0.0,0.0,0.0,0.0,0.0,0.0,0.0,0.0,0.0,0.0,0.0,0.0,0.0,0.0,0.0,0.0,0.0,0.0,0.0,0.0,0.0,0.0,0.0,0.0,0.0,0.0,0.0,0.0,0.0,0.0,0.0,0.0,0.0,0.0,0.0,0.0,0.0,0.0,0.0,0.0,0.0,0.0,0.0,5.4536,5.5842,5.534,5.4285,0.0,0.0,0.0,0.0,0.0,0.0,0.0,0.0,0.0,0.0,0.0,0.0,0.0,0.0,0.0,0.0,0.0,0.0,0.0,0.0,0.0,0.0,0.0,0.0,0.0,0.0,0.0,0.0,0.0,0.0,0.0,0.0,0.0,0.0,0.0,0.0,0.0,0.0,0.0,0.0,0.0,0.0,0.0,0.0,0.0,0.0,0.0,0.0,0.0,0.0,0.0,0.0,0.0,0.0,0.0,0.0,0.0,0.0,0.0,0.0,0.0,0.0,0.0,0.0,0.0,0.0,0.0,0.0,0.0,0.0,0.0,0.0,0.0,0.0,0.0,0.0,0.0,0.0,0.0,0.0,0.0,0.0,0.0,0.0,0.0,0.0,0.0,0.0,0.0,0.0,0.0,0.0,0.0,0.0,0.0,0.0,0.0,0.0,0.0,0.0,0.0,0.0,0.0,0.0,0.0,0.0,0.0,0.0,0.0,0.0,5.3934,5.534,5.6344,5.6043,5.4938,5.298,0.0,0.0,0.0,0.0,0.0,0.0,0.0,0.0,0.0,0.0,0.0,0.0,0.0,0.0,0.0,0.0,0.0,0.0,0.0,0.0,0.0,0.0,0.0,0.0,0.0,0.0,0.0,0.0,0.0,0.0,0.0,0.0,0.0,0.0,0.0,0.0,0.0,0.0,0.0,0.0,0.0,0.0,0.0,0.0,0.0,0.0,0.0,0.0,0.0,0.0,0.0,0.0,0.0,0.0,0.0,0.0,0.0,0.0,0.0,0.0,0.0,0.0,0.0,0.0,0.0,0.0,0.0,0.0,0.0,0.0,0.0,0.0,0.0,0.0,0.0,0.0,0.0,0.0,0.0,0.0,0.0,0.0,0.0,0.0,0.0,0.0,0.0,0.0,0.0,0.0,0.0,0.0,0.0,0.0,0.0,0.0,0.0,0.0,0.0,0.0,0.0,0.0,0.0,0.0,0.0,0.0,0.0,0.0,0.0,5.4536,5.5892,5.6997,5.6997,5.5691,0.0,0.0,0.0,0.0,0.0,0.0,0.0,0.0,0.0,0.0,0.0,0.0,0.0,0.0,0.0,0.0,0.0,0.0,0.0,0.0,0.0,0.0,0.0,0.0,0.0,0.0,0.0,0.0,0.0,0.0,0.0,0.0,0.0,0.0,0.0,0.0,0.0,0.0,0.0,0.0,0.0,0.0,0.0,0.0,0.0,0.0,0.0,0.0,0.0,0.0,0.0,0.0,0.0,0.0,0.0,0.0,0.0,0.0,0.0,0.0,0.0,0.0,0.0,0.0,0.0,0.0,0.0,0.0,0.0,0.0,0.0,0.0,0.0,0.0,0.0,0.0,0.0,0.0,0.0,0.0,0.0,0.0,0.0,0.0,0.0,0.0,0.0,0.0,0.0,0.0,0.0,0.0,0.0,0.0,0.0,0.0,0.0,0.0,0.0,0.0,0.0,0.0,0.0,0.0,0.0,0.0,0.0,0.0,0.0,5.2929,5.5591,5.7349,5.8052,5.7097,5.5541,0.0,0.0,0.0,0.0,0.0,0.0,0.0,0.0,0.0,0.0,0.0,0.0,0.0,0.0,0.0,0.0,0.0,0.0,0.0,0.0,0.0,0.0,0.0,0.0,0.0,0.0,0.0,0.0,0.0,0.0,0.0,0.0,0.0,0.0,0.0,0.0,0.0,0.0,0.0,0.0,0.0,0.0,0.0,0.0,0.0,0.0,0.0,0.0,0.0,0.0,0.0,0.0,0.0,0.0,0.0,0.0,0.0,0.0,0.0,0.0,0.0,0.0,0.0,0.0,0.0,0.0,0.0,0.0,0.0,0.0,0.0,0.0,0.0,0.0,0.0,0.0,0.0,0.0,0.0,0.0,0.0,0.0,0.0,0.0,0.0,0.0,0.0,0.0,0.0,0.0,0.0,0.0,0.0,0.0,0.0,0.0,0.0,0.0,0.0,0.0,0.0,0.0,0.0,0.0,0.0,0.0,0.0,0.0,0.0,5.4185,0.0,5.8604,5.8905,5.7549,5.5792,0.0,0.0,0.0,0.0,0.0,0.0,0.0,0.0,0.0,0.0,0.0,0.0,0.0,0.0,0.0,0.0,0.0,0.0,0.0,0.0,0.0,0.0,0.0,0.0,0.0,0.0,0.0,0.0,0.0,0.0,0.0,0.0,0.0,0.0,0.0,0.0,0.0,0.0,0.0,0.0,0.0,0.0,0.0,0.0,0.0,0.0,0.0,0.0,0.0,0.0,0.0,0.0,0.0,0.0,0.0,0.0,0.0,0.0,0.0,0.0,0.0,0.0,0.0,0.0,0.0,0.0,0.0,0.0,0.0,0.0,0.0,0.0,0.0,0.0,0.0,0.0,0.0,0.0,0.0,0.0,0.0,0.0,0.0,0.0,0.0,0.0,0.0,0.0,0.0,0.0,0.0,0.0,0.0,0.0,0.0,0.0,0.0,0.0,0.0,0.0,0.0,0.0,0.0,0.0,0.0,0.0,0.0,0.0,5.2126,5.6846,5.8654,5.9558,5.9508,5.8453,5.6595,0.0,0.0,0.0,0.0,0.0,0.0,0.0,0.0,0.0,0.0,0.0,0.0,0.0,0.0,0.0,0.0,0.0,0.0,0.0,0.0,0.0,0.0,0.0,0.0,0.0,0.0,0.0,0.0,0.0,0.0,0.0,0.0,0.0,0.0,0.0,0.0,0.0,0.0,0.0,0.0,0.0,0.0,0.0,0.0,0.0,0.0,0.0,0.0,0.0,0.0,0.0,0.0,0.0,0.0,0.0,0.0,0.0,0.0,0.0,0.0,0.0,0.0,0.0,0.0,0.0,0.0,0.0,0.0,0.0,0.0,0.0,0.0,0.0,0.0,0.0,0.0,0.0,0.0,0.0,0.0,0.0,0.0,0.0,0.0,0.0,0.0,0.0,0.0,0.0,0.0,0.0,0.0,0.0,0.0,0.0,0.0,0.0,0.0,0.0,0.0,0.0,0.0,0.0,0.0,0.0,0.0,0.0,0.0,0.0,5.8102,5.9809,6.0864,6.1165,5.9458,5.7499,0.0,0.0,0.0,0.0,0.0,0.0,0.0,0.0,0.0,0.0,0.0,0.0,0.0,0.0,0.0,0.0,0.0,0.0,0.0,0.0,0.0,0.0,0.0,0.0,0.0,0.0,0.0,0.0,0.0,0.0,0.0,0.0,0.0,0.0,0.0,0.0,0.0,0.0,0.0,0.0,0.0,0.0,0.0,0.0,0.0,0.0,0.0,0.0,0.0,0.0,0.0,0.0,0.0,0.0,0.0,0.0,0.0,0.0,0.0,0.0,0.0,0.0,0.0,0.0,0.0,0.0,0.0,0.0,0.0,0.0,0.0,0.0,0.0,0.0,0.0,0.0,0.0,0.0,0.0,0.0,0.0,0.0,0.0,0.0,0.0,0.0,0.0,0.0,0.0,0.0,0.0,0.0,0.0,0.0,0.0,0.0,0.0,0.0,0.0,0.0,0.0,0.0,0.0,0.0,0.0,0.0,0.0,0.0,0.0,6.1115,6.237,6.3174,6.3525,6.1416,5.9156,5.6897,0.0,0.0,0.0,0.0,0.0,0.0,0.0,0.0,0.0,0.0,0.0,0.0,0.0,0.0,0.0,0.0,0.0,0.0,0.0,0.0,0.0,0.0,0.0,0.0,0.0,0.0,0.0,0.0,0.0,0.0,0.0,0.0,0.0,0.0,0.0,0.0,0.0,0.0,0.0,0.0,0.0,0.0,0.0,0.0,0.0,0.0,0.0,0.0,0.0,0.0,0.0,0.0,0.0,0.0,0.0,0.0,0.0,0.0,0.0,0.0,0.0,0.0,0.0,0.0,0.0,0.0,0.0,0.0,0.0,0.0,0.0,0.0,0.0,0.0,0.0,0.0,0.0,0.0,0.0,0.0,0.0,0.0,0.0,0.0,0.0,0.0,0.0,0.0,0.0,0.0,0.0,0.0,0.0,0.0,0.0,0.0,0.0,0.0,0.0,0.0,0.0,0.0,0.0,0.0,0.0,0.0,0.0,0.0,6.5534,6.6237,6.6488,6.6287,6.4128,6.1466,0.0,0.0,0.0,0.0,0.0,0.0,0.0,0.0,0.0,0.0,0.0,0.0,0.0,0.0,0.0,0.0,0.0,0.0,0.0,0.0,0.0,0.0,0.0,0.0,0.0,0.0,0.0,0.0,0.0,0.0,0.0,0.0,0.0,0.0,0.0,0.0,0.0,0.0,0.0,0.0,0.0,0.0,0.0,0.0,0.0,0.0,0.0,0.0,0.0,0.0,0.0,0.0,0.0,0.0,0.0,0.0,0.0,0.0,0.0,0.0,0.0,0.0,0.0,0.0,0.0,0.0,0.0,0.0,0.0,0.0,0.0,0.0,0.0,0.0,0.0,0.0,0.0,0.0,0.0,0.0,0.0,0.0,0.0,0.0,0.0,0.0,0.0,0.0,0.0,0.0,0.0,0.0,0.0,0.0,0.0,0.0,0.0,0.0,0.0,0.0,0.0,0.0,0.0,0.0,0.0,0.0,0.0,0.0,0.0,6.8848,7.1108,7.1058,6.8648,6.6438,6.3726,0.0,0.0,0.0,0.0,0.0,0.0,0.0,0.0,0.0,0.0,0.0,0.0,0.0,0.0,0.0,0.0,0.0,0.0,0.0,0.0,0.0,0.0,0.0,0.0,0.0,0.0,0.0,0.0,0.0,0.0,0.0,0.0,0.0,0.0,0.0,0.0,0.0,0.0,0.0,0.0,0.0,0.0,0.0,0.0,0.0,0.0,0.0,0.0,0.0,0.0,0.0,0.0,0.0,0.0,0.0,0.0,0.0,0.0,0.0,0.0,0.0,0.0,0.0,0.0,0.0,0.0,0.0,0.0,0.0,0.0,0.0,0.0,0.0,0.0,0.0,0.0,0.0,0.0,0.0,0.0,0.0,0.0,0.0,0.0,0.0,0.0,0.0,0.0,0.0,0.0,0.0,0.0,0.0,0.0,0.0,0.0,0.0,0.0,0.0,0.0,0.0,0.0,0.0,0.0,0.0,0.0,0.0,0.0,6.7744,7.161,7.4372,7.4875,7.2966,6.9652,6.6187,0.0,0.0,0.0,0.0,0.0,0.0,0.0,0.0,0.0,0.0,0.0,0.0,0.0,0.0,0.0,0.0,0.0,0.0,0.0,0.0,0.0,0.0,0.0,0.0,0.0,0.0,0.0,0.0,0.0,0.0,0.0,0.0,0.0,0.0,0.0,0.0,0.0,0.0,0.0,0.0,0.0,0.0,0.0,0.0,0.0,0.0,0.0,0.0,0.0,0.0,0.0,0.0,0.0,0.0,0.0,0.0,0.0,0.0,0.0,0.0,0.0,0.0,0.0,0.0,0.0,0.0,0.0,0.0,0.0,0.0,0.0,0.0,0.0,0.0,0.0,0.0,0.0,0.0,0.0,0.0,0.0,0.0,0.0,0.0,0.0,0.0,0.0,0.0,0.0,0.0,0.0,0.0,0.0,0.0,0.0,0.0,0.0,0.0,0.0,0.0,0.0,0.0,0.0,0.0,0.0,0.0,0.0,0.0,6.9953,7.377,7.6482,7.7888,7.7737,7.3167,6.8748,0.0,0.0,0.0,0.0,0.0,0.0,0.0,0.0,0.0,0.0,0.0,0.0,0.0,0.0,0.0,0.0,0.0,0.0,0.0,0.0,0.0,0.0,0.0,0.0,0.0,0.0,0.0,0.0,0.0,0.0,0.0,0.0,0.0,0.0,0.0,0.0,0.0,0.0,0.0,0.0,0.0,0.0,0.0,0.0,0.0,0.0,0.0,0.0,0.0,0.0,0.0,0.0,0.0,0.0,0.0,0.0,0.0,0.0,0.0,0.0,0.0,0.0,0.0,0.0,0.0,0.0,0.0,0.0,0.0,0.0,0.0,0.0,0.0,0.0,0.0,0.0,0.0,0.0,0.0,0.0,0.0,0.0,0.0,0.0,0.0,0.0,0.0,0.0,0.0,0.0,0.0,0.0,0.0,0.0,0.0,0.0,0.0,0.0,0.0,0.0,0.0,0.0,0.0,0.0,0.0,0.0,0.0,0.0,7.161,7.5427,7.7837,7.9043,7.8992,7.5025,7.0857,0.0,0.0,0.0,0.0,0.0,0.0,0.0,0.0,0.0,0.0,0.0,0.0,0.0,0.0,0.0,0.0,0.0,0.0,0.0,0.0,0.0,0.0,0.0,0.0,0.0,0.0,0.0,0.0,0.0,0.0,0.0,0.0,0.0,0.0,0.0,0.0,0.0,0.0,0.0,0.0,0.0,0.0,0.0,0.0,0.0,0.0,0.0,0.0,4.0508,0.0,0.0,0.0,0.0,0.0,0.0,0.0,0.0,0.0,0.0,0.0,0.0,0.0,0.0,0.0,0.0,0.0,0.0,0.0,0.0,0.0,0.0,0.0,0.0,0.0,0.0,0.0,0.0,0.0,0.0,0.0,0.0,0.0,0.0,0.0,0.0,0.0,0.0,0.0,0.0,0.0,0.0,0.0,0.0,0.0,0.0,0.0,0.0,0.0,0.0,0.0,0.0,0.0,0.0,0.0,0.0,0.0,0.0,0.0,7.3318,7.7134,7.9394,8.0398,8.0047,7.6883,7.2966,0.0,0.0,0.0,0.0,0.0,0.0,0.0,0.0,0.0,0.0,0.0,0.0,0.0,0.0,0.0,0.0,0.0,0.0,0.0,0.0,0.0,0.0,0.0,0.0,0.0,0.0,0.0,0.0,0.0,0.0,0.0,0.0,0.0,0.0,0.0,0.0,0.0,0.0,0.0,0.0,0.0,0.0,0.0,0.0,0.0,0.0,0.0,0.0,0.0,0.0,0.0,0.0,0.0,0.0,0.0,0.0,0.0,0.0,0.0,0.0,0.0,0.0,0.0,0.0,0.0,0.0,0.0,0.0,0.0,0.0,0.0,0.0,0.0,0.0,0.0,0.0,0.0,0.0,0.0,0.0,0.0,0.0,0.0,0.0,0.0,0.0,0.0,0.0,0.0,0.0,0.0,0.0,0.0,0.0,0.0,0.0,0.0,0.0,0.0,0.0,0.0,0.0,0.0,0.0,0.0,0.0,0.0,7.0204,7.4824,7.854,8.07,8.1553,8.1001,7.834,7.4573,6.9702,0.0,0.0,0.0,0.0,0.0,0.0,0.0,0.0,0.0,0.0,0.0,0.0,0.0,0.0,0.0,0.0,0.0,0.0,0.0,0.0,0.0,0.0,0.0,0.0,0.0,0.0,0.0,0.0,0.0,0.0,0.0,0.0,0.0,0.0,0.0,0.0,0.0,0.0,3.9141,4.1016,0.0,0.0,0.0,0.0,0.0,0.0,0.0,0.0,4.4219,0.0,0.0,0.0,0.0,0.0,0.0,0.0,0.0,0.0,0.0,0.0,0.0,0.0,0.0,0.0,0.0,0.0,0.0,0.0,0.0,0.0,0.0,0.0,0.0,0.0,0.0,0.0,0.0,0.0,0.0,0.0,0.0,0.0,0.0,0.0,0.0,0.0,0.0,0.0,0.0,0.0,0.0,0.0,0.0,0.0,0.0,0.0,0.0,0.0,0.0,0.0,0.0,0.0,0.0,0.0,0.0,6.6538,7.156,7.5778,7.9143,8.0951,8.1553,8.1001,7.834,7.4774,7.0204,0.0,0.0,0.0,0.0,0.0,0.0,0.0,0.0,0.0,0.0,0.0,0.0,0.0,0.0,0.0,0.0,0.0,0.0,0.0,0.0,0.0,0.0,0.0,0.0,0.0,0.0,0.0,0.0,0.0,0.0,0.0,0.0,0.0,0.0,0.0,0.0,0.0,0.0,0.0,4.3594,4.4648,0.0,0.0,0.0,0.0,0.0,0.0,0.0,0.0,4.6211,0.0,0.0,0.0,0.0,0.0,0.0,0.0,0.0,0.0,0.0,0.0,0.0,0.0,0.0,0.0,0.0,0.0,0.0,0.0,0.0,0.0,0.0,0.0,0.0,0.0,0.0,0.0,0.0,0.0,0.0,0.0,0.0,0.0,0.0,0.0,0.0,0.0,0.0,0.0,0.0,0.0,0.0,0.0,0.0,0.0,0.0,0.0,0.0,0.0,0.0,0.0,0.0,0.0,0.0,0.0,6.7292,7.2313,7.6582,8.0097,8.1553,8.1855,8.1001,7.834,7.4423,0.0,0.0,0.0,0.0,0.0,0.0,0.0,0.0,0.0,0.0,0.0,0.0,0.0,0.0,0.0,0.0,0.0,0.0,0.0,0.0,0.0,0.0,0.0,0.0,0.0,0.0,0.0,0.0,0.0,0.0,0.0,0.0,0.0,0.0,0.0,0.0,0.0,0.0,0.0,0.0,4.5391,4.6601,4.7226,0.0,0.0,0.0,0.0,0.0,0.0,4.875,4.832,0.0,0.0,0.0,0.0,0.0,0.0,0.0,0.0,0.0,0.0,0.0,0.0,0.0,0.0,0.0,0.0,0.0,0.0,0.0,0.0,0.0,0.0,0.0,0.0,0.0,0.0,0.0,0.0,0.0,0.0,0.0,0.0,0.0,0.0,0.0,0.0,0.0,0.0,0.0,0.0,0.0,0.0,0.0,0.0,0.0,0.0,0.0,0.0,0.0,0.0,0.0,0.0,0.0,0.0,0.0,6.8045,7.3016,7.7385,8.1001,8.2156,8.2156,8.1001,7.8139,7.377,0.0,0.0,0.0,0.0,0.0,0.0,0.0,0.0,0.0,0.0,0.0,0.0,0.0,0.0,0.0,0.0,0.0,0.0,0.0,0.0,0.0,0.0,0.0,0.0,0.0,0.0,0.0,0.0,0.0,0.0,0.0,0.0,0.0,0.0,0.0,0.0,0.0,0.0,0.0,0.0,0.0,4.832,4.9258,4.9922,0.0,0.0,0.0,0.0,5.1523,5.1172,0.0,0.0,0.0,0.0,0.0,0.0,0.0,0.0,0.0,0.0,0.0,0.0,0.0,0.0,0.0,0.0,0.0,0.0,0.0,0.0,0.0,0.0,0.0,0.0,0.0,0.0,0.0,0.0,0.0,0.0,0.0,0.0,0.0,0.0,0.0,0.0,0.0,0.0,0.0,0.0,0.0,0.0,0.0,0.0,0.0,0.0,0.0,0.0,0.0,0.0,0.0,0.0,0.0,0.0,0.0,0.0,6.915,7.4171,7.834,8.1553,8.2357,8.2156,8.1001,7.7385,7.3016,0.0,0.0,0.0,0.0,0.0,0.0,0.0,0.0,0.0,0.0,0.0,0.0,0.0,0.0,0.0,0.0,0.0,0.0,0.0,0.0,0.0,0.0,0.0,0.0,0.0,0.0,0.0,0.0,0.0,0.0,0.0,0.0,0.0,0.0,0.0,0.0,0.0,0.0,0.0,0.0,0.0,4.9766,5.0976,5.2148,5.293,0.0,0.0,5.418,5.4219,5.3555,0.0,0.0,0.0,0.0,0.0,0.0,0.0,0.0,0.0,0.0,0.0,0.0,0.0,0.0,0.0,0.0,0.0,0.0,0.0,0.0,0.0,0.0,0.0,0.0,0.0,0.0,0.0,0.0,0.0,0.0,0.0,0.0,0.0,0.0,0.0,0.0,0.0,0.0,0.0,0.0,0.0,0.0,0.0,0.0,0.0,0.0,0.0,0.0,0.0,0.0,0.0,0.0,0.0,0.0,0.0,6.3475,6.9803,7.4523,7.8641,8.2156,8.2558,8.2156,8.1051,7.7285,7.2615,0.0,0.0,0.0,0.0,0.0,0.0,0.0,0.0,0.0,0.0,0.0,0.0,0.0,0.0,0.0,0.0,0.0,0.0,0.0,0.0,0.0,0.0,0.0,0.0,0.0,0.0,0.0,0.0,0.0,0.0,0.0,0.0,0.0,0.0,0.0,0.0,0.0,0.0,0.0,0.0,0.0,0.0,5.3398,5.4726,0.0,0.0,0.0,5.668,5.6211,0.0,0.0,0.0,0.0,0.0,0.0,0.0,0.0,0.0,0.0,0.0,0.0,0.0,0.0,0.0,0.0,0.0,0.0,0.0,0.0,0.0,0.0,0.0,0.0,0.0,0.0,0.0,0.0,0.0,0.0,0.0,0.0,0.0,0.0,0.0,0.0,0.0,0.0,0.0,0.0,0.0,0.0,0.0,0.0,0.0,0.0,0.0,0.0,0.0,0.0,0.0,0.0,0.0,0.0,0.0,0.0,0.0,7.0154,7.4774,7.8842,8.2307,8.2608,8.2056,8.08,7.7185,0.0,0.0,0.0,0.0,0.0,0.0,0.0,0.0,0.0,0.0,0.0,0.0,0.0,0.0,0.0,0.0,0.0,0.0,0.0,0.0,0.0,0.0,0.0,0.0,0.0,0.0,0.0,3.2812,0.0,0.0,0.0,0.0,0.0,0.0,0.0,0.0,0.0,0.0,0.0,0.0,0.0,0.0,5.3359,5.5469,5.707,5.8164,0.0,0.0,5.9285,5.854,5.8091,5.7044,0.0,0.0,0.0,0.0,0.0,0.0,0.0,0.0,0.0,0.0,0.0,0.0,0.0,0.0,0.0,0.0,0.0,0.0,0.0,0.0,0.0,0.0,0.0,0.0,0.0,0.0,0.0,0.0,0.0,0.0,0.0,0.0,0.0,0.0,0.0,0.0,0.0,0.0,0.0,0.0,0.0,0.0,0.0,0.0,0.0,0.0,0.0,0.0,0.0,0.0,0.0,0.0,0.0,0.0,6.4128,7.0154,7.5126,7.8992,8.1754,8.2407,8.1905,8.0248,7.6984,7.2615,0.0,0.0,0.0,0.0,0.0,0.0,0.0,0.0,0.0,0.0,0.0,0.0,0.0,0.0,0.0,0.0,0.0,0.0,0.0,0.0,0.0,0.0,0.0,0.0,0.0,0.0,0.0,0.0,0.0,0.0,0.0,0.0,0.0,0.0,0.0,0.0,0.0,0.0,0.0,0.0,0.0,5.4687,5.6797,5.8867,6.039,0.0,6.1673,6.2253,6.1816,6.1155,5.9994,5.7781,0.0,0.0,0.0,0.0,0.0,0.0,0.0,0.0,0.0,0.0,0.0,0.0,0.0,0.0,0.0,0.0,0.0,0.0,0.0,0.0,0.0,0.0,0.0,0.0,0.0,0.0,0.0,0.0,0.0,0.0,0.0,0.0,0.0,0.0,0.0,0.0,0.0,0.0,0.0,0.0,0.0,0.0,0.0,0.0,0.0,0.0,0.0,0.0,0.0,0.0,0.0,0.0,0.0,6.4329,7.0706,7.5327,7.9043,8.1704,8.2357,8.2056,8.075,7.7486,7.3468,0.0,0.0,0.0,0.0,0.0,0.0,0.0,0.0,0.0,0.0,0.0,0.0,0.0,0.0,0.0,0.0,0.0,0.0,0.0,0.0,0.0,0.0,0.0,0.0,0.0,0.0,0.0,0.0,3.8203,3.8906,3.8945,0.0,0.0,0.0,0.0,0.0,0.0,0.0,0.0,0.0,0.0,5.6367,5.8515,6.043,0.0,0.0,6.3128,6.3438,6.2993,6.2675,6.1744,6.0219,5.7884,0.0,0.0,0.0,0.0,0.0,0.0,0.0,0.0,0.0,0.0,0.0,0.0,0.0,0.0,0.0,0.0,0.0,0.0,0.0,0.0,0.0,0.0,0.0,0.0,0.0,0.0,0.0,0.0,0.0,0.0,0.0,0.0,0.0,0.0,0.0,0.0,0.0,0.0,0.0,0.0,0.0,0.0,0.0,0.0,0.0,0.0,0.0,0.0,0.0,0.0,0.0,0.0,6.463,7.1008,7.5427,7.8942,8.1503,8.2307,8.2056,8.075,7.8038,7.4473,0.0,0.0,0.0,0.0,0.0,0.0,0.0,0.0,0.0,0.0,0.0,0.0,0.0,0.0,0.0,0.0,0.0,0.0,0.0,0.0,0.0,0.0,0.0,0.0,0.0,0.0,0.0,0.0,3.957,4.0078,3.9648,0.0,0.0,0.0,0.0,0.0,0.0,0.0,0.0,0.0,0.0,5.8086,6.0117,6.1836,6.3285,6.4314,6.4712,6.471,6.4532,6.4332,6.3863,6.2607,0.0,0.0,0.0,0.0,0.0,0.0,0.0,0.0,0.0,0.0,0.0,0.0,0.0,0.0,0.0,0.0,0.0,0.0,0.0,0.0,0.0,0.0,0.0,0.0,0.0,0.0,0.0,4.2032,0.0,0.0,3.8818,0.0,0.0,0.0,0.0,0.0,0.0,0.0,0.0,0.0,0.0,0.0,0.0,0.0,0.0,0.0,0.0,0.0,0.0,0.0,0.0,0.0,0.0,6.4982,7.1008,7.5477,7.8792,8.1001,8.2106,8.1905,8.0298,7.8591,7.5578,7.1108,0.0,0.0,0.0,0.0,0.0,0.0,0.0,0.0,0.0,0.0,0.0,0.0,0.0,0.0,0.0,0.0,0.0,0.0,0.0,0.0,0.0,0.0,0.0,0.0,0.0,0.0,3.9726,4.0625,4.0976,0.0,0.0,0.0,0.0,0.0,0.0,0.0,0.0,0.0,5.3594,5.6953,5.9765,6.1445,6.3164,6.45,6.5266,6.6069,6.6754,6.6381,6.6654,6.6491,0.0,0.0,0.0,0.0,0.0,0.0,0.0,0.0,0.0,0.0,0.0,0.0,0.0,0.0,0.0,0.0,0.0,0.0,0.0,0.0,0.0,0.0,0.0,0.0,0.0,0.0,0.0,4.5999,4.5849,0.0,0.0,0.0,0.0,0.0,0.0,0.0,0.0,0.0,0.0,0.0,5.7851,5.8252,0.0,0.0,0.0,0.0,0.0,0.0,0.0,0.0,0.0,0.0,0.0,0.0,6.5534,7.151,7.5628,7.8792,8.0951,8.2106,8.2056,8.08,7.9495,7.623,7.0706,0.0,0.0,0.0,0.0,0.0,0.0,0.0,0.0,0.0,0.0,0.0,0.0,0.0,0.0,0.0,0.0,0.0,0.0,0.0,0.0,0.0,0.0,0.0,0.0,0.0,3.9844,0.0,0.0,0.0,0.0,0.0,0.0,0.0,0.0,0.0,0.0,5.082,5.3945,5.668,5.9492,6.1719,6.2851,6.4258,6.5402,0.0,0.0,0.0,0.0,0.0,0.0,0.0,0.0,0.0,0.0,0.0,0.0,0.0,5.8437,5.7031,5.4453,5.4258,5.4531,5.4805,0.0,0.0,0.0,0.0,0.0,0.0,0.0,0.0,0.0,0.0,0.0,0.0,0.0,0.0,5.0933,5.063,4.8938,0.0,0.0,0.0,0.0,0.0,0.0,0.0,0.0,5.9207,6.1366,6.2923,6.3726,6.3827,6.3425,6.2169,5.8956,0.0,0.0,0.0,0.0,0.0,0.0,0.0,0.0,6.6689,7.2062,7.603,7.8992,8.0951,8.2106,8.2257,8.1302,7.9695,7.6682,7.2113,6.8447,6.4781,0.0,0.0,0.0,0.0,0.0,0.0,0.0,0.0,0.0,0.0,0.0,0.0,0.0,0.0,0.0,0.0,0.0,0.0,0.0,0.0,0.0,0.0,0.0,4.1719,0.0,0.0,0.0,0.0,0.0,0.0,0.0,0.0,0.0,5.1406,5.418,5.707,5.9336,6.1601,6.332,6.4023,0.0,0.0,0.0,0.0,0.0,0.0,0.0,6.8982,6.8689,6.8145,6.7219,6.5924,6.4466,6.3365,6.2656,0.0,0.0,5.8594,5.8164,5.8515,5.8906,5.914,5.9453,6.0195,6.0781,6.1523,0.0,0.0,0.0,0.0,5.7168,0.0,0.0,0.0,5.7414,5.6768,0.0,5.4113,0.0,0.0,0.0,0.0,5.2377,5.4536,0.0,0.0,6.4078,6.6338,6.7945,6.8999,6.8999,6.7995,6.7392,6.5986,6.3576,5.7349,0.0,0.0,0.0,0.0,0.0,0.0,6.8346,7.2715,7.6532,7.9294,8.0951,8.2056,8.2357,8.1754,7.9243,7.7034,7.5327,7.2113,6.8848,6.5584,6.1768,0.0,0.0,0.0,0.0,0.0,0.0,0.0,0.0,0.0,0.0,0.0,0.0,0.0,0.0,0.0,0.0,0.0,0.0,0.0,0.0,4.2823,0.0,0.0,0.0,0.0,0.0,0.0,0.0,0.0,0.0,5.5351,5.5117,5.7539,5.9961,6.1601,0.0,0.0,0.0,0.0,6.6382,6.6733,6.7011,6.7626,6.8496,6.8778,6.8972,6.9693,0.0,0.0,6.6821,6.6654,6.6367,6.5664,6.5937,6.5351,6.25,6.1914,6.2031,6.2461,6.2851,6.3281,6.3789,6.4414,6.5195,7.3991,0.0,0.0,0.0,0.0,6.4075,6.3752,6.3717,6.3257,6.2429,6.1141,6.0114,0.0,0.0,0.0,0.0,0.0,0.0,6.1366,6.4781,6.7141,6.9551,7.1912,7.2263,7.2414,7.2464,7.156,7.0355,6.8848,6.5835,6.237,5.8504,0.0,0.0,0.0,0.0,6.9903,7.382,7.6582,7.8741,8.0449,8.1503,8.1955,8.1805,8.0298,7.8892,7.7586,7.5126,7.2464,6.9501,6.5735,0.0,0.0,0.0,0.0,0.0,0.0,0.0,0.0,0.0,0.0,0.0,0.0,0.0,0.0,0.0,0.0,0.0,0.0,0.0,4.4661,4.5904,4.6855,0.0,0.0,0.0,0.0,0.0,0.0,0.0,0.0,0.0,6.0937,6.1836,6.293,0.0,0.0,6.6289,6.6719,6.6953,6.7187,6.7676,6.8303,0.0,6.8984,6.9369,6.9791,7.0042,6.95,6.8825,6.8438,6.7931,6.7716,6.7422,6.7539,6.7383,6.6914,6.6015,6.5586,6.5976,6.6133,6.6484,6.7187,6.7539,6.793,8.1497,7.6853,7.3604,7.1821,7.0838,7.02,6.9796,6.9535,6.9052,6.8092,6.6662,6.5766,6.3985,6.175,6.0577,0.0,0.0,0.0,6.5117,6.8196,6.9803,7.2113,7.4473,7.4774,7.5075,7.5377,7.4674,7.382,7.2715,7.1259,6.8798,6.5283,0.0,6.4329,6.6488,6.92,7.2062,7.5025,7.7235,7.8992,8.0198,8.1051,8.1503,8.1453,8.065,7.9796,7.8892,7.6933,7.4724,7.2163,6.8798,6.5032,0.0,0.0,0.0,0.0,0.0,0.0,0.0,0.0,0.0,0.0,0.0,4.0083,4.1503,0.0,0.0,0.0,4.4543,4.6122,4.8108,4.942,0.0,0.0,0.0,0.0,0.0,0.0,0.0,5.8125,6.0195,6.2226,6.418,6.4726,6.5312,6.625,6.6953,6.7422,6.75,0.0,6.7539,6.7656,6.7912,6.8422,6.8676,6.909,6.9544,6.9943,6.9726,6.9291,6.919,6.8931,6.8672,6.8672,6.8672,6.8828,6.9258,6.8672,6.8203,6.8476,6.8515,6.875,6.9453,6.957,6.9765,8.7456,8.608,8.0784,7.7776,7.6422,7.6275,7.5903,7.5351,7.4463,7.3478,7.2231,7.1034,6.9316,6.7456,6.6079,0.0,6.6181,6.6806,6.862,7.1265,7.2386,7.4163,7.613,7.6682,7.6984,7.6984,7.7034,7.6482,7.5377,7.4372,7.3569,7.2966,7.0003,6.8949,6.9853,7.2414,7.4523,7.618,7.8239,7.9595,8.0198,8.07,8.1001,8.1051,8.0549,7.9997,7.9394,7.7837,7.5979,7.377,7.1108,6.7894,6.4128,0.0,0.0,0.0,0.0,0.0,0.0,0.0,0.0,0.0,0.0,0.0,0.0,0.0,0.0,4.7743,4.9836,0.0,5.1758,5.3406,0.0,0.0,0.0,5.5916,5.7269,5.7895,5.9246,6.1094,0.0,0.0,6.5469,6.6406,6.707,6.7539,6.789,6.8008,6.7617,6.75,6.7344,6.7109,6.6992,6.7245,6.7908,6.8438,6.8914,6.9667,6.9826,6.9725,6.9558,6.9414,6.9414,6.9375,6.9453,6.9609,7.0039,7.0078,7.0195,7.0195,7.0195,7.0312,7.0703,7.0781,7.0937,9.0309,8.9427,8.7283,8.4772,8.2176,8.1751,8.0974,7.9688,7.9521,7.829,7.6512,7.618,7.4417,7.169,6.9854,6.8984,6.939,7.0036,7.1128,7.2734,7.4248,7.5871,7.7279,7.7836,7.814,7.8088,7.8139,7.7787,7.7134,7.6431,7.603,7.5829,7.5075,7.4021,7.2715,7.4121,7.5678,7.7285,7.8239,7.9193,8.0198,8.0348,8.0599,8.1001,8.0901,8.0398,7.9444,7.8591,7.7134,7.4925,7.2615,6.9752,6.6338,6.2923,0.0,0.0,0.0,0.0,0.0,0.0,0.0,0.0,0.0,4.8476,5.0157,0.0,5.1723,0.0,5.4747,5.6269,5.7164,5.8617,0.0,0.0,6.0103,6.0699,6.1483,6.2302,6.3272,6.4076,6.5103,6.5884,6.6445,6.7031,6.7539,6.7969,6.7812,6.7734,6.7969,6.7695,6.7578,6.7773,6.7812,6.789,6.8068,6.8225,6.8421,6.897,6.9088,6.9206,6.9375,6.9453,6.9453,6.9453,6.9726,7.0078,7.0469,7.082,7.1172,7.1445,7.1289,7.1211,7.1601,7.168,7.1836,9.1865,9.1446,9.0455,8.9229,8.7274,8.5563,8.4482,8.3692,8.3013,8.2049,8.0747,7.9682,7.8066,7.6014,7.4745,7.397,7.3622,7.402,7.4562,7.5296,7.6402,7.7323,7.8256,7.8881,7.9045,7.8797,7.9,7.8848,7.8492,7.7934,7.7481,7.7481,7.7426,7.6817,7.571,7.6328,7.7134,7.8038,7.8641,7.9243,7.9796,7.9846,7.9896,7.9896,7.9896,7.9495,7.8641,7.8088,7.6984,7.5276,7.3569,7.1259,6.8246,6.5634,6.2809,0.0,0.0,0.0,0.0,0.0,0.0,0.0,0.0,0.0,0.0,0.0,5.6928,5.8471,6.0223,6.1511,6.2357,6.3695,6.4585,6.4543,6.4823,6.5117,6.5612,6.5924,6.6107,6.6995,6.7313,6.7338,6.7764,6.7829,6.7813,6.8088,6.7637,6.7383,6.7773,6.7656,6.7539,6.7578,6.7617,6.7695,6.7851,6.789,6.8047,6.8437,6.8672,6.8906,6.914,6.9336,6.9453,6.9453,6.9648,7.0,7.0586,7.0898,7.125,7.1797,7.1797,7.1836,7.2226,7.2305,7.2422,9.2823,9.2643,9.2045,9.1686,9.1279,8.8492,8.7166,8.6882,8.5963,8.5155,8.4233,8.2195,8.0741,8.0021,7.9521,7.8792,7.7942,7.8031,7.8053,7.8119,7.8399,7.883,7.9371,7.9892,7.9928,7.9541,8.0003,7.9952,7.949,7.9027,7.877,7.8719,7.8256,7.8256,7.8573,7.8745,7.8694,7.8641,7.9143,7.9344,7.9294,7.9294,7.8992,7.844,7.844,7.8139,7.7536,7.7084,7.6331,7.5176,7.4222,7.2514,6.9903,6.8246,6.6265,0.0,6.2779,0.0,0.0,0.0,0.0,0.0,0.0,0.0,0.0,6.1136,6.2526,6.4169,6.58,6.6828,6.7108,6.8659,6.9208,6.9063,6.9251,6.9461,6.9693,6.8964,6.8819,6.9682,6.9025,6.8692,6.9055,6.8636,6.8134,6.8174,6.7671,6.7537,6.7559,6.7637,6.7265,6.6914,6.6875,6.707,6.7344,6.7422,6.7578,6.8008,6.8437,6.875,6.8828,6.918,6.9453,6.9453,6.9531,6.9844,7.0586,7.0781,7.1094,7.1836,7.2031,7.2226,7.2539,7.2656,7.2851,9.39,9.3302,9.2703,9.2105,9.1566,9.0336,8.9288,8.8647,8.8303,8.7428,8.5757,8.3978,8.307,8.2849,8.1513,8.0956,8.0849,8.0587,8.025,7.9906,8.0081,8.0392,8.0613,8.0425,8.0701,8.0961,8.0727,8.053,8.0478,8.0322,8.027,8.027,8.0166,7.997,7.9731,0.0,0.0,0.0,7.9344,7.9143,7.8691,7.8691,7.844,7.7888,7.7837,0.0,7.6431,7.6682,7.618,7.4674,7.4372,0.0,0.0,0.0,0.0,0.0,0.0,0.0,0.0,0.0,0.0,0.0,6.8828,6.8148,6.5712,6.728,6.8695,6.9178,7.0654,7.1483,7.1558,7.2784,7.3396,7.2769,7.3209,7.3266,7.3243,7.2503,7.2079,7.2102,7.145,7.0752,6.9843,6.9635,6.9386,6.8886,6.8636,6.8636,6.8716,6.775,6.6953,6.6875,6.6875,6.6875,6.6953,6.6992,6.7148,6.7578,6.8008,6.8398,6.875,6.914,6.9453,6.9453,6.9726,7.0078,7.0625,7.1015,7.1367,7.1914,7.2305,7.2578,7.2656,7.2695,7.293,9.4379,9.402,9.3361,9.2703,0.0,9.1386,9.0562,8.9799,8.9441,8.8442,8.7031,8.5833,8.5199,8.4905,8.3906,8.3244,8.3081,8.2936,8.272,8.2277,8.2169,8.2032,8.1937,8.1609,8.1469,8.1232,8.1123,8.0934,8.0479,8.0479,8.0479,8.0479,8.0479,8.0289,7.9772,7.9527,7.943,7.8948,7.8948,7.8593,7.8139,7.8139,7.7837,7.7335,7.7285,0.0,0.0,0.0,0.0,0.0,0.0,0.0,0.0,0.0,0.0,7.0706,7.0472,7.0388,7.0688,7.131,7.2019,7.2961,7.4334,7.4012,7.0838,7.2474,7.37,7.37,7.4858,7.5567,7.5586,7.612,7.652,7.6365,7.6274,7.6126,7.6325,7.5597,7.4967,7.4705,7.3778,7.2803,7.2067,7.1576,7.1082,7.034,7.0092,6.9843,6.9386,6.8385,6.738,6.6875,6.6875,6.6875,6.6875,6.6875,6.6914,6.7226,6.7734,6.8203,6.8476,6.9023,6.9453,6.9453,6.9648,6.9961,7.0586,7.0898,7.125,7.1875,7.2383,7.2773,7.293,7.3164,7.3515,9.4618,9.4558,9.384,9.3242,9.2703,9.1925,9.1267,9.0608,8.995,0.0,0.0,8.7414,8.6835,8.624,8.586,8.5376,8.5052,8.4889,8.4725,8.4456,8.3923,8.3704,8.3307,8.2934,8.238,8.1636,8.159,8.1227,8.0736,8.0736,8.0736,8.0736,8.0736,8.0555,7.9881,7.9494,7.8917,7.8478,7.8489,7.824,7.7737,7.7536,7.7285,7.6733,7.6733,7.6482,7.5929,7.5979,7.5778,7.5276,7.5427,7.5075,7.4121,7.4121,7.4121,7.4021,7.4121,7.4423,7.4975,7.5234,7.5833,7.693,7.8357,7.7913,7.5452,7.6661,7.7483,7.7483,7.8354,7.8886,7.8886,7.8978,7.8982,7.9114,7.8847,7.881,7.8626,7.7915,7.7205,7.7013,7.6103,7.5231,7.4264,7.3778,7.3291,7.2313,7.1822,7.0835,7.0133,6.8886,6.7632,6.7127,6.7127,6.6875,6.6875,6.6875,6.6875,6.6914,6.7617,6.8164,6.832,6.8867,6.9375,6.9453,6.9492,6.9883,7.0547,7.082,7.1094,7.1836,7.2422,7.289,7.3281,7.3711,7.414,9.4618,9.4558,9.39,9.3541,9.3361,9.2105,9.1207,9.0608,8.995,8.9232,8.8514,8.7915,8.7157,8.6659,8.65,8.65,8.634,8.608,8.592,8.5759,8.5006,8.4864,8.5222,8.4047,8.3647,8.3871,8.3286,8.2934,8.2878,8.2878,8.2878,8.2878,8.2878,8.2292,8.1402,8.0172,7.9043,7.8079,7.8266,7.8289,7.7781,7.7184,7.6733,7.618,7.618,7.5929,7.5377,7.5829,7.5778,7.5276,7.613,7.6331,7.5778,7.613,7.623,7.5778,7.613,7.6682,7.7235,7.8189,7.9087,8.0139,8.0941,8.0617,7.8911,7.9237,7.963,7.9679,8.0169,8.0561,8.061,8.0783,8.0953,8.0705,8.0917,8.0805,7.991,7.9322,7.9093,7.8441,7.8295,7.7578,7.6432,7.6192,7.5712,7.4506,7.3778,7.2803,7.1082,6.9096,6.8134,6.7632,6.738,6.6875,6.6875,6.6875,6.6875,6.6875,6.7617,6.8203,6.8203,6.8867,6.9414,6.9453,6.9726,7.0156,7.0664,7.1055,7.1406,7.1953,7.2617,7.3203,7.332,7.3906,7.4492,9.4618,9.4558,9.4259,9.39,9.3481,9.2165,9.1446,9.1087,9.0489,8.983,8.9172,8.8514,8.7856,8.7197,8.6838,8.6659,8.6659,8.65,8.64,8.64,8.5699,8.5553,8.5848,8.4698,8.4315,8.4547,8.3931,8.3761,8.3761,8.3761,8.3761,8.3591,8.325,8.2733,8.2319,8.0907,7.9994,7.9591,7.8727,7.7804,7.6767,7.6874,7.6529,7.608,7.608,7.5929,7.5678,7.5929,7.5929,7.5678,7.6431,7.6783,7.6532,7.7034,7.7486,7.7837,7.8088,7.8641,7.9444,8.0248,8.0901,8.1403,8.1955,8.1942,8.1264,8.1249,8.1398,8.1398,8.1646,8.1795,8.1795,8.1777,8.1807,8.1664,8.1738,8.1539,8.1384,8.095,8.0736,8.0566,8.0112,7.9419,7.876,7.8334,7.7861,7.691,7.5712,7.4264,7.2558,7.0835,6.9136,6.8134,6.738,6.6875,6.6875,6.6875,6.6875,6.6875,6.7617,6.8125,6.8242,6.8867,6.9375,6.9453,6.9805,7.0234,7.0664,7.1055,7.1484,7.1953,7.2695,7.3203,7.3398,7.3984,7.4531,9.4618,9.4618,9.4618,9.4199,9.3481,9.2524,9.1925,9.1566,9.1087,9.0489,8.983,8.9172,8.8454,8.7676,8.7137,8.6838,8.6718,8.6659,8.6659,8.6659,8.64,8.624,8.624,8.5435,8.5052,8.4889,8.4562,8.4398,8.4398,8.4398,8.4398,8.4233,8.3571,8.3131,8.3307,8.1876,8.1051,8.0838,7.9545,7.8152,7.6586,7.6606,7.652,7.6227,7.608,7.608,7.608,7.608,7.613,7.6281,7.6783,7.7134,7.7285,7.7787,7.854,7.9444,7.9545,8.0047,8.1102,8.1704,8.2005,8.2005,8.2407,8.2658,8.2658,8.2658,8.2658,8.2658,8.2658,8.2658,8.2658,8.2228,8.2161,8.256,8.2223,8.1884,8.2327,8.2081,8.188,8.2319,8.1658,8.1262,8.0953,8.0678,7.9979,7.9041,7.7386,7.5953,7.4264,7.2558,7.0588,6.8886,6.7632,6.7127,6.6875,6.6875,6.6875,6.6875,6.7617,6.8086,6.832,6.8867,6.9375,6.9492,6.9883,7.0312,7.0703,7.1172,7.1601,7.1992,7.2695,7.3359,7.3672,7.414,7.457,9.4618,9.4618,9.4618,9.4199,9.3601,9.3421,9.2703,9.1686,9.1566,9.1147,9.0489,8.989,8.8873,8.7796,8.7616,8.7257,8.6718,8.6659,8.6659,8.6659,8.6659,8.6659,8.65,8.624,8.592,8.592,8.5538,8.5214,8.5214,8.5214,8.5214,8.5214,8.4725,8.4291,8.3853,8.296,8.2001,8.0736,8.0728,7.9967,7.8067,7.683,7.631,7.6621,7.6227,7.608,7.608,7.608,7.6281,7.6783,7.7285,7.7837,7.834,7.8892,7.9495,8.0097,8.0147,8.0599,8.1654,8.2257,8.2558,8.2608,8.2608,8.2658,8.2658,8.2658,8.2658,8.2658,8.2658,8.2658,8.2658,8.2658,8.2493,8.2593,8.2593,8.2328,8.2044,8.2174,8.2449,8.25,8.2768,8.3081,8.2839,8.2755,8.2066,8.0399,7.9041,7.7386,7.5712,7.3778,7.1822,7.0092,6.8636,6.7632,6.7127,6.6875,6.6875,6.6953,6.7617,6.8086,6.8359,6.8828,6.9453,6.9531,7.0117,7.0586,7.0859,7.1328,7.1875,7.207,7.2695,7.3515,7.4219,7.4531,7.457,9.4618,9.4618,9.4618,9.4439,9.4139,9.378,9.3302,9.2763,9.1925,9.1446,9.1147,9.0549,8.9711,8.8813,8.8095,8.7556,8.7257,8.6838,8.6659,8.6659,8.6659,8.6659,8.6659,8.65,8.6559,8.64,8.6181,8.6181,8.6181,8.6181,8.6021,8.586,8.5597,8.5214,8.4889,8.3903,8.3242,8.2795,8.1864,8.0988,8.0451,7.8761,7.7537,7.6817,7.6621,7.6424,7.608,7.608,7.6331,7.6883,7.7385,7.7938,7.849,7.9394,8.0097,8.065,8.1302,8.1855,8.2307,8.2558,8.2658,8.2658,8.2658,8.2658,8.2658,8.2658,8.2658,8.2658,8.2658,8.2658,8.2658,8.2658,8.2658,8.2658,8.2658,8.2658,8.2443,8.2427,8.2877,8.3507,8.3363,8.3636,8.4151,8.3895,8.3213,8.1836,8.0446,7.8806,7.6671,7.4506,7.2803,7.0877,6.9386,6.8134,6.7127,6.6875,6.6875,6.7031,6.7617,6.8164,6.832,6.8906,6.9453,6.9453,7.0156,7.0664,7.0703,7.1367,7.1992,7.2187,7.2695,7.3555,7.4414,7.457,7.457,9.4618,9.4618,9.4618,9.4618,9.4558,9.408,9.3721,9.3421,9.2404,9.1805,9.1566,9.0908,9.0369,8.983,8.8753,8.8095,8.7676,8.7197,8.6838,8.6718,8.6659,8.6659,8.6659,8.6659,8.6659,8.6659,8.6659,8.6659,8.6659,8.6659,8.65,8.624,8.624,8.614,8.5774,8.5123,8.4815,8.4725,8.3361,8.2525,8.1919,8.0536,7.8953,7.7599,7.7013,7.6621,7.6277,7.6378,7.6532,7.7084,7.7637,7.8189,7.8741,7.9695,8.0499,8.1252,8.2156,8.2658,8.2658,8.2658,8.2658,8.2658,8.2658,8.2658,8.2658,8.2658,8.2658,8.2658,8.2658,8.2658,8.2658,8.2658,8.2658,8.2658,8.2658,8.2658,8.2658,8.2658,8.311,8.4115,8.3876,8.4055,8.5001,8.485,8.3944,8.2984,8.1605,8.0212,7.7861,7.5953,7.3778,7.1864,7.0092,6.8636,6.738,6.6875,6.6875,6.7187,6.7734,6.8242,6.8359,6.9023,6.9414,6.9531,7.0234,7.0703,7.0781,7.1367,7.2148,7.2422,7.289,7.3594,7.4414,7.4531,7.457,9.4618,9.4618,9.4618,9.4618,9.4618,9.4558,9.4199,9.3601,9.2823,9.2224,9.1626,9.0908,9.0608,9.0549,8.983,8.8873,8.7856,8.7676,8.7317,8.6838,8.6778,8.6718,8.6659,8.6659,8.6718,8.6838,8.6898,8.6838,8.6778,8.6718,8.6659,8.6718,8.6778,8.6698,8.6852,8.6809,8.645,8.5926,8.5422,8.4426,8.2753,8.1839,8.0667,7.9198,7.7599,7.6868,7.6722,7.6781,7.7084,7.7637,7.8139,7.8741,7.9294,7.9947,8.075,8.1704,8.2357,8.2658,8.2658,8.2658,8.2658,8.2658,8.2658,8.2658,8.2658,8.2658,8.2658,8.2658,8.2658,8.2658,8.2658,8.2658,8.2658,8.2658,8.2658,8.2658,8.2658,8.2759,8.3211,8.4064,8.4416,8.4697,8.5872,8.5525,8.485,8.3944,8.3033,8.1374,7.9511,7.7623,7.5472,7.3047,7.1082,6.9386,6.8134,6.738,6.7031,6.7344,6.7773,6.832,6.875,6.9101,6.9297,6.9609,7.0273,7.0703,7.0859,7.1406,7.2226,7.2695,7.3008,7.3672,7.4297,7.4492,7.457,9.4618,9.4618,9.4618,9.4618,9.4618,9.4618,9.4439,9.4139,9.3062,9.2464,9.2105,9.1147,9.0668,9.0608,9.0429,8.983,8.8933,8.8514,8.8215,8.7975,8.7975,8.7975,8.7975,8.7975,8.7975,8.7975,8.7975,8.7975,8.7975,8.7975,8.7975,8.7975,8.7975,8.8095,8.8113,8.7788,8.7652,8.741,8.6855,8.5879,8.4747,8.3858,8.2708,8.12,7.8893,7.777,7.7375,7.7284,7.7687,7.8189,7.844,7.8942,7.9896,8.075,8.1553,8.2257,8.2558,8.2658,8.2658,8.2658,8.2658,8.2658,8.2658,8.2658,8.2658,8.2658,8.2658,8.2658,8.2658,8.2658,8.2658,8.2658,8.2658,8.2658,8.2658,8.2708,8.2759,8.296,8.3512,8.4215,8.4868,8.5621,8.5822,8.5799,8.5525,8.485,8.3668,8.2066,8.0212,7.8098,7.5953,7.3778,7.1576,6.9635,6.8636,6.7632,6.7031,6.7422,6.789,6.832,6.875,6.918,6.9414,6.9805,7.039,7.082,7.1055,7.1523,7.2305,7.2734,7.3047,7.3515,7.4062,7.4375,7.4531,9.4618,9.4618,9.4618,9.4618,9.4618,9.4618,9.4618,9.4439,9.3182,9.2583,9.2344,9.1207,9.0668,9.0668,9.0668,9.0429,8.995,8.9292,8.8873,8.8693,8.8693,8.8693,8.8693,8.8693,8.8693,8.8693,8.8693,8.8693,8.8693,8.8693,8.8693,8.8693,8.8693,8.8813,8.8933,8.8666,8.8635,8.8669,8.7944,8.7034,8.6203,8.5215,8.389,8.2549,8.0452,7.8881,7.8331,7.809,7.8139,7.849,7.8842,7.9595,8.065,8.1403,8.2056,8.2608,8.2658,8.2658,8.2658,8.2658,8.2658,8.2658,8.2658,8.2658,8.2658,8.2658,8.2658,8.2658,8.2658,8.2658,8.2658,8.2658,8.2658,8.2708,8.2809,8.2909,8.296,8.3412,8.3964,8.4567,8.537,8.5922,8.6023,8.6023,8.5749,8.5075,8.4122,8.2755,8.0911,7.876,7.6432,7.4506,7.2067,7.034,6.9177,6.8002,6.7559,6.7734,6.7969,6.8359,6.8828,6.9219,6.9609,7.0,7.0469,7.0937,7.1367,7.1758,7.2187,7.2578,7.3047,7.3476,7.3945,7.4336,7.4492,9.4618,9.4618,9.4618,9.4618,9.4618,9.4618,9.4618,9.4379,9.3182,9.2583,9.2404,9.1207,9.0668,9.0668,9.0668,9.0608,9.0429,8.995,8.9412,8.8933,8.8873,8.8813,8.8873,8.8933,8.8933,8.8873,8.8753,8.8813,8.8873,8.8873,8.8873,8.8813,8.8873,8.9172,8.9651,8.9711,8.9845,8.9655,8.8928,8.819,8.7305,8.5676,8.435,8.3194,8.1734,8.0454,7.9393,7.8848,7.8591,7.8741,7.9595,8.065,8.1503,8.1855,8.2106,8.2558,8.2658,8.2658,8.2658,8.2658,8.2658,8.2658,8.2658,8.2658,8.2658,8.2658,8.2658,8.2658,8.2658,8.2658,8.2658,8.2658,8.2658,8.2708,8.306,8.3361,8.3512,8.3964,8.4516,8.5069,8.5671,8.5973,8.6023,8.6023,8.5799,8.53,8.4624,8.3441,8.1836,7.9745,7.7578,7.5231,7.3047,7.1124,6.9757,6.8745,6.8422,6.8304,6.8203,6.8476,6.9023,6.9453,6.9726,7.0156,7.0781,7.1289,7.1601,7.1953,7.2109,7.25,7.2969,7.3359,7.375,7.4101,7.4453,9.4618,9.4618,9.4618,9.4618,9.4618,9.4618,9.4618,9.4499,9.3182,9.2583,9.2344,9.1207,9.0668,9.0668,9.0668,9.0668,9.0608,9.0429,9.0249,9.001,9.001,9.001,9.001,9.001,9.007,9.001,9.001,9.001,9.001,9.001,9.001,9.001,9.001,9.013,9.0309,9.0369,9.0502,9.0536,8.9975,8.9409,8.8583,8.7417,8.6034,8.4416,8.2812,8.163,8.0521,7.9657,7.9294,7.9645,7.9997,8.07,8.1654,8.2206,8.2508,8.2658,8.2658,8.2658,8.2658,8.2658,8.2658,8.2658,8.2658,8.2658,8.2658,8.2658,8.2658,8.2658,8.2658,8.2658,8.2658,8.2658,8.2708,8.2708,8.316,8.3562,8.3713,8.4366,8.5069,8.5621,8.5872,8.5973,8.6023,8.6023,8.6023,8.5799,8.5075,8.4171,8.2755,8.0863,7.8995,7.6432,7.4264,7.199,7.046,6.9277,6.8954,6.8539,6.8476,6.8633,6.918,6.9609,6.9883,7.039,7.1055,7.1523,7.1875,7.2031,7.2148,7.2383,7.2812,7.3164,7.3515,7.3906,7.4414,9.4618,9.4618,9.4618,9.4618,9.4618,9.4618,9.4618,9.4439,9.3421,9.2943,9.2703,9.1566,9.1027,9.0968,9.0728,9.0668,9.0668,9.0668,9.0668,9.0668,9.0668,9.0668,9.0668,9.0668,9.0668,9.0668,9.0668,9.0668,9.0668,9.0668,9.0668,9.0608,9.0668,9.0788,9.0968,9.1027,9.1159,9.1359,9.0967,9.0399,8.9693,8.8531,8.7019,8.5396,8.3987,8.2656,8.1341,8.0673,8.0255,8.0248,8.0549,8.1252,8.2056,8.2457,8.2658,8.2658,8.2658,8.2658,8.2658,8.2658,8.2658,8.2658,8.2658,8.2658,8.2658,8.2658,8.2658,8.2658,8.2658,8.2658,8.2708,8.2909,8.296,8.296,8.3512,8.3964,8.4366,8.5019,8.5521,8.5922,8.6023,8.6023,8.6023,8.6023,8.6023,8.6023,8.5525,8.4624,8.3213,8.1558,7.9464,7.7193,7.4967,7.2736,7.0747,6.9852,6.9231,6.9033,6.875,6.8945,6.9297,6.9687,7.0,7.0742,7.1445,7.168,7.1992,7.1992,7.207,7.2422,7.2695,7.3125,7.3555,7.4101,7.4531,9.4618,9.4618,9.4618,9.4618,9.4618,9.4618,9.4618,9.4499,9.384,9.3541,9.3242,9.2224,9.1686,9.1506,9.1087,9.0788,9.0728,9.0668,9.0668,9.0668,9.0668,9.0668,9.0668,9.0668,9.0668,9.0668,9.0668,9.0668,9.0668,9.0668,9.0668,9.0788,9.0848,9.1027,9.1566,9.1686,9.1985,9.2414,9.179,9.1219,9.1278,8.918,8.7484,8.6464,8.5059,8.338,8.2161,8.1744,8.122,8.0499,8.1302,8.2005,8.2558,8.2658,8.2658,8.2658,8.2658,8.2658,8.2658,8.2658,8.2658,8.2658,8.2658,8.2658,8.2658,8.2658,8.2658,8.2658,8.2759,8.2759,8.2859,8.3261,8.3512,8.3663,8.4064,8.4767,8.5772,8.5922,8.5973,8.5973,8.6023,8.6023,8.6023,8.6023,8.6023,8.6023,8.5525,8.4624,8.3441,8.1836,7.9745,7.7805,7.5913,7.4062,7.2371,7.0723,7.0103,6.9607,6.9284,6.918,6.9492,6.9844,7.0273,7.1055,7.164,7.1875,7.1992,7.1992,7.1992,7.2148,7.2539,7.3086,7.3594,7.414,7.4531,9.4618,9.4618,9.4618,9.4618,9.4618,9.4618,9.4618,9.4499,9.39,9.3601,9.3421,9.2703,9.2344,9.2284,9.1686,9.1386,9.1267,9.0908,9.0668,9.0668,9.0668,9.0668,9.0668,9.0668,9.0668,9.0728,9.0788,9.0668,9.0668,9.0728,9.0908,9.1327,9.1386,9.1686,9.2224,9.2344,9.2703,9.3071,9.2442,9.21,9.1862,9.0173,8.8606,8.7644,8.5775,8.43,8.3036,8.2354,8.1765,8.1453,8.2056,8.2508,8.2658,8.2658,8.2658,8.2658,8.2708,8.2708,8.2708,8.2708,8.2708,8.2658,8.2809,8.2658,8.2658,8.2658,8.2658,8.2759,8.301,8.3261,8.3361,8.3763,8.4215,8.4667,8.4868,8.527,8.5822,8.6023,8.6023,8.6023,8.6073,8.6073,8.6073,8.6073,8.6023,8.6023,8.5799,8.535,8.4221,8.3081,8.1285,7.9503,7.7674,7.5884,7.3792,7.1894,7.0681,7.0223,6.9859,6.9375,6.9687,7.0078,7.0625,7.1289,7.168,7.1953,7.1992,7.1992,7.1992,7.1992,7.2656,7.3281,7.3555,7.3984,7.4414,9.5037,9.4977,9.4738,9.4618,9.4618,9.4618,9.4618,9.4558,9.4199,9.402,9.384,9.3302,9.3002,9.2943,9.2344,9.2045,9.1985,9.1626,9.1506,9.1506,9.1506,9.1386,9.1207,9.1267,9.1446,9.1446,9.1446,9.1506,9.1506,9.1446,9.1686,9.1985,9.2045,9.2344,9.3002,9.3002,9.3361,9.3728,9.3328,9.2923,9.2979,9.117,8.9844,8.8636,8.6961,8.5443,8.3965,8.2855,8.2156,8.2206,8.2508,8.2658,8.2658,8.2658,8.2658,8.2708,8.2859,8.301,8.306,8.3211,8.3361,8.3361,8.3361,8.3361,8.3412,8.3361,8.3361,8.3462,8.3713,8.3813,8.3914,8.4315,8.5019,8.5671,8.5822,8.5973,8.6324,8.6374,8.6475,8.6575,8.6676,8.6575,8.6374,8.6324,8.6224,8.6073,8.6023,8.5675,8.4921,8.401,8.3008,8.1056,7.9089,7.7104,7.4926,7.2947,7.118,7.046,7.0174,6.9648,7.0078,7.043,7.0898,7.1445,7.1758,7.1992,7.1992,7.1992,7.1992,7.2226,7.289,7.3281,7.3555,7.3984,7.4414,9.5695,9.5636,9.5037,9.4798,9.4858,9.4798,9.4977,9.4858,9.4858,9.4798,9.4618,9.408,9.384,9.3661,9.3002,9.2703,9.2703,9.2464,9.2464,9.2464,9.2524,9.2404,9.1985,9.2224,9.2344,9.2404,9.2583,9.2464,9.2344,9.2464,9.2583,9.2643,9.2703,9.3062,9.3541,9.3721,9.408,9.4558,9.4156,9.3985,9.3745,9.2411,9.1029,8.988,8.8135,8.6138,8.4478,8.3464,8.2873,8.2759,8.2708,8.2708,8.2759,8.2759,8.2859,8.301,8.3361,8.3562,8.3663,8.3964,8.4215,8.4165,8.4215,8.4315,8.4165,8.4115,8.4115,8.4115,8.4366,8.4466,8.4667,8.5019,8.5671,8.6425,8.6726,8.6877,8.6927,8.6927,8.7077,8.7479,8.758,8.7329,8.7077,8.6826,8.6726,8.6625,8.6525,8.6224,8.5692,8.5007,8.3916,8.2424,8.0165,7.8083,7.5813,7.3789,7.1939,7.0659,7.0371,7.0039,7.0547,7.0937,7.1289,7.164,7.1875,7.1992,7.1992,7.1992,7.2031,7.2344,7.289,7.3203,7.3476,7.4101,7.457,9.6354,9.6354,9.6174,9.6174,9.6174,9.6174,9.6114,9.6114,9.6114,9.5755,9.5396,9.5217,9.4858,9.4379,9.3721,9.3361,9.3302,9.2943,9.2583,9.2643,9.3182,9.3302,9.3062,9.2883,9.2643,9.2703,9.2643,9.2643,9.2643,9.2823,9.2883,9.3302,9.3421,9.3721,9.4259,9.4379,9.4738,9.5277,9.487,9.4814,9.4571,9.3415,9.2031,9.0881,8.8531,8.6252,8.4736,8.3728,8.3289,8.3326,8.296,8.296,8.3261,8.3311,8.3462,8.3813,8.4014,8.4165,8.4165,8.4315,8.4315,8.4416,8.4466,8.4315,8.4315,8.4366,8.4366,8.4416,8.4717,8.5119,8.5521,8.6123,8.6525,8.6877,8.7228,8.763,8.7931,8.768,8.7529,8.763,8.768,8.758,8.7429,8.7429,8.7329,8.7228,8.7001,8.7051,8.6467,8.5828,8.473,8.3467,8.1259,7.9091,7.653,7.4211,7.1842,7.0817,7.0303,7.039,7.0898,7.125,7.1562,7.1758,7.1953,7.1992,7.1992,7.2109,7.2148,7.2539,7.293,7.332,7.375,7.4297,7.457,9.7012,9.6952,9.6713,9.6593,9.6593,9.6593,9.6593,9.6593,9.6593,9.6354,9.6055,9.5755,9.5396,9.5037,9.4379,9.408,9.402,9.3721,9.3541,9.3661,9.396,9.408,9.402,9.378,9.3541,9.3541,9.3541,9.3541,9.3541,9.3541,9.378,9.402,9.402,9.4199,9.4618,9.4917,9.5217,9.5576,9.5759,9.5645,9.5459,9.4665,9.2847,9.1246,8.8708,8.6409,8.4998,8.4196,8.3858,8.3628,8.3462,8.3562,8.3813,8.3864,8.4064,8.4265,8.4617,8.4667,8.4717,8.4968,8.5169,8.5069,8.5119,8.5119,8.5119,8.5119,8.5119,8.5169,8.542,8.5772,8.6324,8.6826,8.7178,8.758,8.7831,8.8232,8.8584,8.8333,8.8132,8.8283,8.8433,8.8283,8.8132,8.8032,8.778,8.758,8.7479,8.7352,8.7523,8.6882,8.5781,8.4371,8.2113,7.9808,7.75,7.489,7.1663,7.0713,7.0539,7.0664,7.1133,7.1445,7.1758,7.1875,7.1992,7.1992,7.2031,7.2109,7.2344,7.2656,7.3086,7.3555,7.3984,7.4336,7.4531,9.767,9.7611,9.7072,9.6892,9.6892,9.6892,9.6952,9.6892,9.6892,9.6892,9.6653,9.6114,9.5875,9.5456,9.5037,9.4738,9.4558,9.4558,9.4379,9.4439,9.4439,9.4499,9.4499,9.4439,9.4439,9.4618,9.4499,9.4499,9.4499,9.4618,9.4379,9.4558,9.4618,9.4678,9.4858,9.5277,9.5755,9.6114,9.6533,9.6656,9.6289,9.5676,9.3855,9.1103,8.9018,8.6824,8.5522,8.4613,8.4162,8.3612,8.4115,8.4416,8.4567,8.4466,8.4516,8.4617,8.5069,8.5219,8.532,8.5621,8.5922,8.6023,8.5973,8.5973,8.5922,8.5872,8.5922,8.6073,8.6224,8.6475,8.6877,8.7429,8.7931,8.8283,8.8484,8.8835,8.9086,8.8835,8.8835,8.9036,8.8986,8.8785,8.8684,8.8584,8.8232,8.7981,8.7881,8.7931,8.8103,8.7427,8.6455,8.4896,8.283,7.9335,7.6543,7.4671,7.1944,7.1068,7.0625,7.0976,7.1406,7.164,7.1875,7.1914,7.1992,7.1992,7.2109,7.2305,7.2539,7.2812,7.3242,7.3789,7.414,7.4375,7.4492,9.8329,9.8329,9.8269,9.8209,9.8209,9.8209,9.8149,9.8209,9.8089,9.785,9.7371,9.7192,9.6473,9.5815,9.5516,9.5157,9.4738,9.4618,9.4618,9.4618,9.4618,9.4618,9.4618,9.4618,9.4618,9.4618,9.4618,9.4618,9.4618,9.4618,9.4618,9.4618,9.4678,9.4858,9.5277,9.5636,9.6234,9.6833,9.7252,9.7312,9.7186,9.6262,9.4579,9.127,8.9274,8.7495,8.5784,8.5142,8.4745,8.4383,8.4717,8.5219,8.542,8.5219,8.5219,8.5521,8.5671,8.5772,8.5872,8.5922,8.6023,8.6023,8.6123,8.6073,8.6073,8.6073,8.6324,8.6676,8.7027,8.7379,8.7479,8.7981,8.8283,8.8584,8.8885,8.9237,8.9337,8.9337,8.9237,8.9387,8.9337,8.9237,8.9086,8.8986,8.8785,8.8634,8.8634,8.8634,8.8604,8.7824,8.6798,8.5136,8.326,7.931,7.5311,7.3929,7.1821,7.1582,7.1133,7.1289,7.164,7.1836,7.1992,7.1992,7.2031,7.2031,7.2187,7.25,7.2851,7.3203,7.3633,7.4101,7.4297,7.4492,7.4531,9.8508,9.8508,9.8508,9.8508,9.8508,9.8508,9.8508,9.8508,9.8508,9.8329,9.803,9.7611,9.7012,9.6174,9.5695,9.5217,9.4738,9.4618,9.4618,9.4618,9.4618,9.4618,9.4618,9.4618,9.4618,9.4618,9.4618,9.4618,9.4618,9.4618,9.4618,9.4678,9.4917,9.5277,9.5695,9.6294,9.6833,9.7491,9.785,9.7969,9.7724,9.6682,9.4372,9.2446,9.0332,8.8625,8.7143,8.5979,8.5471,8.5376,8.5491,8.5671,8.5822,8.5822,8.5722,8.5973,8.6023,8.6174,8.6324,8.6425,8.6525,8.6826,8.6826,8.6826,8.6826,8.6877,8.6927,8.7228,8.768,8.8032,8.8082,8.8584,8.8986,8.9287,8.9588,8.9789,9.004,9.009,8.994,8.9689,8.9488,8.9387,8.9287,8.9237,8.9237,8.9287,8.9287,8.9287,8.9337,8.8171,8.7042,8.5135,8.3043,7.9593,7.5774,7.4081,7.2485,7.1977,7.1754,7.164,7.1797,7.1953,7.1992,7.1992,7.2031,7.2031,7.2461,7.2773,7.3164,7.3555,7.3984,7.4336,7.4492,7.457,7.457,9.8508,9.8508,9.8508,9.8508,9.8508,9.8508,9.8508,9.8508,9.8508,9.8508,9.8448,9.797,9.7311,9.6533,9.5755,9.5097,9.4618,9.4618,9.4618,9.4618,9.4618,9.4618,9.4618,9.4618,9.4618,9.4618,9.4618,9.4618,9.4618,9.4618,9.4678,9.4917,9.5396,9.5815,9.6174,9.6892,9.7431,9.785,9.8209,9.8147,9.7418,9.6252,9.4941,9.3278,9.127,8.9748,8.8186,8.6929,8.621,8.595,8.6015,8.5973,8.6023,8.6023,8.6073,8.6123,8.6174,8.6425,8.6625,8.6927,8.7077,8.7379,8.7529,8.758,8.758,8.758,8.773,8.7881,8.8283,8.8735,8.8885,8.9187,8.9689,9.009,9.0241,9.0392,9.0643,9.0743,9.0542,9.0241,8.9839,8.9538,8.9438,8.9287,8.9287,8.9287,8.9287,8.9538,8.9305,8.8418,8.7098,8.5126,8.2657,7.9662,7.6799,7.4754,7.3457,7.2562,7.195,7.1758,7.1875,7.1992,7.1992,7.1992,7.1992,7.2109,7.2578,7.3047,7.3359,7.375,7.4258,7.4531,7.457,7.457,7.457,9.8508,9.8508,9.8508,9.8508,9.8508,9.8508,9.8508,9.8508,9.8508,9.8508,9.8508,9.8389,9.767,9.6533,9.5277,9.4738,9.4618,9.4618,9.4618,9.4618,9.4618,9.4618,9.4618,9.4618,9.4618,9.4618,9.4618,9.4618,9.4678,9.4678,9.4917,9.5336,9.5695,9.6114,9.7012,9.7431,9.779,9.8269,9.8508,9.7965,9.7235,9.6496,9.5187,9.3471,9.1719,9.0205,8.876,8.7457,8.6529,8.6271,8.6166,8.5973,8.6023,8.6023,8.6274,8.6525,8.6676,8.6726,8.6927,8.7278,8.758,8.778,8.778,8.763,8.7831,8.8132,8.8383,8.8383,8.8885,8.9337,8.9639,8.994,9.0291,9.0593,9.0844,9.0894,9.1045,9.1396,9.1195,9.0944,9.0593,9.004,8.9639,8.9438,8.9287,8.9287,8.9337,8.9639,8.9421,8.8628,8.7346,8.5356,8.3254,8.0236,7.7829,7.5513,7.4087,7.3149,7.2378,7.1875,7.1914,7.1992,7.1992,7.1992,7.2031,7.2226,7.2734,7.3164,7.3476,7.3906,7.4375,7.4531,7.457,7.457,7.457,9.8508,9.8508,9.8508,9.8508,9.8508,9.8508,9.8508,9.8508,9.8508,9.8508,9.8508,9.8508,9.779,9.6473,9.5217,9.4618,9.4618,9.4618,9.4618,9.4618,9.4618,9.4618,9.4618,9.4618,9.4618,9.4618,9.4618,9.4618,9.4678,9.5037,9.5336,9.5636,9.6294,9.6892,9.7611,9.791,9.8209,9.8448,9.8328,9.7965,9.7235,9.6682,9.5693,9.3664,9.186,9.057,8.9441,8.7562,8.6735,8.6694,8.6591,8.5973,8.6123,8.6274,8.6575,8.6776,8.7429,8.773,8.778,8.7981,8.8182,8.8484,8.8534,8.8584,8.8634,8.8735,8.8935,8.8935,8.9438,8.9839,9.0141,9.0392,9.0844,9.1195,9.1396,9.1597,9.1697,9.1798,9.1848,9.1647,9.1346,9.0794,9.0241,9.004,8.989,8.9789,8.989,9.009,8.9784,8.9229,8.7689,8.5676,8.3553,8.1324,7.8821,7.654,7.4905,7.3808,7.2457,7.1953,7.1953,7.1992,7.1992,7.2109,7.2265,7.2539,7.293,7.3242,7.3594,7.4023,7.4492,7.4531,7.457,7.457,7.457,9.8508,9.8508,9.8508,9.8508,9.8508,9.8508,9.8508,9.8508,9.8508,9.8508,9.8448,9.8149,9.7431,9.6473,9.5277,9.4618,9.4618,9.4618,9.4618,9.4618,9.4618,9.4618,9.4618,9.4618,9.4618,9.4618,9.4618,9.4738,9.5097,9.5456,9.5815,9.5875,9.6833,9.7491,9.785,9.8209,9.8508,9.8508,9.8508,9.7965,9.7235,9.6866,9.5564,9.3856,9.228,9.0936,9.0491,8.8141,8.7043,8.7221,8.6641,8.6023,8.6073,8.6425,8.6826,8.7128,8.7831,8.8383,8.8534,8.8684,8.8885,8.9136,8.9287,8.9136,8.9187,8.9287,8.9438,8.9488,8.9789,9.0141,9.0542,9.0944,9.1396,9.1748,9.1999,9.225,9.2451,9.235,9.23,9.2149,9.1898,9.1647,9.1195,9.0794,9.0542,9.0392,9.0442,9.0593,9.0333,8.987,8.8317,8.6491,8.4379,8.2362,7.982,7.7585,7.6033,7.4197,7.2807,7.2264,7.1992,7.1992,7.1992,7.2187,7.2461,7.2773,7.3086,7.3359,7.3672,7.414,7.4531,7.457,7.457,7.457,7.457,9.8508,9.8508,9.8508,9.8508,9.8508,9.8508,9.8508,9.8508,9.8508,9.8508,9.8389,9.7371,9.6773,9.6234,9.5336,9.4618,9.4618,9.4618,9.4618,9.4618,9.4618,9.4618,9.4618,9.4618,9.4618,9.4618,9.4618,9.4917,9.5516,9.5995,9.6354,9.6653,9.7311,9.785,9.8209,9.8448,9.8508,9.8508,9.8508,9.7965,9.7235,9.6496,9.5376,9.3585,9.2221,9.1228,9.0239,8.8403,8.7197,8.7425,8.6641,8.6023,8.6073,8.6625,8.7027,8.7479,8.8132,8.8735,8.8986,8.9086,8.9187,8.9287,8.9287,8.9287,8.9287,8.9287,8.9538,8.994,9.0241,9.0743,9.1246,9.1748,9.1999,9.2149,9.23,9.2401,9.2501,9.2501,9.2501,9.2501,9.235,9.2099,9.1949,9.1547,9.1195,9.0994,9.1145,9.1296,9.0881,9.0314,8.934,8.7462,8.5506,8.3266,8.0687,7.8377,7.6033,7.4157,7.2807,7.2264,7.1992,7.1992,7.1992,7.2305,7.2578,7.289,7.3281,7.3672,7.4062,7.4375,7.457,7.457,7.457,7.457,7.457,9.8508,9.8508,9.8508,9.8508,9.8508,9.8508,9.8508,9.8508,9.8508,9.8508,9.8448,9.7192,9.6593,9.6174,9.5277,9.4618,9.4618,9.4618,9.4618,9.4618,9.4618,9.4618,9.4618,9.4618,9.4618,9.4618,9.4618,9.4977,9.5576,9.6294,9.6833,9.7192,9.779,9.8149,9.8508,9.8508,9.8508,9.8508,9.8328,9.7965,9.7051,9.6496,9.5376,9.3528,9.1825,9.0822,8.9561,8.808,8.7351,8.6933,8.6419,8.6246,8.6174,8.6776,8.7278,8.768,8.8383,8.8986,8.9187,8.9287,8.9287,8.9287,8.9287,8.9337,8.9438,8.9588,8.9839,9.0241,9.0743,9.1346,9.1597,9.2049,9.235,9.2501,9.2551,9.2551,9.2551,9.2551,9.2551,9.2551,9.2551,9.2401,9.235,9.225,9.1898,9.1597,9.1798,9.1759,9.1188,9.061,8.9289,8.7652,8.5645,8.3311,8.0731,7.8377,7.5766,7.4426,7.3077,7.2535,7.1992,7.1992,7.207,7.2344,7.2734,7.3164,7.3594,7.4062,7.4375,7.4531,7.457,7.457,7.457,7.457,7.457,9.8389,9.8209,9.8209,9.8329,9.8508,9.8508,9.8508,9.8508,9.8508,9.8389,9.8149,9.7072,9.6414,9.5995,9.5157,9.4618,9.4618,9.4618,9.4618,9.4618,9.4618,9.4618,9.4618,9.4618,9.4618,9.4618,9.4678,9.4977,9.5935,9.6354,9.7012,9.773,9.8269,9.8448,9.8508,9.8508,9.8508,9.8508,9.8328,9.7965,9.7051,9.6311,9.5361,9.3368,9.1813,9.0534,8.9251,8.8177,8.7338,8.6762,8.6469,8.6023,8.6374,8.6877,8.7479,8.7981,8.8534,8.9237,8.9287,8.9287,8.9387,8.9538,8.9588,8.9639,8.9839,9.0141,9.0442,9.0743,9.1396,9.1848,9.1949,9.235,9.2501,9.2551,9.2551,9.2551,9.2551,9.2551,9.2551,9.2551,9.2551,9.2551,9.2501,9.2451,9.23,9.1809,9.1669,9.1769,9.1386,9.027,8.8845,8.7153,8.5139,8.2798,8.0515,7.7892,7.5499,7.4467,7.3117,7.2264,7.1992,7.2031,7.2187,7.25,7.293,7.3437,7.3828,7.4219,7.4414,7.457,7.457,7.457,7.457,7.457,7.457,9.8089,9.7551,9.7491,9.791,9.8389,9.8508,9.8448,9.8448,9.8508,9.8209,9.7611,9.6833,9.6234,9.5636,9.4917,9.4618,9.4618,9.4618,9.4618,9.4618,9.4618,9.4618,9.4618,9.4618,9.4618,9.4618,9.4738,9.5217,9.6473,9.6533,9.7252,9.8089,9.8448,9.8508,9.8508,9.8508,9.8508,9.8508,9.8508,9.7783,9.7051,9.6066,9.4659,9.3429,9.1797,9.05,8.9199,8.8056,8.7374,8.6641,8.6246,8.6023,8.6274,8.7077,8.758,8.778,8.8735,8.9237,8.9287,8.9287,8.9538,8.989,8.989,9.0141,9.0643,9.0944,9.1045,9.1346,9.1798,9.2099,9.235,9.2551,9.2551,9.2551,9.2551,9.2551,9.2551,9.2551,9.2551,9.2551,9.2551,9.2551,9.2551,9.2551,9.2551,9.226,9.1827,9.1585,9.1099,8.9878,8.8398,8.6102,8.4123,8.2026,7.9427,7.7056,7.4963,7.4197,7.3117,7.2264,7.207,7.2109,7.2344,7.2695,7.3164,7.3672,7.3984,7.4297,7.4453,7.457,7.457,7.457,7.457,7.457,7.457,9.7491,9.6892,9.6892,9.7012,9.7252,9.7252,9.7431,9.785,9.8269,9.8149,9.7491,9.6833,9.6174,9.5576,9.4977,9.4618,9.4618,9.4618,9.4618,9.4618,9.4618,9.4618,9.4618,9.4618,9.4618,9.4618,9.4738,9.5336,9.6533,9.6653,9.7371,9.8209,9.8508,9.8508,9.8508,9.8508,9.8508,9.8328,9.8147,9.7601,9.6866,9.5751,9.4525,9.3402,9.1814,9.0299,8.9036,8.8097,8.7255,8.6419,8.6023,8.6123,8.6475,8.7278,8.773,8.8132,8.8935,8.9237,8.9287,8.9337,8.9538,8.994,9.0191,9.0442,9.0844,9.1296,9.1597,9.1848,9.2099,9.235,9.2551,9.2551,9.2551,9.2551,9.2551,9.2551,9.2551,9.2551,9.2551,9.2551,9.2551,9.2551,9.2551,9.2551,9.2551,9.2069,9.1585,9.0856,9.0368,8.8845,8.7355,8.5093,8.2798,8.0731,7.8377,7.6383,7.4817,7.3738,7.2886,7.2264,7.207,7.2187,7.2617,7.2969,7.3437,7.3867,7.418,7.4453,7.4531,7.457,7.457,7.457,7.457,7.457,7.457,9.6773,9.6234,9.6234,9.6114,9.5995,9.6354,9.6833,9.7192,9.7611,9.7491,9.6833,9.6354,9.5875,9.5277,9.4858,9.4618,9.4618,9.4618,9.4618,9.4618,9.4618,9.4618,9.4618,9.4678,9.4798,9.4858,9.5097,9.5636,9.6892,9.6892,9.7551,9.8269,9.8508,9.8508,9.8508,9.8508,9.8508,9.8328,9.8147,9.7418,9.6496,9.5245,9.4062,9.2977,9.1571,8.9988,8.8979,8.7878,8.7306,8.6419,8.6073,8.6274,8.6776,8.7329,8.7881,8.8433,8.8935,8.9237,8.9287,8.9588,8.989,9.0392,9.0392,9.0743,9.1346,9.1898,9.1999,9.22,9.2401,9.2501,9.2551,9.2551,9.2551,9.2551,9.2551,9.2551,9.2551,9.2551,9.2551,9.2551,9.2551,9.2551,9.2551,9.2551,9.231,9.1827,9.1099,9.0417,8.9435,8.7604,8.5851,8.3567,8.1642,7.9686,7.7614,7.5786,7.4479,7.3587,7.2653,7.1992,7.2148,7.2305,7.2773,7.3242,7.3633,7.3984,7.4375,7.457,7.457,7.457,7.457,7.457,7.457,7.457,7.457,9.6174,9.5576,9.5576,9.5217,9.4917,9.5875,9.6414,9.6533,9.6593,9.6294,9.5636,9.5695,9.5336,9.4798,9.4618,9.4618,9.4618,9.4618,9.4618,9.4618,9.4618,9.4618,9.4678,9.4738,9.5037,9.5396,9.5695,9.6174,9.7371,9.7551,9.797,9.8389,9.8508,9.8508,9.8508,9.8508,9.8508,9.8328,9.7783,9.7235,9.6125,9.4867,9.3764,9.2657,9.1228,8.9887,8.8757,8.7916,8.7085,8.6419,8.6023,8.6374,8.6776,8.7329,8.7881,8.8484,8.9036,8.9187,8.9337,8.9689,9.0241,9.0693,9.0944,9.1547,9.2099,9.235,9.235,9.2401,9.2551,9.2551,9.2551,9.2551,9.2551,9.2551,9.2551,9.2551,9.2551,9.2551,9.2551,9.2551,9.2551,9.2551,9.2551,9.2551,9.2169,9.159,9.0662,8.9527,8.8235,8.6149,8.4377,8.207,8.021,7.8399,7.657,7.4871,7.3978,7.3044,7.2653,7.2031,7.2187,7.2422,7.289,7.3359,7.375,7.4101,7.4453,7.457,7.457,7.457,7.457,7.457,7.457,7.457,7.4609,9.5516,9.4917,9.4917,9.4798,9.4678,9.5037,9.5456,9.5875,9.6354,9.6174,9.5576,9.5576,9.5157,9.4618,9.4618,9.4618,9.4618,9.4618,9.4618,9.4618,9.4618,9.4618,9.4798,9.5037,9.5396,9.5695,9.6114,9.6713,9.7431,9.791,9.8209,9.8508,9.8508,9.8508,9.8508,9.8508,9.8328,9.7965,9.7418,9.6682,9.568,9.4525,9.3514,9.2274,9.0823,8.9568,8.8584,8.7696,8.6863,8.6246,8.6023,8.6374,8.7329,8.758,8.7931,8.8935,8.9237,8.9287,8.9387,8.9789,9.0342,9.0894,9.1296,9.1848,9.235,9.2551,9.2551,9.2551,9.2551,9.2551,9.2551,9.2551,9.2551,9.2551,9.2551,9.2551,9.2551,9.2551,9.2551,9.2551,9.2551,9.2551,9.2551,9.2169,9.1834,9.13,9.0216,8.8867,8.7357,8.5555,8.337,8.1082,7.9195,7.7439,7.5533,7.3786,7.3123,7.2499,7.2382,7.2031,7.2148,7.2461,7.3008,7.3476,7.3984,7.4258,7.4531,7.457,7.457,7.457,7.457,7.457,7.457,7.457,7.4609,9.4977,9.4618,9.4618,9.4618,9.4618,9.4618,9.4858,9.5277,9.5636,9.5516,9.5217,9.5157,9.4977,9.4678,9.4618,9.4618,9.4618,9.4618,9.4618,9.4618,9.4618,9.4858,9.5097,9.5396,9.5875,9.6234,9.6713,9.7311,9.785,9.8209,9.8508,9.8508,9.8508,9.8508,9.8508,9.8508,9.8147,9.7601,9.6866,9.6066,9.4982,9.3788,9.2635,9.1626,9.0202,8.9299,8.8252,8.7306,8.6641,8.6023,8.6023,8.6525,8.7529,8.7981,8.8383,8.9237,8.9287,8.9287,8.9387,9.009,9.0542,9.1045,9.1647,9.22,9.2401,9.2551,9.2551,9.2551,9.2551,9.2551,9.2551,9.2551,9.2551,9.2551,9.2551,9.2551,9.2551,9.2551,9.2551,9.2551,9.2551,9.2551,9.241,9.2027,9.1495,9.0759,8.9559,8.778,8.6504,8.4823,8.2656,8.0289,7.837,7.6728,7.477,7.336,7.3086,7.2656,7.2109,7.2109,7.2187,7.2656,7.3281,7.3789,7.4258,7.4453,7.457,7.457,7.457,7.457,7.457,7.457,7.457,7.457,7.4609,9.4618,9.4618,9.4618,9.4618,9.4618,9.4618,9.4618,9.4618,9.4738,9.4618,9.4678,9.4618,9.4678,9.4618,9.4618,9.4618,9.4618,9.4618,9.4618,9.4618,9.4618,9.4858,9.5336,9.5695,9.6354,9.7072,9.7611,9.785,9.8329,9.8508,9.8508,9.8508,9.8508,9.8508,9.8508,9.8508,9.7965,9.7235,9.6496,9.5505,9.397,9.2615,9.1228,9.0239,8.9146,8.8221,8.7762,8.7085,8.6641,8.6246,8.6123,8.6525,8.7529,8.8584,8.9086,8.9237,8.9287,8.9287,8.9538,9.0241,9.0693,9.1246,9.1898,9.235,9.2551,9.2551,9.2551,9.2551,9.2551,9.2551,9.2551,9.2551,9.2551,9.2551,9.2551,9.2551,9.2551,9.2551,9.2551,9.2551,9.2551,9.2551,9.241,9.2076,9.1546,9.0556,8.9189,8.7179,8.5506,8.4154,8.1604,7.947,7.7979,7.6195,7.4462,7.3401,7.3087,7.2656,7.2226,7.207,7.207,7.2734,7.3594,7.4023,7.4453,7.4492,7.457,7.457,7.457,7.457,7.457,7.457,7.457,7.457,7.4609,9.4618,9.4618,9.4618,9.4618,9.4618,9.4618,9.4618,9.4618,9.4618,9.4618,9.4618,9.4618,9.4618,9.4618,9.4618,9.4618,9.4618,9.4618,9.4618,9.4618,9.4618,9.5037,9.5636,9.6055,9.6773,9.7431,9.797,9.8269,9.8448,9.8508,9.8508,9.8508,9.8508,9.8508,9.8508,9.8508,9.7965,9.7051,9.6066,9.4941,9.3528,9.2277,9.1079,8.9769,8.8455,8.7787,8.7102,8.6641,8.6246,8.6023,8.6023,8.6575,8.7529,8.8684,8.9187,8.9287,8.9287,8.9287,8.9588,9.0241,9.0844,9.1246,9.1798,9.23,9.2551,9.2551,9.2551,9.2551,9.2551,9.2551,9.2551,9.2551,9.2551,9.2551,9.2551,9.2551,9.2551,9.2551,9.2551,9.2551,9.2551,9.2601,9.2461,9.2082,9.1546,9.0494,8.8997,8.705,8.4916,8.3365,8.0518,7.8311,7.7261,7.5572,7.411,7.3205,7.2812,7.2539,7.2109,7.2031,7.2031,7.2773,7.3555,7.418,7.457,7.457,7.457,7.457,7.457,7.457,7.457,7.457,7.457,7.457,7.457,9.4618,9.4618,9.4618,9.4618,9.4618,9.4618,9.4618,9.4618,9.4618,9.4618,9.4618,9.4618,9.4618,9.4618,9.4618,9.4618,9.4618,9.4618,9.4618,9.4618,9.4738,9.5277,9.5815,9.6414,9.7192,9.785,9.8209,9.8508,9.8508,9.8508,9.8508,9.8508,9.8508,9.8508,9.8508,9.8328,9.7965,9.7051,9.6066,9.4562,9.3142,9.1681,9.0414,8.8933,8.808,8.7133,8.6882,8.6469,8.6023,8.6224,8.6475,8.6877,8.778,8.8684,8.9187,8.9287,8.9287,8.9287,8.9588,9.0191,9.0894,9.1246,9.1949,9.2501,9.2551,9.2551,9.2551,9.2551,9.2551,9.2551,9.2551,9.2551,9.2551,9.2551,9.2551,9.2551,9.2551,9.2551,9.2551,9.2551,9.2551,9.236,9.2319,9.2235,9.1394,8.968,8.8463,8.6587,8.452,8.2273,7.9482,7.7313,7.6486,7.5099,7.3874,7.2969,7.2656,7.2344,7.2031,7.2344,7.2578,7.3008,7.3555,7.418,7.457,7.457,7.457,7.457,7.457,7.457,7.457,7.457,7.457,7.457,7.457,9.4618,9.4618,9.4618,9.4618,9.4618,9.4618,9.4618,9.4618,9.4618,9.4618,9.4618,9.4618,9.4618,9.4618,9.4618,9.4618,9.4618,9.4618,9.4618,9.4618,9.4618,9.5217,9.5875,9.6533,9.7371,9.803,9.8448,9.8508,9.8508,9.8508,9.8508,9.8508,9.8508,9.8508,9.8508,9.8328,9.7965,9.7051,9.588,9.4372,9.2671,9.0771,8.9432,8.8407,8.7331,8.6863,8.6559,8.6419,8.5973,8.6374,8.6877,8.7329,8.7881,8.8634,8.9086,8.9287,8.9287,8.9287,8.9488,9.0291,9.0743,9.1195,9.2049,9.2501,9.2551,9.2551,9.2551,9.2551,9.2551,9.2551,9.2551,9.2551,9.2551,9.2551,9.2551,9.2551,9.2551,9.2551,9.2551,9.2551,9.2551,9.231,9.1983,9.1891,9.089,8.9157,8.7524,8.5405,8.3624,8.1185,7.8591,7.6965,7.5775,7.4624,7.3359,7.3008,7.2656,7.2344,7.2187,7.2656,7.3086,7.3398,7.3789,7.4297,7.457,7.457,7.457,7.457,7.457,7.457,7.457,7.457,7.457,7.457,7.457,9.4618,9.4618,9.4618,9.4618,9.4618,9.4618,9.4618,9.4618,9.4618,9.4618,9.4618,9.4618,9.4618,9.4618,9.4618,9.4618,9.4618,9.4618,9.4618,9.4618,9.4618,9.5157,9.5755,9.6414,9.7371,9.797,9.8329,9.8508,9.8389,9.8448,9.8508,9.8508,9.8508,9.8508,9.8508,9.8328,9.7965,9.7051,9.588,9.4562,9.2446,9.0497,8.8743,8.7407,8.6547,8.6031,8.5662,8.5772,8.5922,8.6324,8.6927,8.7379,8.7931,8.8534,8.9036,8.9287,8.9287,8.9287,8.9639,9.0291,9.0693,9.1045,9.1798,9.2501,9.2501,9.2551,9.2551,9.2551,9.2551,9.2551,9.2551,9.2551,9.2551,9.2551,9.2551,9.2551,9.2551,9.2551,9.2551,9.2551,9.2551,9.2119,9.1684,9.1152,9.0388,8.8741,8.6712,8.4787,8.2814,8.0365,7.7926,7.6652,7.5338,7.4385,7.3398,7.3047,7.2695,7.2422,7.2383,7.293,7.3398,7.375,7.414,7.4492,7.457,7.457,7.457,7.457,7.457,7.457,7.457,7.457,7.457,7.457,7.457]},{"header":{"parameterUnit":"m.s-1","parameterCategory":1,"la1":31.0,"la2":29.5877,"lo1":-88.7671,"lo2":-86.6584,"dy":0.0162,"dx":0.0185,"nx":115,"ny":88,"refTime":"2024-09-26T18:00:00:Z","depth":0,"parameterNumber":3,"parameterNumberName":"V-component_of_WINDS"},"data":[0.0,0.0,0.0,0.0,0.0,0.0,0.0,0.0,0.0,0.0,0.0,0.0,0.0,0.0,0.0,0.0,0.0,0.0,0.0,0.0,0.0,0.0,0.0,0.0,0.0,0.0,0.0,0.0,0.0,0.0,0.0,0.0,0.0,0.0,0.0,0.0,0.0,0.0,0.0,0.0,0.0,0.0,0.0,0.0,0.0,0.0,0.0,0.0,0.0,0.0,0.0,0.0,0.0,0.0,0.0,0.0,0.0,0.0,0.0,0.0,0.0,0.0,0.0,0.0,0.0,0.0,0.0,0.0,0.0,0.0,0.0,0.0,0.0,0.0,0.0,0.0,0.0,0.0,0.0,0.0,0.0,0.0,0.0,0.0,0.0,0.0,0.0,0.0,0.0,0.0,0.0,0.0,0.0,0.0,0.0,0.0,0.0,0.0,0.0,0.0,0.0,0.0,0.0,0.0,0.0,0.0,0.0,0.0,0.0,0.0,0.0,0.0,0.0,0.0,0.0,0.0,0.0,0.0,0.0,0.0,0.0,0.0,0.0,0.0,0.0,0.0,0.0,0.0,0.0,0.0,0.0,0.0,0.0,0.0,0.0,0.0,0.0,0.0,0.0,0.0,0.0,0.0,0.0,0.0,0.0,0.0,0.0,0.0,0.0,0.0,0.0,0.0,0.0,0.0,0.0,0.0,0.0,0.0,0.0,0.0,0.0,0.0,0.0,0.0,0.0,0.0,0.0,0.0,0.0,0.0,0.0,0.0,0.0,0.0,0.0,0.0,0.0,0.0,0.0,0.0,0.0,0.0,0.0,0.0,0.0,0.0,0.0,0.0,0.0,0.0,0.0,0.0,0.0,0.0,0.0,0.0,0.0,0.0,0.0,0.0,0.0,0.0,0.0,0.0,0.0,0.0,0.0,0.0,0.0,0.0,0.0,0.0,0.0,0.0,0.0,0.0,0.0,0.0,0.0,0.0,0.0,0.0,0.0,0.0,0.0,0.0,0.0,0.0,0.0,0.0,0.0,0.0,0.0,0.0,0.0,0.0,0.0,0.0,0.0,0.0,0.0,0.0,0.0,0.0,0.0,0.0,0.0,0.0,0.0,0.0,0.0,0.0,0.0,0.0,0.0,0.0,0.0,0.0,0.0,0.0,0.0,0.0,0.0,0.0,0.0,0.0,0.0,0.0,0.0,0.0,0.0,0.0,0.0,0.0,0.0,0.0,0.0,0.0,0.0,0.0,0.0,0.0,0.0,0.0,0.0,0.0,0.0,0.0,0.0,0.0,0.0,0.0,0.0,0.0,0.0,0.0,0.0,0.0,0.0,0.0,0.0,0.0,0.0,0.0,0.0,0.0,0.0,0.0,0.0,0.0,0.0,0.0,0.0,0.0,0.0,0.0,0.0,0.0,0.0,0.0,0.0,0.0,0.0,0.0,0.0,0.0,0.0,0.0,0.0,0.0,0.0,0.0,0.0,0.0,0.0,0.0,0.0,0.0,0.0,0.0,0.0,0.0,0.0,0.0,0.0,0.0,0.0,0.0,0.0,0.0,0.0,0.0,0.0,0.0,0.0,0.0,0.0,0.0,0.0,0.0,0.0,0.0,0.0,0.0,0.0,0.0,0.0,0.0,0.0,0.0,0.0,0.0,0.0,0.0,0.0,0.0,0.0,0.0,0.0,0.0,0.0,0.0,0.0,0.0,0.0,0.0,0.0,0.0,0.0,0.0,0.0,0.0,0.0,0.0,0.0,0.0,0.0,0.0,0.0,0.0,0.0,0.0,0.0,0.0,0.0,0.0,0.0,0.0,0.0,0.0,0.0,0.0,0.0,0.0,0.0,0.0,0.0,0.0,0.0,0.0,0.0,0.0,0.0,0.0,0.0,0.0,0.0,0.0,0.0,0.0,0.0,0.0,0.0,0.0,0.0,0.0,0.0,0.0,0.0,0.0,0.0,0.0,0.0,0.0,0.0,0.0,0.0,0.0,0.0,0.0,0.0,0.0,0.0,0.0,0.0,0.0,0.0,0.0,0.0,0.0,0.0,0.0,0.0,0.0,0.0,0.0,0.0,0.0,0.0,0.0,0.0,0.0,0.0,0.0,0.0,0.0,0.0,0.0,0.0,0.0,0.0,0.0,0.0,0.0,0.0,0.0,0.0,0.0,0.0,0.0,0.0,0.0,0.0,0.0,0.0,0.0,0.0,0.0,0.0,0.0,0.0,0.0,0.0,0.0,0.0,0.0,0.0,0.0,0.0,0.0,0.0,0.0,0.0,0.0,0.0,0.0,0.0,0.0,0.0,0.0,0.0,0.0,0.0,0.0,0.0,0.0,0.0,0.0,0.0,0.0,0.0,0.0,0.0,0.0,0.0,0.0,0.0,0.0,0.0,0.0,0.0,0.0,0.0,0.0,0.0,0.0,0.0,0.0,0.0,0.0,0.0,0.0,0.0,0.0,0.0,0.0,0.0,0.0,0.0,0.0,0.0,0.0,0.0,0.0,0.0,0.0,0.0,0.0,0.0,0.0,0.0,0.0,0.0,0.0,0.0,0.0,0.0,0.0,0.0,0.0,0.0,0.0,0.0,0.0,0.0,0.0,0.0,0.0,0.0,0.0,0.0,0.0,0.0,0.0,0.0,0.0,0.0,0.0,0.0,0.0,0.0,0.0,0.0,0.0,0.0,0.0,0.0,0.0,0.0,0.0,0.0,0.0,0.0,0.0,0.0,0.0,0.0,0.0,0.0,0.0,0.0,0.0,0.0,0.0,0.0,0.0,0.0,0.0,0.0,0.0,0.0,0.0,0.0,0.0,0.0,0.0,0.0,0.0,0.0,0.0,0.0,0.0,0.0,0.0,0.0,0.0,0.0,0.0,0.0,0.0,0.0,0.0,0.0,0.0,0.0,0.0,0.0,0.0,0.0,0.0,0.0,0.0,0.0,0.0,0.0,0.0,0.0,0.0,0.0,0.0,0.0,0.0,0.0,0.0,0.0,0.0,0.0,0.0,0.0,0.0,0.0,0.0,0.0,0.0,0.0,0.0,0.0,0.0,0.0,0.0,0.0,0.0,0.0,0.0,0.0,0.0,0.0,0.0,0.0,0.0,0.0,0.0,0.0,0.0,0.0,0.0,0.0,0.0,0.0,0.0,0.0,0.0,0.0,0.0,0.0,0.0,0.0,0.0,0.0,0.0,0.0,0.0,0.0,0.0,0.0,0.0,0.0,0.0,0.0,0.0,0.0,0.0,0.0,0.0,0.0,0.0,0.0,0.0,0.0,0.0,0.0,0.0,0.0,0.0,0.0,0.0,0.0,0.0,0.0,0.0,0.0,0.0,0.0,0.0,0.0,0.0,0.0,0.0,0.0,0.0,0.0,0.0,0.0,0.0,0.0,0.0,0.0,0.0,0.0,0.0,0.0,0.0,0.0,0.0,0.0,0.0,0.0,0.0,0.0,0.0,0.0,0.0,0.0,0.0,0.0,0.0,0.0,0.0,0.0,0.0,0.0,0.0,0.0,0.0,0.0,0.0,0.0,0.0,0.0,0.0,0.0,0.0,0.0,0.0,0.0,0.0,0.0,0.0,0.0,0.0,0.0,0.0,0.0,0.0,0.0,0.0,0.0,0.0,0.0,0.0,0.0,0.0,0.0,0.0,0.0,0.0,0.0,0.0,0.0,0.0,0.0,0.0,0.0,0.0,0.0,0.0,0.0,0.0,0.0,0.0,0.0,0.0,0.0,0.0,0.0,0.0,0.0,0.0,0.0,0.0,0.0,0.0,0.0,0.0,0.0,0.0,0.0,0.0,0.0,0.0,0.0,0.0,0.0,0.0,0.0,0.0,0.0,0.0,0.0,0.0,0.0,0.0,0.0,0.0,0.0,0.0,0.0,0.0,0.0,0.0,0.0,0.0,0.0,0.0,0.0,0.0,0.0,0.0,0.0,0.0,0.0,0.0,0.0,0.0,0.0,0.0,0.0,0.0,0.0,0.0,0.0,0.0,0.0,0.0,0.0,0.0,0.0,0.0,0.0,0.0,0.0,0.0,0.0,0.0,0.0,0.0,0.0,0.0,0.0,0.0,0.0,0.0,0.0,0.0,0.0,0.0,0.0,0.0,0.0,0.0,0.0,0.0,0.0,0.0,0.0,0.0,0.0,0.0,0.0,0.0,0.0,0.0,0.0,0.0,0.0,0.0,0.0,0.0,0.0,0.0,0.0,0.0,0.0,0.0,0.0,0.0,0.0,0.0,0.0,0.0,0.0,0.0,0.0,0.0,0.0,0.0,-6.0685,0.0,0.0,0.0,0.0,0.0,0.0,0.0,0.0,0.0,0.0,0.0,0.0,0.0,0.0,0.0,0.0,0.0,0.0,0.0,0.0,0.0,0.0,0.0,0.0,0.0,0.0,0.0,0.0,0.0,0.0,0.0,0.0,0.0,0.0,0.0,0.0,0.0,0.0,0.0,0.0,0.0,0.0,0.0,0.0,0.0,0.0,0.0,0.0,0.0,0.0,0.0,0.0,0.0,0.0,0.0,0.0,0.0,0.0,0.0,0.0,0.0,0.0,0.0,0.0,0.0,0.0,0.0,0.0,0.0,0.0,0.0,0.0,0.0,0.0,0.0,0.0,0.0,0.0,0.0,0.0,0.0,0.0,0.0,0.0,0.0,0.0,0.0,0.0,0.0,0.0,0.0,0.0,0.0,0.0,0.0,0.0,0.0,0.0,0.0,0.0,0.0,0.0,0.0,0.0,0.0,0.0,0.0,0.0,0.0,0.0,-6.1523,-6.2181,-6.248,-6.254,-6.2181,0.0,0.0,0.0,0.0,0.0,0.0,0.0,0.0,0.0,0.0,0.0,0.0,0.0,0.0,0.0,0.0,0.0,0.0,0.0,0.0,0.0,0.0,0.0,0.0,0.0,0.0,0.0,0.0,0.0,0.0,0.0,0.0,0.0,0.0,0.0,0.0,0.0,0.0,0.0,0.0,0.0,0.0,0.0,0.0,0.0,0.0,0.0,0.0,0.0,0.0,0.0,0.0,0.0,0.0,0.0,0.0,0.0,0.0,0.0,0.0,0.0,0.0,0.0,0.0,0.0,0.0,0.0,0.0,0.0,0.0,0.0,0.0,0.0,0.0,0.0,0.0,0.0,0.0,0.0,0.0,0.0,0.0,0.0,0.0,0.0,0.0,0.0,0.0,0.0,0.0,0.0,0.0,0.0,0.0,0.0,0.0,0.0,0.0,0.0,0.0,0.0,0.0,0.0,0.0,0.0,0.0,0.0,0.0,0.0,0.0,0.0,0.0,-6.4036,-6.3797,-6.2839,0.0,0.0,0.0,0.0,0.0,0.0,0.0,0.0,0.0,0.0,0.0,0.0,0.0,0.0,0.0,0.0,0.0,0.0,0.0,0.0,0.0,0.0,0.0,0.0,0.0,0.0,0.0,0.0,0.0,0.0,0.0,0.0,0.0,0.0,0.0,0.0,0.0,0.0,0.0,0.0,0.0,0.0,0.0,0.0,0.0,0.0,0.0,0.0,0.0,0.0,0.0,0.0,0.0,0.0,0.0,0.0,0.0,0.0,0.0,0.0,0.0,0.0,0.0,0.0,0.0,0.0,0.0,0.0,0.0,0.0,0.0,0.0,0.0,0.0,0.0,0.0,0.0,0.0,0.0,0.0,0.0,0.0,0.0,0.0,0.0,0.0,0.0,0.0,0.0,0.0,0.0,0.0,0.0,0.0,0.0,0.0,0.0,0.0,0.0,0.0,0.0,0.0,0.0,0.0,0.0,0.0,0.0,0.0,0.0,0.0,-6.3857,-6.5652,-6.5233,0.0,-6.2361,0.0,0.0,0.0,0.0,0.0,0.0,0.0,0.0,0.0,0.0,0.0,0.0,0.0,0.0,0.0,0.0,0.0,0.0,0.0,0.0,0.0,0.0,0.0,0.0,0.0,0.0,0.0,0.0,0.0,0.0,0.0,0.0,0.0,0.0,0.0,0.0,0.0,0.0,0.0,0.0,0.0,0.0,0.0,0.0,0.0,0.0,0.0,0.0,0.0,0.0,0.0,0.0,0.0,0.0,0.0,0.0,0.0,0.0,0.0,0.0,0.0,0.0,0.0,0.0,0.0,0.0,0.0,0.0,0.0,0.0,0.0,0.0,0.0,0.0,0.0,0.0,0.0,0.0,0.0,0.0,0.0,0.0,0.0,0.0,0.0,0.0,0.0,0.0,0.0,0.0,0.0,0.0,0.0,0.0,0.0,0.0,0.0,0.0,0.0,0.0,0.0,0.0,0.0,0.0,0.0,0.0,0.0,0.0,0.0,0.0,-6.4994,-6.655,-6.5951,-6.4695,0.0,0.0,0.0,0.0,0.0,0.0,0.0,0.0,0.0,0.0,0.0,0.0,0.0,0.0,0.0,0.0,0.0,0.0,0.0,0.0,0.0,0.0,0.0,0.0,0.0,0.0,0.0,0.0,0.0,0.0,0.0,0.0,0.0,0.0,0.0,0.0,0.0,0.0,0.0,0.0,0.0,0.0,0.0,0.0,0.0,0.0,0.0,0.0,0.0,0.0,0.0,0.0,0.0,0.0,0.0,0.0,0.0,0.0,0.0,0.0,0.0,0.0,0.0,0.0,0.0,0.0,0.0,0.0,0.0,0.0,0.0,0.0,0.0,0.0,0.0,0.0,0.0,0.0,0.0,0.0,0.0,0.0,0.0,0.0,0.0,0.0,0.0,0.0,0.0,0.0,0.0,0.0,0.0,0.0,0.0,0.0,0.0,0.0,0.0,0.0,0.0,0.0,0.0,0.0,0.0,0.0,0.0,0.0,0.0,0.0,-6.4276,-6.5951,-6.7148,-6.6789,-6.5473,-6.3139,0.0,0.0,0.0,0.0,0.0,0.0,0.0,0.0,0.0,0.0,0.0,0.0,0.0,0.0,0.0,0.0,0.0,0.0,0.0,0.0,0.0,0.0,0.0,0.0,0.0,0.0,0.0,0.0,0.0,0.0,0.0,0.0,0.0,0.0,0.0,0.0,0.0,0.0,0.0,0.0,0.0,0.0,0.0,0.0,0.0,0.0,0.0,0.0,0.0,0.0,0.0,0.0,0.0,0.0,0.0,0.0,0.0,0.0,0.0,0.0,0.0,0.0,0.0,0.0,0.0,0.0,0.0,0.0,0.0,0.0,0.0,0.0,0.0,0.0,0.0,0.0,0.0,0.0,0.0,0.0,0.0,0.0,0.0,0.0,0.0,0.0,0.0,0.0,0.0,0.0,0.0,0.0,0.0,0.0,0.0,0.0,0.0,0.0,0.0,0.0,0.0,0.0,0.0,0.0,0.0,0.0,0.0,0.0,0.0,-6.4994,-6.661,-6.7926,-6.7926,-6.637,0.0,0.0,0.0,0.0,0.0,0.0,0.0,0.0,0.0,0.0,0.0,0.0,0.0,0.0,0.0,0.0,0.0,0.0,0.0,0.0,0.0,0.0,0.0,0.0,0.0,0.0,0.0,0.0,0.0,0.0,0.0,0.0,0.0,0.0,0.0,0.0,0.0,0.0,0.0,0.0,0.0,0.0,0.0,0.0,0.0,0.0,0.0,0.0,0.0,0.0,0.0,0.0,0.0,0.0,0.0,0.0,0.0,0.0,0.0,0.0,0.0,0.0,0.0,0.0,0.0,0.0,0.0,0.0,0.0,0.0,0.0,0.0,0.0,0.0,0.0,0.0,0.0,0.0,0.0,0.0,0.0,0.0,0.0,0.0,0.0,0.0,0.0,0.0,0.0,0.0,0.0,0.0,0.0,0.0,0.0,0.0,0.0,0.0,0.0,0.0,0.0,0.0,0.0,0.0,0.0,0.0,0.0,0.0,0.0,-6.3079,-6.6251,-6.8345,-6.9183,-6.8046,-6.6191,0.0,0.0,0.0,0.0,0.0,0.0,0.0,0.0,0.0,0.0,0.0,0.0,0.0,0.0,0.0,0.0,0.0,0.0,0.0,0.0,0.0,0.0,0.0,0.0,0.0,0.0,0.0,0.0,0.0,0.0,0.0,0.0,0.0,0.0,0.0,0.0,0.0,0.0,0.0,0.0,0.0,0.0,0.0,0.0,0.0,0.0,0.0,0.0,0.0,0.0,0.0,0.0,0.0,0.0,0.0,0.0,0.0,0.0,0.0,0.0,0.0,0.0,0.0,0.0,0.0,0.0,0.0,0.0,0.0,0.0,0.0,0.0,0.0,0.0,0.0,0.0,0.0,0.0,0.0,0.0,0.0,0.0,0.0,0.0,0.0,0.0,0.0,0.0,0.0,0.0,0.0,0.0,0.0,0.0,0.0,0.0,0.0,0.0,0.0,0.0,0.0,0.0,0.0,0.0,0.0,0.0,0.0,0.0,0.0,-6.4575,0.0,-6.9842,-7.0201,-6.8585,-6.649,0.0,0.0,0.0,0.0,0.0,0.0,0.0,0.0,0.0,0.0,0.0,0.0,0.0,0.0,0.0,0.0,0.0,0.0,0.0,0.0,0.0,0.0,0.0,0.0,0.0,0.0,0.0,0.0,0.0,0.0,0.0,0.0,0.0,0.0,0.0,0.0,0.0,0.0,0.0,0.0,0.0,0.0,0.0,0.0,0.0,0.0,0.0,0.0,0.0,0.0,0.0,0.0,0.0,0.0,0.0,0.0,0.0,0.0,0.0,0.0,0.0,0.0,0.0,0.0,0.0,0.0,0.0,0.0,0.0,0.0,0.0,0.0,0.0,0.0,0.0,0.0,0.0,0.0,0.0,0.0,0.0,0.0,0.0,0.0,0.0,0.0,0.0,0.0,0.0,0.0,0.0,0.0,0.0,0.0,0.0,0.0,0.0,0.0,0.0,0.0,0.0,0.0,0.0,0.0,0.0,0.0,0.0,0.0,-6.2121,-6.7747,-6.9901,-7.0979,-7.0919,-6.9662,-6.7448,0.0,0.0,0.0,0.0,0.0,0.0,0.0,0.0,0.0,0.0,0.0,0.0,0.0,0.0,0.0,0.0,0.0,0.0,0.0,0.0,0.0,0.0,0.0,0.0,0.0,0.0,0.0,0.0,0.0,0.0,0.0,0.0,0.0,0.0,0.0,0.0,0.0,0.0,0.0,0.0,0.0,0.0,0.0,0.0,0.0,0.0,0.0,0.0,0.0,0.0,0.0,0.0,0.0,0.0,0.0,0.0,0.0,0.0,0.0,0.0,0.0,0.0,0.0,0.0,0.0,0.0,0.0,0.0,0.0,0.0,0.0,0.0,0.0,0.0,0.0,0.0,0.0,0.0,0.0,0.0,0.0,0.0,0.0,0.0,0.0,0.0,0.0,0.0,0.0,0.0,0.0,0.0,0.0,0.0,0.0,0.0,0.0,0.0,0.0,0.0,0.0,0.0,0.0,0.0,0.0,0.0,0.0,0.0,0.0,-6.9243,-7.1278,-7.2535,-7.2894,-7.0859,-6.8525,0.0,0.0,0.0,0.0,0.0,0.0,0.0,0.0,0.0,0.0,0.0,0.0,0.0,0.0,0.0,0.0,0.0,0.0,0.0,0.0,0.0,0.0,0.0,0.0,0.0,0.0,0.0,0.0,0.0,0.0,0.0,0.0,0.0,0.0,0.0,0.0,0.0,0.0,0.0,0.0,0.0,0.0,0.0,0.0,0.0,0.0,0.0,0.0,0.0,0.0,0.0,0.0,0.0,0.0,0.0,0.0,0.0,0.0,0.0,0.0,0.0,0.0,0.0,0.0,0.0,0.0,0.0,0.0,0.0,0.0,0.0,0.0,0.0,0.0,0.0,0.0,0.0,0.0,0.0,0.0,0.0,0.0,0.0,0.0,0.0,0.0,0.0,0.0,0.0,0.0,0.0,0.0,0.0,0.0,0.0,0.0,0.0,0.0,0.0,0.0,0.0,0.0,0.0,0.0,0.0,0.0,0.0,0.0,0.0,-7.2834,-7.433,-7.5288,-7.5707,-7.3193,-7.05,-6.7807,0.0,0.0,0.0,0.0,0.0,0.0,0.0,0.0,0.0,0.0,0.0,0.0,0.0,0.0,0.0,0.0,0.0,0.0,0.0,0.0,0.0,0.0,0.0,0.0,0.0,0.0,0.0,0.0,0.0,0.0,0.0,0.0,0.0,0.0,0.0,0.0,0.0,0.0,0.0,0.0,0.0,0.0,0.0,0.0,0.0,0.0,0.0,0.0,0.0,0.0,0.0,0.0,0.0,0.0,0.0,0.0,0.0,0.0,0.0,0.0,0.0,0.0,0.0,0.0,0.0,0.0,0.0,0.0,0.0,0.0,0.0,0.0,0.0,0.0,0.0,0.0,0.0,0.0,0.0,0.0,0.0,0.0,0.0,0.0,0.0,0.0,0.0,0.0,0.0,0.0,0.0,0.0,0.0,0.0,0.0,0.0,0.0,0.0,0.0,0.0,0.0,0.0,0.0,0.0,0.0,0.0,0.0,0.0,-7.81,-7.8938,-7.9238,-7.8998,-7.6425,-7.3253,0.0,0.0,0.0,0.0,0.0,0.0,0.0,0.0,0.0,0.0,0.0,0.0,0.0,0.0,0.0,0.0,0.0,0.0,0.0,0.0,0.0,0.0,0.0,0.0,0.0,0.0,0.0,0.0,0.0,0.0,0.0,0.0,0.0,0.0,0.0,0.0,0.0,0.0,0.0,0.0,0.0,0.0,0.0,0.0,0.0,0.0,0.0,0.0,0.0,0.0,0.0,0.0,0.0,0.0,0.0,0.0,0.0,0.0,0.0,0.0,0.0,0.0,0.0,0.0,0.0,0.0,0.0,0.0,0.0,0.0,0.0,0.0,0.0,0.0,0.0,0.0,0.0,0.0,0.0,0.0,0.0,0.0,0.0,0.0,0.0,0.0,0.0,0.0,0.0,0.0,0.0,0.0,0.0,0.0,0.0,0.0,0.0,0.0,0.0,0.0,0.0,0.0,0.0,0.0,0.0,0.0,0.0,0.0,0.0,-8.205,-8.4743,-8.4684,-8.1811,-7.9178,-7.5946,0.0,0.0,0.0,0.0,0.0,0.0,0.0,0.0,0.0,0.0,0.0,0.0,0.0,0.0,0.0,0.0,0.0,0.0,0.0,0.0,0.0,0.0,0.0,0.0,0.0,0.0,0.0,0.0,0.0,0.0,0.0,0.0,0.0,0.0,0.0,0.0,0.0,0.0,0.0,0.0,0.0,0.0,0.0,0.0,0.0,0.0,0.0,0.0,0.0,0.0,0.0,0.0,0.0,0.0,0.0,0.0,0.0,0.0,0.0,0.0,0.0,0.0,0.0,0.0,0.0,0.0,0.0,0.0,0.0,0.0,0.0,0.0,0.0,0.0,0.0,0.0,0.0,0.0,0.0,0.0,0.0,0.0,0.0,0.0,0.0,0.0,0.0,0.0,0.0,0.0,0.0,0.0,0.0,0.0,0.0,0.0,0.0,0.0,0.0,0.0,0.0,0.0,0.0,0.0,0.0,0.0,0.0,0.0,-8.0734,-8.5342,-8.8634,-8.9232,-8.6958,-8.3008,-7.8878,0.0,0.0,0.0,0.0,0.0,0.0,0.0,0.0,0.0,0.0,0.0,0.0,0.0,0.0,0.0,0.0,0.0,0.0,0.0,0.0,0.0,0.0,0.0,0.0,0.0,0.0,0.0,0.0,0.0,0.0,0.0,0.0,0.0,0.0,0.0,0.0,0.0,0.0,0.0,0.0,0.0,0.0,0.0,0.0,0.0,0.0,0.0,0.0,0.0,0.0,0.0,0.0,0.0,0.0,0.0,0.0,0.0,0.0,0.0,0.0,0.0,0.0,0.0,0.0,0.0,0.0,0.0,0.0,0.0,0.0,0.0,0.0,0.0,0.0,0.0,0.0,0.0,0.0,0.0,0.0,0.0,0.0,0.0,0.0,0.0,0.0,0.0,0.0,0.0,0.0,0.0,0.0,0.0,0.0,0.0,0.0,0.0,0.0,0.0,0.0,0.0,0.0,0.0,0.0,0.0,0.0,0.0,0.0,-8.3367,-8.7915,-9.1147,-9.2823,-9.2643,-8.7197,-8.1931,0.0,0.0,0.0,0.0,0.0,0.0,0.0,0.0,0.0,0.0,0.0,0.0,0.0,0.0,0.0,0.0,0.0,0.0,0.0,0.0,0.0,0.0,0.0,0.0,0.0,0.0,0.0,0.0,0.0,0.0,0.0,0.0,0.0,0.0,0.0,0.0,0.0,0.0,0.0,0.0,0.0,0.0,0.0,0.0,0.0,0.0,0.0,0.0,0.0,0.0,0.0,0.0,0.0,0.0,0.0,0.0,0.0,0.0,0.0,0.0,0.0,0.0,0.0,0.0,0.0,0.0,0.0,0.0,0.0,0.0,0.0,0.0,0.0,0.0,0.0,0.0,0.0,0.0,0.0,0.0,0.0,0.0,0.0,0.0,0.0,0.0,0.0,0.0,0.0,0.0,0.0,0.0,0.0,0.0,0.0,0.0,0.0,0.0,0.0,0.0,0.0,0.0,0.0,0.0,0.0,0.0,0.0,0.0,-8.5342,-8.989,-9.2763,-9.4199,-9.4139,-8.9412,-8.4444,0.0,0.0,0.0,0.0,0.0,0.0,0.0,0.0,0.0,0.0,0.0,0.0,0.0,0.0,0.0,0.0,0.0,0.0,0.0,0.0,0.0,0.0,0.0,0.0,0.0,0.0,0.0,0.0,0.0,0.0,0.0,0.0,0.0,0.0,0.0,0.0,0.0,0.0,0.0,0.0,0.0,0.0,0.0,0.0,0.0,0.0,0.0,0.0,-7.0161,0.0,0.0,0.0,0.0,0.0,0.0,0.0,0.0,0.0,0.0,0.0,0.0,0.0,0.0,0.0,0.0,0.0,0.0,0.0,0.0,0.0,0.0,0.0,0.0,0.0,0.0,0.0,0.0,0.0,0.0,0.0,0.0,0.0,0.0,0.0,0.0,0.0,0.0,0.0,0.0,0.0,0.0,0.0,0.0,0.0,0.0,0.0,0.0,0.0,0.0,0.0,0.0,0.0,0.0,0.0,0.0,0.0,0.0,0.0,-8.7377,-9.1925,-9.4618,-9.5815,-9.5396,-9.1626,-8.6958,0.0,0.0,0.0,0.0,0.0,0.0,0.0,0.0,0.0,0.0,0.0,0.0,0.0,0.0,0.0,0.0,0.0,0.0,0.0,0.0,0.0,0.0,0.0,0.0,0.0,0.0,0.0,0.0,0.0,0.0,0.0,0.0,0.0,0.0,0.0,0.0,0.0,0.0,0.0,0.0,0.0,0.0,0.0,0.0,0.0,0.0,0.0,0.0,0.0,0.0,0.0,0.0,0.0,0.0,0.0,0.0,0.0,0.0,0.0,0.0,0.0,0.0,0.0,0.0,0.0,0.0,0.0,0.0,0.0,0.0,0.0,0.0,0.0,0.0,0.0,0.0,0.0,0.0,0.0,0.0,0.0,0.0,0.0,0.0,0.0,0.0,0.0,0.0,0.0,0.0,0.0,0.0,0.0,0.0,0.0,0.0,0.0,0.0,0.0,0.0,0.0,0.0,0.0,0.0,0.0,0.0,0.0,-8.3666,-8.9172,-9.3601,-9.6174,-9.7192,-9.6533,-9.3361,-8.8873,-8.3068,0.0,0.0,0.0,0.0,0.0,0.0,0.0,0.0,0.0,0.0,0.0,0.0,0.0,0.0,0.0,0.0,0.0,0.0,0.0,0.0,0.0,0.0,0.0,0.0,0.0,0.0,0.0,0.0,0.0,0.0,0.0,0.0,0.0,0.0,0.0,0.0,0.0,0.0,-6.7793,-7.1041,0.0,0.0,0.0,0.0,0.0,0.0,0.0,0.0,-7.6589,0.0,0.0,0.0,0.0,0.0,0.0,0.0,0.0,0.0,0.0,0.0,0.0,0.0,0.0,0.0,0.0,0.0,0.0,0.0,0.0,0.0,0.0,0.0,0.0,0.0,0.0,0.0,0.0,0.0,0.0,0.0,0.0,0.0,0.0,0.0,0.0,0.0,0.0,0.0,0.0,0.0,0.0,0.0,0.0,0.0,0.0,0.0,0.0,0.0,0.0,0.0,0.0,0.0,0.0,0.0,0.0,-7.9297,-8.5282,-9.0309,-9.4319,-9.6473,-9.7192,-9.6533,-9.3361,-8.9112,-8.3666,0.0,0.0,0.0,0.0,0.0,0.0,0.0,0.0,0.0,0.0,0.0,0.0,0.0,0.0,0.0,0.0,0.0,0.0,0.0,0.0,0.0,0.0,0.0,0.0,0.0,0.0,0.0,0.0,0.0,0.0,0.0,0.0,0.0,0.0,0.0,0.0,0.0,0.0,0.0,-7.5506,-7.7333,0.0,0.0,0.0,0.0,0.0,0.0,0.0,0.0,-8.004,0.0,0.0,0.0,0.0,0.0,0.0,0.0,0.0,0.0,0.0,0.0,0.0,0.0,0.0,0.0,0.0,0.0,0.0,0.0,0.0,0.0,0.0,0.0,0.0,0.0,0.0,0.0,0.0,0.0,0.0,0.0,0.0,0.0,0.0,0.0,0.0,0.0,0.0,0.0,0.0,0.0,0.0,0.0,0.0,0.0,0.0,0.0,0.0,0.0,0.0,0.0,0.0,0.0,0.0,0.0,-8.0195,-8.618,-9.1267,-9.5456,-9.7192,-9.7551,-9.6533,-9.3361,-8.8693,0.0,0.0,0.0,0.0,0.0,0.0,0.0,0.0,0.0,0.0,0.0,0.0,0.0,0.0,0.0,0.0,0.0,0.0,0.0,0.0,0.0,0.0,0.0,0.0,0.0,0.0,0.0,0.0,0.0,0.0,0.0,0.0,0.0,0.0,0.0,0.0,0.0,0.0,0.0,0.0,-7.8619,-8.0716,-8.1799,0.0,0.0,0.0,0.0,0.0,0.0,-8.4437,-8.3693,0.0,0.0,0.0,0.0,0.0,0.0,0.0,0.0,0.0,0.0,0.0,0.0,0.0,0.0,0.0,0.0,0.0,0.0,0.0,0.0,0.0,0.0,0.0,0.0,0.0,0.0,0.0,0.0,0.0,0.0,0.0,0.0,0.0,0.0,0.0,0.0,0.0,0.0,0.0,0.0,0.0,0.0,0.0,0.0,0.0,0.0,0.0,0.0,0.0,0.0,0.0,0.0,0.0,0.0,0.0,-8.1093,-8.7018,-9.2224,-9.6533,-9.791,-9.791,-9.6533,-9.3122,-8.7915,0.0,0.0,0.0,0.0,0.0,0.0,0.0,0.0,0.0,0.0,0.0,0.0,0.0,0.0,0.0,0.0,0.0,0.0,0.0,0.0,0.0,0.0,0.0,0.0,0.0,0.0,0.0,0.0,0.0,0.0,0.0,0.0,0.0,0.0,0.0,0.0,0.0,0.0,0.0,0.0,0.0,-8.3693,-8.5317,-8.6467,0.0,0.0,0.0,0.0,-8.9241,-8.8632,0.0,0.0,0.0,0.0,0.0,0.0,0.0,0.0,0.0,0.0,0.0,0.0,0.0,0.0,0.0,0.0,0.0,0.0,0.0,0.0,0.0,0.0,0.0,0.0,0.0,0.0,0.0,0.0,0.0,0.0,0.0,0.0,0.0,0.0,0.0,0.0,0.0,0.0,0.0,0.0,0.0,0.0,0.0,0.0,0.0,0.0,0.0,0.0,0.0,0.0,0.0,0.0,0.0,0.0,0.0,0.0,-8.2409,-8.8394,-9.3361,-9.7192,-9.8149,-9.791,-9.6533,-9.2224,-8.7018,0.0,0.0,0.0,0.0,0.0,0.0,0.0,0.0,0.0,0.0,0.0,0.0,0.0,0.0,0.0,0.0,0.0,0.0,0.0,0.0,0.0,0.0,0.0,0.0,0.0,0.0,0.0,0.0,0.0,0.0,0.0,0.0,0.0,0.0,0.0,0.0,0.0,0.0,0.0,0.0,0.0,-8.6196,-8.8294,-9.0324,-9.1677,0.0,0.0,-9.3842,-9.3909,-9.2759,0.0,0.0,0.0,0.0,0.0,0.0,0.0,0.0,0.0,0.0,0.0,0.0,0.0,0.0,0.0,0.0,0.0,0.0,0.0,0.0,0.0,0.0,0.0,0.0,0.0,0.0,0.0,0.0,0.0,0.0,0.0,0.0,0.0,0.0,0.0,0.0,0.0,0.0,0.0,0.0,0.0,0.0,0.0,0.0,0.0,0.0,0.0,0.0,0.0,0.0,0.0,0.0,0.0,0.0,0.0,-7.5647,-8.3187,-8.8813,-9.3721,-9.791,-9.8389,-9.791,-9.6593,-9.2105,-8.6539,0.0,0.0,0.0,0.0,0.0,0.0,0.0,0.0,0.0,0.0,0.0,0.0,0.0,0.0,0.0,0.0,0.0,0.0,0.0,0.0,0.0,0.0,0.0,0.0,0.0,0.0,0.0,0.0,0.0,0.0,0.0,0.0,0.0,0.0,0.0,0.0,0.0,0.0,0.0,0.0,0.0,0.0,-9.2489,-9.4789,0.0,0.0,0.0,-9.8172,-9.736,0.0,0.0,0.0,0.0,0.0,0.0,0.0,0.0,0.0,0.0,0.0,0.0,0.0,0.0,0.0,0.0,0.0,0.0,0.0,0.0,0.0,0.0,0.0,0.0,0.0,0.0,0.0,0.0,0.0,0.0,0.0,0.0,0.0,0.0,0.0,0.0,0.0,0.0,0.0,0.0,0.0,0.0,0.0,0.0,0.0,0.0,0.0,0.0,0.0,0.0,0.0,0.0,0.0,0.0,0.0,0.0,0.0,-8.3606,-8.9112,-9.396,-9.8089,-9.8448,-9.779,-9.6294,-9.1985,0.0,0.0,0.0,0.0,0.0,0.0,0.0,0.0,0.0,0.0,0.0,0.0,0.0,0.0,0.0,0.0,0.0,0.0,0.0,0.0,0.0,0.0,0.0,0.0,0.0,0.0,0.0,-5.6833,0.0,0.0,0.0,0.0,0.0,0.0,0.0,0.0,0.0,0.0,0.0,0.0,0.0,0.0,-9.2421,-9.6074,-9.8848,-10.0743,0.0,0.0,-10.217,-10.0886,-9.9611,-9.7327,0.0,0.0,0.0,0.0,0.0,0.0,0.0,0.0,0.0,0.0,0.0,0.0,0.0,0.0,0.0,0.0,0.0,0.0,0.0,0.0,0.0,0.0,0.0,0.0,0.0,0.0,0.0,0.0,0.0,0.0,0.0,0.0,0.0,0.0,0.0,0.0,0.0,0.0,0.0,0.0,0.0,0.0,0.0,0.0,0.0,0.0,0.0,0.0,0.0,0.0,0.0,0.0,0.0,0.0,-7.6425,-8.3606,-8.9531,-9.4139,-9.7431,-9.8209,-9.7611,-9.5636,-9.1746,-8.6539,0.0,0.0,0.0,0.0,0.0,0.0,0.0,0.0,0.0,0.0,0.0,0.0,0.0,0.0,0.0,0.0,0.0,0.0,0.0,0.0,0.0,0.0,0.0,0.0,0.0,0.0,0.0,0.0,0.0,0.0,0.0,0.0,0.0,0.0,0.0,0.0,0.0,0.0,0.0,0.0,0.0,-9.4721,-9.8375,-10.1961,-10.4599,0.0,-10.5752,-10.5684,-10.4943,-10.2793,-9.9846,-9.6163,0.0,0.0,0.0,0.0,0.0,0.0,0.0,0.0,0.0,0.0,0.0,0.0,0.0,0.0,0.0,0.0,0.0,0.0,0.0,0.0,0.0,0.0,0.0,0.0,0.0,0.0,0.0,0.0,0.0,0.0,0.0,0.0,0.0,0.0,0.0,0.0,0.0,0.0,0.0,0.0,0.0,0.0,0.0,0.0,0.0,0.0,0.0,0.0,0.0,0.0,0.0,0.0,0.0,-7.6664,-8.4265,-8.9771,-9.4199,-9.7371,-9.8149,-9.779,-9.6234,-9.2344,-8.7556,0.0,0.0,0.0,0.0,0.0,0.0,0.0,0.0,0.0,0.0,0.0,0.0,0.0,0.0,0.0,0.0,0.0,0.0,0.0,0.0,0.0,0.0,0.0,0.0,0.0,0.0,0.0,0.0,-6.617,-6.7387,-6.7455,0.0,0.0,0.0,0.0,0.0,0.0,0.0,0.0,0.0,0.0,-9.7631,-10.1352,-10.4667,0.0,0.0,-10.7707,-10.7161,-10.5881,-10.3795,-10.1252,-9.7789,-9.3997,0.0,0.0,0.0,0.0,0.0,0.0,0.0,0.0,0.0,0.0,0.0,0.0,0.0,0.0,0.0,0.0,0.0,0.0,0.0,0.0,0.0,0.0,0.0,0.0,0.0,0.0,0.0,0.0,0.0,0.0,0.0,0.0,0.0,0.0,0.0,0.0,0.0,0.0,0.0,0.0,0.0,0.0,0.0,0.0,0.0,0.0,0.0,0.0,0.0,0.0,0.0,0.0,-7.7023,-8.4624,-8.989,-9.408,-9.7132,-9.8089,-9.779,-9.6234,-9.3002,-8.8753,0.0,0.0,0.0,0.0,0.0,0.0,0.0,0.0,0.0,0.0,0.0,0.0,0.0,0.0,0.0,0.0,0.0,0.0,0.0,0.0,0.0,0.0,0.0,0.0,0.0,0.0,0.0,0.0,-6.8538,-6.9417,-6.8673,0.0,0.0,0.0,0.0,0.0,0.0,0.0,0.0,0.0,0.0,-10.0608,-10.4126,-10.7103,-10.9062,-10.9184,-10.9313,-10.8768,-10.6871,-10.4981,-10.27,-9.9708,0.0,0.0,0.0,0.0,0.0,0.0,0.0,0.0,0.0,0.0,0.0,0.0,0.0,0.0,0.0,0.0,0.0,0.0,0.0,0.0,0.0,0.0,0.0,0.0,0.0,0.0,0.0,-5.0092,0.0,0.0,-4.6262,0.0,0.0,0.0,0.0,0.0,0.0,0.0,0.0,0.0,0.0,0.0,0.0,0.0,0.0,0.0,0.0,0.0,0.0,0.0,0.0,0.0,0.0,-7.7442,-8.4624,-8.995,-9.39,-9.6533,-9.785,-9.7611,-9.5695,-9.3661,-9.007,-8.4743,0.0,0.0,0.0,0.0,0.0,0.0,0.0,0.0,0.0,0.0,0.0,0.0,0.0,0.0,0.0,0.0,0.0,0.0,0.0,0.0,0.0,0.0,0.0,0.0,0.0,0.0,-6.8808,-7.0364,-7.0973,0.0,0.0,0.0,0.0,0.0,0.0,0.0,0.0,0.0,-9.2827,-9.8645,-10.3517,-10.6426,-10.9403,-11.1157,-11.08,-11.1051,-11.0549,-10.8856,-10.6668,-10.4369,0.0,0.0,0.0,0.0,0.0,0.0,0.0,0.0,0.0,0.0,0.0,0.0,0.0,0.0,0.0,0.0,0.0,0.0,0.0,0.0,0.0,0.0,0.0,0.0,0.0,0.0,0.0,-5.482,-5.464,0.0,0.0,0.0,0.0,0.0,0.0,0.0,0.0,0.0,0.0,0.0,-6.8944,-6.9423,0.0,0.0,0.0,0.0,0.0,0.0,0.0,0.0,0.0,0.0,0.0,0.0,-7.81,-8.5222,-9.013,-9.39,-9.6473,-9.785,-9.779,-9.6294,-9.4738,-9.0848,-8.4265,0.0,0.0,0.0,0.0,0.0,0.0,0.0,0.0,0.0,0.0,0.0,0.0,0.0,0.0,0.0,0.0,0.0,0.0,0.0,0.0,0.0,0.0,0.0,0.0,0.0,-6.9011,0.0,0.0,0.0,0.0,0.0,0.0,0.0,0.0,0.0,0.0,-8.8023,-9.3436,-9.8172,-10.3043,-10.69,-10.8862,-11.1298,-11.2711,0.0,0.0,0.0,0.0,0.0,0.0,0.0,0.0,0.0,0.0,0.0,0.0,0.0,-10.1216,-9.8781,-9.4315,-9.3977,-9.4451,-9.4924,0.0,0.0,0.0,0.0,0.0,0.0,0.0,0.0,0.0,0.0,0.0,0.0,0.0,0.0,-6.0164,-5.9806,-5.8065,0.0,0.0,0.0,0.0,0.0,0.0,0.0,0.0,-7.056,-7.3133,-7.4988,-7.5946,-7.6066,-7.5587,-7.4091,-7.026,0.0,0.0,0.0,0.0,0.0,0.0,0.0,0.0,-7.9477,-8.5881,-9.0608,-9.4139,-9.6473,-9.785,-9.803,-9.6892,-9.4977,-9.1386,-8.594,-8.1572,-7.7203,0.0,0.0,0.0,0.0,0.0,0.0,0.0,0.0,0.0,0.0,0.0,0.0,0.0,0.0,0.0,0.0,0.0,0.0,0.0,0.0,0.0,0.0,0.0,-7.1897,0.0,0.0,0.0,0.0,0.0,0.0,0.0,0.0,0.0,-8.9038,-9.3842,-9.8848,-10.2773,-10.6697,-10.9674,-11.0892,0.0,0.0,0.0,0.0,0.0,0.0,0.0,-10.8803,-10.8341,-10.7483,-10.7052,-10.7579,-10.7822,-10.8111,-10.8524,0.0,0.0,-10.1487,-10.0743,-10.1352,-10.2028,-10.2434,-10.2976,-10.4261,-10.5276,-10.6561,0.0,0.0,0.0,0.0,-6.1844,0.0,0.0,0.0,-6.6339,-6.6174,0.0,-6.3921,0.0,0.0,0.0,0.0,-6.2421,-6.4994,0.0,0.0,-7.6365,-7.9058,-8.0973,-8.223,-8.223,-8.1033,-8.0315,-7.8639,-7.5766,-6.8345,0.0,0.0,0.0,0.0,0.0,0.0,-8.1452,-8.6659,-9.1207,-9.4499,-9.6473,-9.779,-9.8149,-9.7431,-9.4439,-9.1805,-8.9771,-8.594,-8.205,-7.816,-7.3612,0.0,0.0,0.0,0.0,0.0,0.0,0.0,0.0,0.0,0.0,0.0,0.0,0.0,0.0,0.0,0.0,0.0,0.0,0.0,0.0,-7.27,0.0,0.0,0.0,0.0,0.0,0.0,0.0,0.0,0.0,-9.5872,-9.5466,-9.966,-10.3855,-10.6697,0.0,0.0,0.0,0.0,-11.4401,-11.3291,-11.3762,-11.367,-11.2325,-11.1143,-11.0379,-10.9925,0.0,0.0,-11.2876,-11.3156,-11.3234,-11.3733,-11.4207,-11.3192,-10.8253,-10.7238,-10.7441,-10.8185,-10.8862,-10.9606,-11.0486,-11.1568,-11.2921,-6.575,0.0,0.0,0.0,0.0,-6.8114,-6.9269,-7.0147,-7.0563,-7.0254,-6.9412,-6.8546,0.0,0.0,0.0,0.0,0.0,0.0,-7.3133,-7.7203,-8.0016,-8.2888,-8.5701,-8.612,-8.6299,-8.6359,-8.5282,-8.3846,-8.205,-7.846,-7.433,-6.9722,0.0,0.0,0.0,0.0,-8.3307,-8.7975,-9.1267,-9.384,-9.5875,-9.7132,-9.767,-9.7491,-9.5695,-9.402,-9.2464,-8.9531,-8.6359,-8.2828,-7.834,0.0,0.0,0.0,0.0,0.0,0.0,0.0,0.0,0.0,0.0,0.0,0.0,0.0,0.0,0.0,0.0,0.0,0.0,0.0,-7.4698,-7.6776,-7.8756,0.0,0.0,0.0,0.0,0.0,0.0,0.0,0.0,0.0,-10.5547,-10.7103,-10.8997,0.0,0.0,-11.4816,-11.556,-11.5966,-11.6372,-11.663,-11.6536,0.0,-11.5952,-11.5449,-11.5012,-11.486,-11.5097,-11.5684,-11.6185,-11.6483,-11.6698,-11.6778,-11.6981,-11.671,-11.5898,-11.4342,-11.3598,-11.4274,-11.4545,-11.5154,-11.6372,-11.6981,-11.7657,-7.0223,-6.8293,-6.8039,-6.8454,-6.9917,-7.1436,-7.2592,-7.3596,-7.4049,-7.3662,-7.2748,-7.2402,-7.1063,-6.9185,-6.9075,0.0,0.0,0.0,-7.6919,-8.0557,-8.3187,-8.594,-8.8753,-8.9112,-8.9471,-8.983,-8.8993,-8.7975,-8.6659,-8.4923,-8.1991,-7.7801,0.0,-7.6664,-7.9238,-8.2469,-8.5881,-8.9412,-9.2045,-9.4139,-9.5576,-9.6593,-9.7132,-9.7072,-9.6114,-9.5097,-9.402,-9.1686,-8.9052,-8.6,-8.1991,-7.7502,0.0,0.0,0.0,0.0,0.0,0.0,0.0,0.0,0.0,0.0,0.0,-6.6055,-6.9759,0.0,0.0,0.0,-7.4131,-7.6007,-7.928,-8.1042,0.0,0.0,0.0,0.0,0.0,0.0,0.0,-10.0675,-10.4261,-10.7779,-11.1162,-11.2109,-11.3124,-11.4748,-11.5966,-11.6778,-11.6913,0.0,-11.6981,-11.7184,-11.7036,-11.6738,-11.6589,-11.6708,-11.6892,-11.7564,-11.7783,-11.8221,-11.8642,-11.8793,-11.8943,-11.8943,-11.8943,-11.9214,-11.9958,-11.8943,-11.8131,-11.8605,-11.8672,-11.9078,-12.0296,-12.0499,-12.0837,-7.371,-7.3519,-7.2102,-7.1582,-7.1891,-7.4304,-7.5572,-7.6012,-7.6773,-7.6422,-7.5453,-7.5511,-7.4658,-7.2973,-7.3067,0.0,-7.5798,-7.7532,-7.999,-8.3073,-8.5506,-8.7993,-9.0728,-9.1386,-9.1746,-9.1746,-9.1805,-9.1147,-8.983,-8.8634,-8.7676,-8.6958,-8.3427,-8.217,-8.3247,-8.6299,-8.8813,-9.0788,-9.3242,-9.4858,-9.5576,-9.6174,-9.6533,-9.6593,-9.5995,-9.5336,-9.4618,-9.2763,-9.0549,-8.7915,-8.4743,-8.0913,-7.6425,0.0,0.0,0.0,0.0,0.0,0.0,0.0,0.0,0.0,0.0,0.0,0.0,0.0,0.0,-7.8678,-8.0143,0.0,-8.364,-8.5467,0.0,0.0,0.0,-9.4455,-9.6741,-9.9273,-10.2102,-10.5817,0.0,0.0,-11.3395,-11.5019,-11.6169,-11.6981,-11.759,-11.7793,-11.7116,-11.6913,-11.6643,-11.6237,-11.6034,-11.5887,-11.5862,-11.6185,-11.6993,-11.8272,-11.8541,-11.8963,-11.9874,-12.0228,-12.0228,-12.0161,-12.0296,-12.0567,-12.1311,-12.1379,-12.1582,-12.1582,-12.1582,-12.1785,-12.2461,-12.2596,-12.2867,-7.5778,-7.5371,-7.4877,-7.467,-7.4643,-7.5569,-7.6173,-7.6618,-7.6792,-7.6601,-7.6179,-7.618,-7.5727,-7.4889,-7.4583,-7.5283,-7.6393,-7.8125,-8.0396,-8.2937,-8.5038,-8.7665,-9.0883,-9.1537,-9.2303,-9.3062,-9.3122,-9.2703,-9.1925,-9.1087,-9.0608,-9.0369,-8.9471,-8.8215,-8.6659,-8.8334,-9.019,-9.2105,-9.3242,-9.4379,-9.5576,-9.5755,-9.6055,-9.6533,-9.6414,-9.5815,-9.4678,-9.3661,-9.1925,-8.9292,-8.6539,-8.3128,-7.9058,-7.4988,0.0,0.0,0.0,0.0,0.0,0.0,0.0,0.0,0.0,-7.5365,-7.9111,0.0,-8.2373,0.0,-8.4707,-8.6234,-8.8447,-8.9833,0.0,0.0,-9.7126,-9.9053,-10.2324,-10.4201,-10.6351,-10.9324,-11.1077,-11.2973,-11.5086,-11.6101,-11.6981,-11.7725,-11.7454,-11.7319,-11.7725,-11.7251,-11.7048,-11.7387,-11.7454,-11.759,-11.7306,-11.7576,-11.7914,-11.886,-11.9063,-11.9266,-12.0161,-12.0296,-12.0296,-12.0296,-12.077,-12.1379,-12.2055,-12.2664,-12.3273,-12.3747,-12.3476,-12.3341,-12.4017,-12.4153,-12.4423,-7.7084,-7.6733,-7.6576,-7.6208,-7.6201,-7.6368,-7.6402,-7.669,-7.6736,-7.6512,-7.5959,-7.5947,-7.6048,-7.6014,-7.6061,-7.6598,-7.7581,-7.903,-8.0661,-8.2532,-8.4482,-8.7014,-8.9628,-9.0742,-9.1736,-9.2668,-9.2906,-9.2728,-9.1902,-9.1249,-9.1121,-9.1121,-9.0654,-8.9942,-8.9038,-9.0562,-9.1925,-9.3002,-9.3721,-9.4439,-9.5097,-9.5157,-9.5217,-9.5217,-9.5217,-9.4738,-9.3721,-9.3062,-9.1746,-8.9711,-8.7676,-8.4923,-8.1332,-7.822,-7.5185,0.0,0.0,0.0,0.0,0.0,0.0,0.0,0.0,0.0,0.0,0.0,-8.683,-8.834,-8.9706,-9.1194,-9.2885,-9.4432,-9.6658,-9.9864,-10.1263,-10.3205,-10.6028,-10.7579,-10.9479,-11.1498,-11.2583,-11.375,-11.5041,-11.5727,-11.628,-11.6752,-11.6563,-11.671,-11.7387,-11.7184,-11.6981,-11.7048,-11.7116,-11.7251,-11.7522,-11.759,-11.786,-11.8537,-11.8943,-11.9349,-11.9755,-12.0093,-12.0296,-12.0296,-12.0634,-12.1243,-12.2258,-12.2799,-12.3408,-12.4356,-12.4356,-12.4423,-12.51,-12.5235,-12.5438,-7.7888,-7.7737,-7.7235,-7.6933,-7.6932,-7.6586,-7.6443,-7.6529,-7.6389,-7.6004,-7.5512,-7.5318,-7.5622,-7.627,-7.6792,-7.7428,-7.8283,-7.9405,-8.0474,-8.1604,-8.3706,-8.5652,-8.738,-8.9119,-9.0343,-9.1099,-9.1629,-9.157,-9.104,-9.0511,-9.0216,-9.0158,-8.9628,-8.9628,-9.0388,-9.2199,-9.337,-9.3721,-9.4319,-9.4558,-9.4499,-9.4499,-9.4139,-9.3481,-9.3481,-9.3122,-9.2404,-9.1865,-9.0968,-8.9591,-8.8454,-8.6419,-8.3307,-8.1332,-7.9322,0.0,-7.582,0.0,0.0,0.0,0.0,0.0,0.0,0.0,0.0,-8.9371,-9.0976,-9.2499,-9.441,-9.5884,-9.6736,-9.8512,-10.0698,-10.2874,-10.4626,-10.6451,-10.8349,-10.9831,-11.121,-11.2605,-11.3192,-11.376,-11.4362,-11.4796,-11.5094,-11.5161,-11.5458,-11.5808,-11.6428,-11.6563,-11.6507,-11.5898,-11.5831,-11.6169,-11.6643,-11.6778,-11.7048,-11.7793,-11.8537,-11.9078,-11.9214,-11.9822,-12.0296,-12.0296,-12.0431,-12.0973,-12.2258,-12.2596,-12.3138,-12.4423,-12.4761,-12.51,-12.5641,-12.5844,-12.6182,-7.8792,-7.8289,-7.7787,-7.7285,-7.6833,-7.6475,-7.6259,-7.6047,-7.6087,-7.5666,-7.5206,-7.4624,-7.4469,-7.4597,-7.5021,-7.5163,-7.5393,-7.6809,-7.7836,-7.8524,-8.0783,-8.2886,-8.4948,-8.6624,-8.807,-8.9523,-9.005,-9.0226,-9.0168,-8.9993,-8.9935,-8.9935,-8.9818,-8.9993,-9.0517,0.0,0.0,0.0,-9.4558,-9.4319,-9.378,-9.378,-9.3481,-9.2823,-9.2763,0.0,-9.1087,-9.1386,-9.0788,-8.8993,-8.8634,0.0,0.0,0.0,0.0,0.0,0.0,0.0,0.0,0.0,0.0,0.0,-8.7701,-8.9215,-9.0445,-9.3458,-9.5423,-9.5653,-9.6801,-9.7937,-9.8945,-10.0179,-10.1954,-10.4409,-10.553,-10.7103,-10.9101,-11.0062,-11.0993,-11.2094,-11.2696,-11.3227,-11.3974,-11.4193,-11.4344,-11.4646,-11.4796,-11.4796,-11.493,-11.5593,-11.5966,-11.5831,-11.5831,-11.5831,-11.5966,-11.6034,-11.6304,-11.7048,-11.7793,-11.8469,-11.9078,-11.9755,-12.0296,-12.0296,-12.077,-12.1379,-12.2326,-12.3002,-12.3611,-12.4559,-12.5235,-12.5709,-12.5844,-12.5912,-12.6318,-7.9193,-7.8892,-7.834,-7.7787,0.0,-7.6682,-7.6328,-7.602,-7.5717,-7.5204,-7.4331,-7.4286,-7.4063,-7.3806,-7.4234,-7.4625,-7.4807,-7.5665,-7.6132,-7.6725,-7.8659,-8.0261,-8.158,-8.3774,-8.5103,-8.5975,-8.6614,-8.6791,-8.6681,-8.6681,-8.6681,-8.6681,-8.6681,-8.6856,-8.7438,-8.8712,-9.0573,-9.3257,-9.3257,-9.325,-9.3122,-9.3122,-9.2763,-9.2165,-9.2105,0.0,0.0,0.0,0.0,0.0,0.0,0.0,0.0,0.0,0.0,-8.4265,-8.4359,-8.4632,-8.4993,-8.6506,-8.8147,-8.9698,-9.2205,-9.3463,-9.3157,-9.5741,-9.736,-9.736,-9.8443,-9.9376,-9.9852,-10.1015,-10.2473,-10.4626,-10.5465,-10.6725,-10.8499,-10.9482,-11.0104,-11.0754,-11.1467,-11.2106,-11.258,-11.2894,-11.3205,-11.3668,-11.3821,-11.3974,-11.4344,-11.4945,-11.5538,-11.5831,-11.5831,-11.5831,-11.5831,-11.5831,-11.5898,-11.644,-11.7319,-11.8131,-11.8605,-11.9552,-12.0296,-12.0296,-12.0634,-12.1176,-12.2258,-12.2799,-12.3408,-12.4491,-12.537,-12.6047,-12.6318,-12.6724,-12.7332,-7.9394,-7.9344,-7.8741,-7.8239,-7.7787,-7.7134,-7.6582,-7.603,-7.5477,0.0,0.0,-7.4001,-7.3837,-7.3331,-7.3656,-7.4217,-7.4588,-7.4774,-7.4959,-7.538,-7.6901,-7.7714,-7.8368,-8.0791,-8.2021,-8.1993,-8.3027,-8.3382,-8.2878,-8.2878,-8.2878,-8.2878,-8.2878,-8.3054,-8.381,-8.5996,-8.8419,-9.0677,-9.1493,-9.2013,-9.2235,-9.2404,-9.2105,-9.1446,-9.1446,-9.1147,-9.0489,-9.0549,-9.0309,-8.9711,-8.989,-8.9471,-8.8334,-8.8334,-8.8334,-8.8215,-8.8334,-8.8693,-8.9352,-9.0459,-9.1586,-9.2909,-9.5479,-9.6645,-9.571,-9.7244,-9.8287,-9.8287,-9.9391,-10.0066,-10.0066,-10.1087,-10.2468,-10.404,-10.4633,-10.554,-10.7232,-10.8231,-10.8738,-10.897,-10.9702,-11.0492,-11.1144,-11.1467,-11.1788,-11.2423,-11.2737,-11.336,-11.3888,-11.4646,-11.539,-11.5684,-11.5684,-11.5831,-11.5831,-11.5831,-11.5831,-11.5898,-11.7116,-11.8063,-11.8334,-11.9281,-12.0161,-12.0296,-12.0364,-12.104,-12.219,-12.2664,-12.3138,-12.4423,-12.5438,-12.625,-12.6927,-12.7671,-12.8415,-7.9394,-7.9344,-7.8792,-7.849,-7.834,-7.7285,-7.6532,-7.603,-7.5477,-7.4875,-7.4272,-7.377,-7.3458,-7.2715,-7.2904,-7.2904,-7.3093,-7.3519,-7.3707,-7.3894,-7.4877,-7.5744,-7.6398,-7.8033,-7.9032,-7.9591,-8.0428,-8.0791,-8.0736,-8.0736,-8.0736,-8.0736,-8.0736,-8.1222,-8.2115,-8.3749,-8.5135,-8.6336,-9.0034,-9.1664,-9.107,-9.1577,-9.1446,-9.0788,-9.0788,-9.0489,-8.983,-9.0369,-9.0309,-8.9711,-9.0728,-9.0968,-9.0309,-9.0728,-9.0848,-9.0309,-9.0728,-9.1386,-9.2045,-9.3182,-9.4671,-9.593,-9.689,-9.7362,-9.7447,-9.8288,-9.8774,-9.8835,-9.9443,-9.993,-9.9991,-10.0654,-10.1318,-10.1915,-10.2643,-10.3426,-10.4612,-10.5743,-10.6401,-10.698,-10.7763,-10.876,-10.9664,-10.9831,-11.0162,-11.0982,-11.1467,-11.2106,-11.3205,-11.4428,-11.5094,-11.539,-11.5538,-11.5831,-11.5831,-11.5831,-11.5831,-11.5831,-11.7116,-11.8131,-11.8131,-11.9281,-12.0228,-12.0296,-12.077,-12.1514,-12.2393,-12.307,-12.3679,-12.4626,-12.5776,-12.6791,-12.6994,-12.8009,-12.9024,-7.9394,-7.9344,-7.9093,-7.8792,-7.844,-7.7335,-7.6733,-7.6431,-7.5929,-7.5377,-7.4824,-7.4272,-7.372,-7.3167,-7.2866,-7.2715,-7.2715,-7.2904,-7.3143,-7.3143,-7.3843,-7.437,-7.4627,-7.5929,-7.6587,-7.6797,-7.7585,-7.7768,-7.7768,-7.7768,-7.7768,-7.795,-7.8314,-7.92,-8.0191,-8.1616,-8.2836,-8.3871,-8.7435,-8.9504,-8.9882,-9.0407,-9.0801,-9.0668,-9.0668,-9.0489,-9.019,-9.0489,-9.0489,-9.019,-9.1087,-9.1506,-9.1207,-9.1805,-9.2344,-9.2763,-9.3062,-9.3721,-9.4678,-9.5636,-9.6414,-9.7012,-9.767,-9.8089,-9.8145,-9.8563,-9.8744,-9.8744,-9.9045,-9.9226,-9.9226,-9.9646,-10.0126,-10.0847,-10.1389,-10.205,-10.2773,-10.3611,-10.4272,-10.4995,-10.5832,-10.684,-10.7908,-10.8314,-10.8654,-10.933,-11.0162,-11.1144,-11.2265,-11.336,-11.4495,-11.5094,-11.5538,-11.5831,-11.5831,-11.5831,-11.5831,-11.5831,-11.7116,-11.7996,-11.8199,-11.9281,-12.0161,-12.0296,-12.0905,-12.1649,-12.2393,-12.307,-12.3814,-12.4626,-12.5912,-12.6791,-12.713,-12.8144,-12.9092,-7.9394,-7.9394,-7.9394,-7.9043,-7.844,-7.7637,-7.7134,-7.6833,-7.6431,-7.5929,-7.5377,-7.4824,-7.4222,-7.3569,-7.3117,-7.2866,-7.2765,-7.2715,-7.2715,-7.2715,-7.3143,-7.3331,-7.3331,-7.4268,-7.4588,-7.4774,-7.5143,-7.5328,-7.5328,-7.5328,-7.5328,-7.5512,-7.6244,-7.7183,-7.8025,-7.9413,-8.0699,-8.1903,-8.4559,-8.6797,-8.8492,-8.9299,-8.999,-9.0442,-9.0668,-9.0668,-9.0668,-9.0668,-9.0728,-9.0908,-9.1506,-9.1925,-9.2105,-9.2703,-9.3601,-9.4678,-9.4798,-9.5396,-9.6653,-9.7371,-9.773,-9.773,-9.8209,-9.8508,-9.8508,-9.8508,-9.8508,-9.8508,-9.8508,-9.8508,-9.8508,-9.8868,-9.9228,-9.9709,-10.0189,-10.0668,-10.1214,-10.1815,-10.2478,-10.3027,-10.4049,-10.4951,-10.5978,-10.6579,-10.7105,-10.7799,-10.8993,-10.9997,-11.1144,-11.2265,-11.3514,-11.4646,-11.539,-11.5684,-11.5831,-11.5831,-11.5831,-11.5831,-11.7116,-11.7928,-11.8334,-11.9281,-12.0161,-12.0364,-12.104,-12.1785,-12.2461,-12.3273,-12.4017,-12.4694,-12.5912,-12.7062,-12.7603,-12.8415,-12.9159,-7.9394,-7.9394,-7.9394,-7.9043,-7.854,-7.839,-7.7787,-7.6933,-7.6833,-7.6482,-7.5929,-7.5427,-7.4573,-7.3669,-7.3519,-7.3217,-7.2765,-7.2715,-7.2715,-7.2715,-7.2715,-7.2715,-7.2904,-7.3331,-7.3707,-7.3707,-7.403,-7.4403,-7.4403,-7.4403,-7.4403,-7.4403,-7.4959,-7.5564,-7.6166,-7.7023,-7.8157,-7.9686,-8.1792,-8.4268,-8.7083,-8.8383,-8.9347,-9.0109,-9.0442,-9.0668,-9.0668,-9.0668,-9.0908,-9.1506,-9.2105,-9.2763,-9.3361,-9.402,-9.4738,-9.5456,-9.5516,-9.6055,-9.7311,-9.803,-9.8389,-9.8448,-9.8448,-9.8508,-9.8508,-9.8508,-9.8508,-9.8508,-9.8508,-9.8508,-9.8508,-9.8508,-9.8748,-9.8868,-9.8868,-9.8988,-9.9527,-10.0129,-10.0913,-10.1879,-10.2667,-10.3517,-10.461,-10.4975,-10.5514,-10.6692,-10.7799,-10.8993,-11.0162,-11.1467,-11.2737,-11.3821,-11.4796,-11.539,-11.5684,-11.5831,-11.5831,-11.5966,-11.7116,-11.7928,-11.8402,-11.9214,-12.0296,-12.0431,-12.1446,-12.2258,-12.2732,-12.3544,-12.4491,-12.4829,-12.5912,-12.7332,-12.855,-12.9092,-12.9159,-7.9394,-7.9394,-7.9394,-7.9243,-7.8992,-7.8691,-7.8289,-7.7837,-7.7134,-7.6733,-7.6482,-7.5979,-7.5276,-7.4523,-7.392,-7.3468,-7.3217,-7.2866,-7.2715,-7.2715,-7.2715,-7.2715,-7.2715,-7.2904,-7.2954,-7.3143,-7.3281,-7.3281,-7.3281,-7.3281,-7.3469,-7.3656,-7.4081,-7.4403,-7.4774,-7.5878,-7.6948,-7.8227,-8.0097,-8.2414,-8.4778,-8.709,-8.8804,-8.9942,-9.0109,-9.0276,-9.0668,-9.0668,-9.0968,-9.1626,-9.2224,-9.2883,-9.3541,-9.4618,-9.5456,-9.6114,-9.6892,-9.7551,-9.8089,-9.8389,-9.8508,-9.8508,-9.8508,-9.8508,-9.8508,-9.8508,-9.8508,-9.8508,-9.8508,-9.8508,-9.8508,-9.8508,-9.8508,-9.8508,-9.8508,-9.8508,-9.8688,-9.9108,-9.9649,-10.0852,-10.1578,-10.2365,-10.3456,-10.4066,-10.4612,-10.5693,-10.6755,-10.7971,-10.9497,-11.0982,-11.2106,-11.3426,-11.4344,-11.5094,-11.5684,-11.5831,-11.5831,-11.6101,-11.7116,-11.8063,-11.8334,-11.9349,-12.0296,-12.0296,-12.1514,-12.2393,-12.2461,-12.3611,-12.4694,-12.5032,-12.5912,-12.74,-12.8889,-12.9159,-12.9159,-7.9394,-7.9394,-7.9394,-7.9394,-7.9344,-7.8942,-7.8641,-7.839,-7.7536,-7.7034,-7.6833,-7.6281,-7.5829,-7.5377,-7.4473,-7.392,-7.3569,-7.3167,-7.2866,-7.2765,-7.2715,-7.2715,-7.2715,-7.2715,-7.2715,-7.2715,-7.2715,-7.2715,-7.2715,-7.2715,-7.2904,-7.3331,-7.3331,-7.357,-7.4235,-7.498,-7.6033,-7.7297,-7.9107,-8.1097,-8.3361,-8.5987,-8.8072,-8.9268,-8.9774,-9.0109,-9.0502,-9.0622,-9.1207,-9.1865,-9.2524,-9.3182,-9.384,-9.4977,-9.5935,-9.6833,-9.791,-9.8508,-9.8508,-9.8508,-9.8508,-9.8508,-9.8508,-9.8508,-9.8508,-9.8508,-9.8508,-9.8508,-9.8508,-9.8508,-9.8508,-9.8508,-9.8508,-9.8508,-9.8508,-9.8508,-9.8508,-9.8508,-9.9047,-10.0244,-10.085,-10.1514,-10.2658,-10.339,-10.4126,-10.4794,-10.5871,-10.693,-10.8654,-10.9997,-11.1467,-11.2803,-11.3821,-11.4796,-11.5538,-11.5831,-11.5831,-11.6372,-11.7319,-11.8199,-11.8402,-11.9552,-12.0228,-12.0431,-12.1649,-12.2461,-12.2596,-12.3611,-12.4964,-12.5438,-12.625,-12.7468,-12.8889,-12.9092,-12.9159,-7.9394,-7.9394,-7.9394,-7.9394,-7.9394,-7.9344,-7.9043,-7.854,-7.7888,-7.7385,-7.6883,-7.6281,-7.603,-7.5979,-7.5377,-7.4573,-7.372,-7.3569,-7.3268,-7.2866,-7.2816,-7.2765,-7.2715,-7.2715,-7.2765,-7.2866,-7.2916,-7.2866,-7.2816,-7.2765,-7.2715,-7.2765,-7.2816,-7.3395,-7.4179,-7.447,-7.5482,-7.7368,-7.8963,-8.082,-8.2753,-8.4747,-8.6505,-8.7958,-8.9268,-9.0001,-9.0228,-9.11,-9.1865,-9.2524,-9.3122,-9.384,-9.4499,-9.5277,-9.6234,-9.7371,-9.8149,-9.8508,-9.8508,-9.8508,-9.8508,-9.8508,-9.8508,-9.8508,-9.8508,-9.8508,-9.8508,-9.8508,-9.8508,-9.8508,-9.8508,-9.8508,-9.8508,-9.8508,-9.8508,-9.8508,-9.8508,-9.8628,-9.9167,-10.0184,-10.0603,-10.1386,-10.2339,-10.2832,-10.339,-10.4126,-10.4855,-10.6049,-10.7453,-10.8824,-11.0327,-11.1947,-11.3205,-11.4344,-11.5094,-11.5538,-11.6101,-11.6643,-11.7387,-11.8334,-11.9078,-11.9687,-12.0025,-12.0567,-12.1717,-12.2461,-12.2732,-12.3679,-12.51,-12.5912,-12.6453,-12.7603,-12.8686,-12.9024,-12.9159,-7.9394,-7.9394,-7.9394,-7.9394,-7.9394,-7.9394,-7.9243,-7.8992,-7.8088,-7.7586,-7.7285,-7.6482,-7.608,-7.603,-7.5879,-7.5377,-7.4623,-7.4272,-7.4021,-7.382,-7.382,-7.382,-7.382,-7.382,-7.382,-7.382,-7.382,-7.382,-7.382,-7.382,-7.382,-7.382,-7.382,-7.392,-7.4263,-7.4647,-7.5526,-7.6994,-7.8204,-7.9734,-8.1839,-8.3858,-8.5646,-8.7077,-8.9172,-9.0257,-9.0595,-9.1697,-9.2583,-9.3182,-9.3481,-9.408,-9.5217,-9.6234,-9.7192,-9.803,-9.8389,-9.8508,-9.8508,-9.8508,-9.8508,-9.8508,-9.8508,-9.8508,-9.8508,-9.8508,-9.8508,-9.8508,-9.8508,-9.8508,-9.8508,-9.8508,-9.8508,-9.8508,-9.8508,-9.8568,-9.8628,-9.8867,-9.9526,-10.0364,-10.1142,-10.2039,-10.2279,-10.2705,-10.2832,-10.339,-10.4248,-10.5514,-10.693,-10.8484,-10.9997,-11.1467,-11.2894,-11.4193,-11.4796,-11.539,-11.6101,-11.6778,-11.759,-11.8334,-11.9078,-11.9822,-12.0228,-12.0905,-12.192,-12.2664,-12.307,-12.3882,-12.5235,-12.5979,-12.6521,-12.7332,-12.828,-12.8821,-12.9092,-7.9394,-7.9394,-7.9394,-7.9394,-7.9394,-7.9394,-7.9394,-7.9243,-7.8189,-7.7687,-7.7486,-7.6532,-7.608,-7.608,-7.608,-7.5879,-7.5477,-7.4925,-7.4573,-7.4423,-7.4423,-7.4423,-7.4423,-7.4423,-7.4423,-7.4423,-7.4423,-7.4423,-7.4423,-7.4423,-7.4423,-7.4423,-7.4423,-7.4523,-7.4623,-7.5061,-7.5701,-7.674,-7.7806,-7.9403,-8.1446,-8.3376,-8.5367,-8.6988,-8.9351,-9.0742,-9.0908,-9.2244,-9.3122,-9.3541,-9.396,-9.4858,-9.6114,-9.7012,-9.779,-9.8448,-9.8508,-9.8508,-9.8508,-9.8508,-9.8508,-9.8508,-9.8508,-9.8508,-9.8508,-9.8508,-9.8508,-9.8508,-9.8508,-9.8508,-9.8508,-9.8508,-9.8508,-9.8568,-9.8688,-9.8808,-9.8867,-9.9406,-10.0064,-10.0782,-10.174,-10.2398,-10.2518,-10.2518,-10.2646,-10.3205,-10.3882,-10.4975,-10.6403,-10.7908,-10.9664,-11.0982,-11.258,-11.3668,-11.4562,-11.5445,-11.6428,-11.7319,-11.7725,-11.8402,-11.9214,-11.989,-12.0567,-12.1243,-12.2055,-12.2867,-12.3611,-12.4288,-12.5032,-12.5709,-12.6521,-12.7265,-12.8077,-12.8753,-12.9024,-7.9394,-7.9394,-7.9394,-7.9394,-7.9394,-7.9394,-7.9394,-7.9193,-7.8189,-7.7687,-7.7536,-7.6532,-7.608,-7.608,-7.608,-7.603,-7.5879,-7.5477,-7.5025,-7.4623,-7.4573,-7.4523,-7.4573,-7.4623,-7.4623,-7.4573,-7.4473,-7.4523,-7.4573,-7.4573,-7.4573,-7.4523,-7.4573,-7.4824,-7.5226,-7.5276,-7.5724,-7.6912,-7.7988,-7.9407,-8.1413,-8.3462,-8.5462,-8.7668,-8.9983,-9.1337,-9.1331,-9.2728,-9.3661,-9.384,-9.4858,-9.6114,-9.7132,-9.7551,-9.785,-9.8389,-9.8508,-9.8508,-9.8508,-9.8508,-9.8508,-9.8508,-9.8508,-9.8508,-9.8508,-9.8508,-9.8508,-9.8508,-9.8508,-9.8508,-9.8508,-9.8508,-9.8508,-9.8568,-9.8987,-9.9346,-9.9526,-10.0064,-10.0723,-10.1381,-10.2099,-10.2458,-10.2518,-10.2518,-10.2705,-10.3019,-10.3575,-10.4431,-10.5693,-10.7279,-10.876,-11.0492,-11.1947,-11.3271,-11.4393,-11.555,-11.6738,-11.7712,-11.8131,-11.8605,-11.9552,-12.0296,-12.077,-12.1514,-12.2596,-12.3476,-12.4017,-12.4626,-12.4897,-12.5573,-12.6385,-12.7062,-12.7738,-12.8347,-12.8956,-7.9394,-7.9394,-7.9394,-7.9394,-7.9394,-7.9394,-7.9394,-7.9294,-7.8189,-7.7687,-7.7486,-7.6532,-7.608,-7.608,-7.608,-7.608,-7.603,-7.5879,-7.5728,-7.5527,-7.5527,-7.5527,-7.5527,-7.5527,-7.5578,-7.5527,-7.5527,-7.5527,-7.5527,-7.5527,-7.5527,-7.5527,-7.5527,-7.5628,-7.5778,-7.5829,-7.6277,-7.7325,-7.8214,-7.9451,-8.1528,-8.3684,-8.5659,-8.7798,-9.0374,-9.1862,-9.2629,-9.368,-9.4499,-9.4917,-9.5336,-9.6174,-9.7311,-9.797,-9.8329,-9.8508,-9.8508,-9.8508,-9.8508,-9.8508,-9.8508,-9.8508,-9.8508,-9.8508,-9.8508,-9.8508,-9.8508,-9.8508,-9.8508,-9.8508,-9.8508,-9.8508,-9.8568,-9.8568,-9.9107,-9.9586,-9.9765,-10.0543,-10.1381,-10.2039,-10.2339,-10.2458,-10.2518,-10.2518,-10.2518,-10.2705,-10.3205,-10.3943,-10.4975,-10.6341,-10.7736,-10.9664,-11.1144,-11.3001,-11.442,-11.5869,-11.706,-11.8117,-11.8605,-11.8875,-11.9822,-12.0567,-12.104,-12.192,-12.307,-12.3882,-12.4491,-12.4761,-12.4964,-12.537,-12.6115,-12.6724,-12.7332,-12.8009,-12.8889,-7.9394,-7.9394,-7.9394,-7.9394,-7.9394,-7.9394,-7.9394,-7.9243,-7.839,-7.7988,-7.7787,-7.6833,-7.6381,-7.6331,-7.613,-7.608,-7.608,-7.608,-7.608,-7.608,-7.608,-7.608,-7.608,-7.608,-7.608,-7.608,-7.608,-7.608,-7.608,-7.608,-7.608,-7.603,-7.608,-7.618,-7.6331,-7.6381,-7.6831,-7.7684,-7.8382,-7.9628,-8.1472,-8.3646,-8.5887,-8.8045,-9.046,-9.2203,-9.3572,-9.4456,-9.5221,-9.5636,-9.5995,-9.6833,-9.779,-9.8269,-9.8508,-9.8508,-9.8508,-9.8508,-9.8508,-9.8508,-9.8508,-9.8508,-9.8508,-9.8508,-9.8508,-9.8508,-9.8508,-9.8508,-9.8508,-9.8508,-9.8568,-9.8808,-9.8867,-9.8867,-9.9526,-10.0064,-10.0543,-10.1321,-10.192,-10.2398,-10.2518,-10.2518,-10.2518,-10.2518,-10.2518,-10.2518,-10.2832,-10.3575,-10.4612,-10.5809,-10.739,-10.9226,-11.1143,-11.308,-11.4885,-11.6253,-11.7531,-11.8372,-11.9078,-11.9417,-12.0025,-12.0702,-12.1243,-12.2529,-12.3747,-12.4153,-12.4694,-12.4694,-12.4829,-12.5438,-12.5912,-12.6656,-12.74,-12.8347,-12.9092,-7.9394,-7.9394,-7.9394,-7.9394,-7.9394,-7.9394,-7.9394,-7.9294,-7.8741,-7.849,-7.8239,-7.7385,-7.6933,-7.6783,-7.6431,-7.618,-7.613,-7.608,-7.608,-7.608,-7.608,-7.608,-7.608,-7.608,-7.608,-7.608,-7.608,-7.608,-7.608,-7.608,-7.608,-7.618,-7.623,-7.6381,-7.6833,-7.6933,-7.7185,-7.7889,-7.8743,-7.9997,-8.1111,-8.3526,-8.5971,-8.7986,-9.042,-9.2603,-9.41,-9.5288,-9.594,-9.5935,-9.6892,-9.773,-9.8389,-9.8508,-9.8508,-9.8508,-9.8508,-9.8508,-9.8508,-9.8508,-9.8508,-9.8508,-9.8508,-9.8508,-9.8508,-9.8508,-9.8508,-9.8508,-9.8628,-9.8628,-9.8748,-9.9226,-9.9526,-9.9705,-10.0184,-10.1022,-10.2219,-10.2398,-10.2458,-10.2458,-10.2518,-10.2518,-10.2518,-10.2518,-10.2518,-10.2518,-10.2832,-10.3575,-10.4431,-10.5693,-10.7279,-10.9079,-11.0972,-11.2964,-11.4702,-11.6548,-11.7832,-11.8761,-11.9401,-11.9822,-12.0364,-12.0973,-12.1717,-12.307,-12.4085,-12.4491,-12.4694,-12.4694,-12.4694,-12.4964,-12.5641,-12.6588,-12.7468,-12.8415,-12.9092,-7.9394,-7.9394,-7.9394,-7.9394,-7.9394,-7.9394,-7.9394,-7.9294,-7.8792,-7.854,-7.839,-7.7787,-7.7486,-7.7436,-7.6933,-7.6682,-7.6582,-7.6281,-7.608,-7.608,-7.608,-7.608,-7.608,-7.608,-7.608,-7.613,-7.618,-7.608,-7.608,-7.613,-7.6281,-7.6632,-7.6682,-7.6933,-7.7385,-7.7486,-7.7787,-7.8442,-7.9302,-8.0414,-8.163,-8.3721,-8.594,-8.8027,-9.0388,-9.2401,-9.4269,-9.6,-9.7014,-9.7072,-9.779,-9.8329,-9.8508,-9.8508,-9.8508,-9.8508,-9.8568,-9.8568,-9.8568,-9.8568,-9.8568,-9.8508,-9.8688,-9.8508,-9.8508,-9.8508,-9.8508,-9.8628,-9.8927,-9.9226,-9.9346,-9.9825,-10.0364,-10.0902,-10.1142,-10.162,-10.2279,-10.2518,-10.2518,-10.2518,-10.2578,-10.2578,-10.2578,-10.2578,-10.2518,-10.2518,-10.2705,-10.3079,-10.4004,-10.4916,-10.6412,-10.8429,-11.0416,-11.2503,-11.4723,-11.6748,-11.8216,-11.9214,-11.9789,-12.0161,-12.0702,-12.1379,-12.2326,-12.3476,-12.4153,-12.4626,-12.4694,-12.4694,-12.4694,-12.4694,-12.5844,-12.6927,-12.74,-12.8144,-12.8889,-7.9746,-7.9695,-7.9495,-7.9394,-7.9394,-7.9394,-7.9394,-7.9344,-7.9043,-7.8892,-7.8741,-7.8289,-7.8038,-7.7988,-7.7486,-7.7235,-7.7185,-7.6883,-7.6783,-7.6783,-7.6783,-7.6682,-7.6532,-7.6582,-7.6733,-7.6733,-7.6733,-7.6783,-7.6783,-7.6733,-7.6933,-7.7185,-7.7235,-7.7486,-7.8038,-7.8038,-7.834,-7.8996,-7.9709,-8.0777,-8.19,-8.3909,-8.6007,-8.825,-9.0444,-9.2837,-9.5324,-9.7011,-9.791,-9.797,-9.8329,-9.8508,-9.8508,-9.8508,-9.8508,-9.8568,-9.8748,-9.8927,-9.8987,-9.9167,-9.9346,-9.9346,-9.9346,-9.9346,-9.9406,-9.9346,-9.9346,-9.9466,-9.9765,-9.9885,-10.0004,-10.0483,-10.1321,-10.2099,-10.2279,-10.2458,-10.2877,-10.2937,-10.3057,-10.3176,-10.3296,-10.3176,-10.2937,-10.2877,-10.2757,-10.2578,-10.2518,-10.3013,-10.3938,-10.4675,-10.5769,-10.8055,-11.0369,-11.2713,-11.4826,-11.6739,-11.8463,-11.9618,-12.0329,-12.0634,-12.1379,-12.1988,-12.2799,-12.3747,-12.4288,-12.4694,-12.4694,-12.4694,-12.4694,-12.51,-12.625,-12.6927,-12.74,-12.8144,-12.8889,-8.0298,-8.0248,-7.9746,-7.9545,-7.9595,-7.9545,-7.9695,-7.9595,-7.9595,-7.9545,-7.9394,-7.8942,-7.8741,-7.8591,-7.8038,-7.7787,-7.7787,-7.7586,-7.7586,-7.7586,-7.7637,-7.7536,-7.7185,-7.7385,-7.7486,-7.7536,-7.7687,-7.7586,-7.7486,-7.7586,-7.7687,-7.7737,-7.7787,-7.8088,-7.849,-7.8641,-7.8942,-7.9344,-8.0062,-8.0983,-8.2212,-8.3941,-8.6007,-8.8325,-9.1266,-9.4003,-9.6329,-9.7724,-9.8328,-9.8628,-9.8568,-9.8568,-9.8628,-9.8628,-9.8748,-9.8927,-9.9346,-9.9586,-9.9705,-10.0064,-10.0364,-10.0304,-10.0364,-10.0483,-10.0304,-10.0244,-10.0244,-10.0244,-10.0543,-10.0663,-10.0902,-10.1321,-10.2099,-10.2997,-10.3356,-10.3535,-10.3595,-10.3595,-10.3775,-10.4254,-10.4373,-10.4074,-10.3775,-10.3476,-10.3356,-10.3236,-10.3117,-10.3673,-10.4417,-10.4975,-10.6447,-10.8393,-11.0846,-11.3083,-11.5085,-11.6948,-11.8552,-11.9955,-12.0667,-12.1311,-12.219,-12.2867,-12.3476,-12.4085,-12.4491,-12.4694,-12.4694,-12.4694,-12.4761,-12.5303,-12.625,-12.6791,-12.7265,-12.8347,-12.9159,-8.085,-8.085,-8.07,-8.07,-8.07,-8.07,-8.065,-8.065,-8.065,-8.0348,-8.0047,-7.9896,-7.9595,-7.9193,-7.8641,-7.834,-7.8289,-7.7988,-7.7687,-7.7737,-7.8189,-7.8289,-7.8088,-7.7938,-7.7737,-7.7787,-7.7737,-7.7737,-7.7737,-7.7888,-7.7938,-7.8289,-7.839,-7.8641,-7.9093,-7.9193,-7.9495,-7.9947,-8.067,-8.1337,-8.2572,-8.4112,-8.6197,-8.8532,-9.2078,-9.4956,-9.6623,-9.7601,-9.8385,-9.8865,-9.8867,-9.8867,-9.9226,-9.9286,-9.9466,-9.9885,-10.0124,-10.0304,-10.0304,-10.0483,-10.0483,-10.0603,-10.0663,-10.0483,-10.0483,-10.0543,-10.0543,-10.0603,-10.0962,-10.1441,-10.192,-10.2638,-10.3117,-10.3535,-10.3954,-10.4433,-10.4792,-10.4493,-10.4313,-10.4433,-10.4493,-10.4373,-10.4194,-10.4194,-10.4074,-10.3954,-10.4144,-10.4204,-10.4892,-10.5517,-10.6999,-10.8776,-11.0823,-11.2953,-11.5079,-11.7051,-11.8976,-12.0224,-12.1158,-12.192,-12.2799,-12.3408,-12.395,-12.4288,-12.4626,-12.4694,-12.4694,-12.4897,-12.4964,-12.5641,-12.6318,-12.6994,-12.7738,-12.8686,-12.9159,-8.1403,-8.1353,-8.1152,-8.1051,-8.1051,-8.1051,-8.1051,-8.1051,-8.1051,-8.085,-8.0599,-8.0348,-8.0047,-7.9746,-7.9193,-7.8942,-7.8892,-7.8641,-7.849,-7.8591,-7.8842,-7.8942,-7.8892,-7.8691,-7.849,-7.849,-7.849,-7.849,-7.849,-7.849,-7.8691,-7.8892,-7.8892,-7.9043,-7.9394,-7.9645,-7.9896,-8.0198,-8.0708,-8.1688,-8.2981,-8.4121,-8.6582,-8.9276,-9.2666,-9.5129,-9.6496,-9.7714,-9.862,-9.9224,-9.9466,-9.9586,-9.9885,-9.9945,-10.0184,-10.0423,-10.0842,-10.0902,-10.0962,-10.1261,-10.1501,-10.1381,-10.1441,-10.1441,-10.1441,-10.1441,-10.1441,-10.1501,-10.18,-10.2219,-10.2877,-10.3476,-10.3895,-10.4373,-10.4673,-10.5151,-10.557,-10.5271,-10.5032,-10.5211,-10.5391,-10.5211,-10.5032,-10.4912,-10.4613,-10.4373,-10.4254,-10.4564,-10.5235,-10.5866,-10.736,-10.8967,-11.097,-11.2926,-11.4899,-11.6989,-11.9267,-12.0648,-12.1563,-12.2393,-12.3205,-12.3747,-12.4288,-12.4491,-12.4694,-12.4694,-12.4761,-12.4897,-12.5303,-12.5844,-12.6588,-12.74,-12.8144,-12.8753,-12.9092,-8.1955,-8.1905,-8.1453,-8.1302,-8.1302,-8.1302,-8.1353,-8.1302,-8.1302,-8.1302,-8.1102,-8.065,-8.0449,-8.0097,-7.9746,-7.9495,-7.9344,-7.9344,-7.9193,-7.9243,-7.9243,-7.9294,-7.9294,-7.9243,-7.9243,-7.9394,-7.9294,-7.9294,-7.9294,-7.9394,-7.9193,-7.9344,-7.9394,-7.9444,-7.9595,-7.9947,-8.0348,-8.065,-8.1001,-8.1825,-8.3335,-8.4275,-8.6759,-9.0312,-9.2584,-9.4751,-9.6241,-9.7766,-9.8977,-9.9645,-10.0244,-10.0603,-10.0782,-10.0663,-10.0723,-10.0842,-10.1381,-10.1561,-10.168,-10.2039,-10.2398,-10.2518,-10.2458,-10.2458,-10.2398,-10.2339,-10.2398,-10.2578,-10.2757,-10.3057,-10.3535,-10.4194,-10.4792,-10.5211,-10.5451,-10.5869,-10.6169,-10.5869,-10.5869,-10.6109,-10.6049,-10.581,-10.569,-10.557,-10.5151,-10.4852,-10.4732,-10.4792,-10.5463,-10.653,-10.7721,-10.9152,-11.0923,-11.383,-11.6194,-11.7776,-11.9735,-12.1254,-12.2326,-12.2935,-12.3679,-12.4085,-12.4491,-12.4559,-12.4694,-12.4694,-12.4897,-12.5235,-12.5641,-12.6115,-12.6859,-12.7806,-12.8415,-12.8821,-12.9024,-8.2508,-8.2508,-8.2457,-8.2407,-8.2407,-8.2407,-8.2357,-8.2407,-8.2307,-8.2106,-8.1704,-8.1553,-8.0951,-8.0398,-8.0147,-7.9846,-7.9495,-7.9394,-7.9394,-7.9394,-7.9394,-7.9394,-7.9394,-7.9394,-7.9394,-7.9394,-7.9394,-7.9394,-7.9394,-7.9394,-7.9394,-7.9394,-7.9444,-7.9595,-7.9947,-8.0248,-8.075,-8.1252,-8.1604,-8.2381,-8.3372,-8.4792,-8.6665,-9.0477,-9.2446,-9.4238,-9.6113,-9.7514,-9.8787,-10.012,-10.0962,-10.1561,-10.18,-10.1561,-10.1561,-10.192,-10.2099,-10.2219,-10.2339,-10.2398,-10.2518,-10.2518,-10.2638,-10.2578,-10.2578,-10.2578,-10.2877,-10.3296,-10.3715,-10.4134,-10.4254,-10.4852,-10.5211,-10.557,-10.5929,-10.6348,-10.6468,-10.6468,-10.6348,-10.6528,-10.6468,-10.6348,-10.6169,-10.6049,-10.581,-10.563,-10.563,-10.563,-10.6063,-10.7013,-10.8148,-10.9461,-11.0992,-11.4324,-11.7647,-11.8888,-12.0719,-12.2131,-12.3205,-12.3476,-12.4085,-12.4423,-12.4694,-12.4694,-12.4761,-12.4761,-12.5032,-12.5573,-12.6182,-12.6791,-12.7535,-12.8347,-12.8686,-12.9024,-12.9092,-8.2658,-8.2658,-8.2658,-8.2658,-8.2658,-8.2658,-8.2658,-8.2658,-8.2658,-8.2508,-8.2257,-8.1905,-8.1403,-8.07,-8.0298,-7.9896,-7.9495,-7.9394,-7.9394,-7.9394,-7.9394,-7.9394,-7.9394,-7.9394,-7.9394,-7.9394,-7.9394,-7.9394,-7.9394,-7.9394,-7.9394,-7.9444,-7.9645,-7.9947,-8.0298,-8.08,-8.1252,-8.1805,-8.2106,-8.2571,-8.3464,-8.4788,-8.7236,-8.9274,-9.1522,-9.3392,-9.5518,-9.761,-9.9193,-10.0405,-10.1434,-10.2099,-10.2279,-10.2279,-10.2159,-10.2458,-10.2518,-10.2698,-10.2877,-10.2997,-10.3117,-10.3476,-10.3476,-10.3476,-10.3476,-10.3535,-10.3595,-10.3954,-10.4493,-10.4912,-10.4972,-10.557,-10.6049,-10.6408,-10.6767,-10.7007,-10.7306,-10.7366,-10.7186,-10.6887,-10.6647,-10.6528,-10.6408,-10.6348,-10.6348,-10.6408,-10.6408,-10.6408,-10.6468,-10.7436,-10.8452,-11.045,-11.2226,-11.5268,-11.8371,-11.9713,-12.1233,-12.2805,-12.3658,-12.4085,-12.4356,-12.4626,-12.4694,-12.4694,-12.4761,-12.4761,-12.5506,-12.6047,-12.6724,-12.74,-12.8144,-12.8753,-12.9024,-12.9159,-12.9159,-8.2658,-8.2658,-8.2658,-8.2658,-8.2658,-8.2658,-8.2658,-8.2658,-8.2658,-8.2658,-8.2608,-8.2206,-8.1654,-8.1001,-8.0348,-7.9796,-7.9394,-7.9394,-7.9394,-7.9394,-7.9394,-7.9394,-7.9394,-7.9394,-7.9394,-7.9394,-7.9394,-7.9394,-7.9394,-7.9394,-7.9444,-7.9645,-8.0047,-8.0398,-8.07,-8.1302,-8.1754,-8.2106,-8.2407,-8.3087,-8.3941,-8.5157,-8.6617,-8.8518,-9.0477,-9.2532,-9.4983,-9.7395,-9.9173,-10.0635,-10.1605,-10.2458,-10.2518,-10.2518,-10.2578,-10.2638,-10.2698,-10.2997,-10.3236,-10.3595,-10.3775,-10.4134,-10.4313,-10.4373,-10.4373,-10.4373,-10.4553,-10.4732,-10.5211,-10.575,-10.5929,-10.6288,-10.6887,-10.7366,-10.7545,-10.7725,-10.8024,-10.8144,-10.7904,-10.7545,-10.7066,-10.6707,-10.6588,-10.6408,-10.6408,-10.6408,-10.6408,-10.6707,-10.6902,-10.7738,-10.9008,-11.1441,-11.3768,-11.6453,-11.8826,-12.0215,-12.1651,-12.3186,-12.3996,-12.4288,-12.4491,-12.4694,-12.4694,-12.4694,-12.4694,-12.4897,-12.5709,-12.6521,-12.7062,-12.7738,-12.8618,-12.9092,-12.9159,-12.9159,-12.9159,-8.2658,-8.2658,-8.2658,-8.2658,-8.2658,-8.2658,-8.2658,-8.2658,-8.2658,-8.2658,-8.2658,-8.2558,-8.1955,-8.1001,-7.9947,-7.9495,-7.9394,-7.9394,-7.9394,-7.9394,-7.9394,-7.9394,-7.9394,-7.9394,-7.9394,-7.9394,-7.9394,-7.9394,-7.9444,-7.9444,-7.9645,-7.9997,-8.0298,-8.065,-8.1403,-8.1754,-8.2056,-8.2457,-8.2658,-8.3301,-8.4153,-8.4998,-8.6462,-8.8314,-9.0132,-9.2195,-9.4768,-9.7131,-9.9103,-10.0566,-10.1784,-10.2458,-10.2518,-10.2518,-10.2817,-10.3117,-10.3296,-10.3356,-10.3595,-10.4014,-10.4373,-10.4613,-10.4613,-10.4433,-10.4673,-10.5032,-10.5331,-10.5331,-10.5929,-10.6468,-10.6827,-10.7186,-10.7605,-10.7964,-10.8263,-10.8323,-10.8503,-10.8922,-10.8682,-10.8383,-10.7964,-10.7306,-10.6827,-10.6588,-10.6408,-10.6408,-10.6468,-10.6827,-10.7517,-10.8475,-10.9809,-11.2248,-11.4589,-11.7291,-11.9275,-12.0847,-12.2092,-12.3565,-12.4109,-12.4491,-12.4559,-12.4694,-12.4694,-12.4694,-12.4761,-12.51,-12.5979,-12.6724,-12.7265,-12.8009,-12.8821,-12.9092,-12.9159,-12.9159,-12.9159,-8.2658,-8.2658,-8.2658,-8.2658,-8.2658,-8.2658,-8.2658,-8.2658,-8.2658,-8.2658,-8.2658,-8.2658,-8.2056,-8.0951,-7.9896,-7.9394,-7.9394,-7.9394,-7.9394,-7.9394,-7.9394,-7.9394,-7.9394,-7.9394,-7.9394,-7.9394,-7.9394,-7.9394,-7.9444,-7.9746,-7.9997,-8.0248,-8.08,-8.1302,-8.1905,-8.2156,-8.2407,-8.2608,-8.2873,-8.3301,-8.4153,-8.4788,-8.5785,-8.811,-8.9877,-9.2165,-9.4664,-9.7247,-9.9338,-10.0614,-10.1834,-10.2458,-10.2638,-10.2817,-10.3176,-10.3416,-10.4194,-10.4553,-10.4613,-10.4852,-10.5091,-10.5451,-10.551,-10.557,-10.563,-10.575,-10.5989,-10.5989,-10.6588,-10.7066,-10.7426,-10.7725,-10.8263,-10.8682,-10.8922,-10.9161,-10.9281,-10.94,-10.946,-10.9221,-10.8862,-10.8204,-10.7545,-10.7306,-10.7126,-10.7007,-10.7126,-10.7366,-10.8434,-10.9699,-11.1233,-11.3182,-11.553,-11.7776,-11.9652,-12.1309,-12.2234,-12.3446,-12.4244,-12.4626,-12.4626,-12.4694,-12.4694,-12.4897,-12.5167,-12.5641,-12.6318,-12.6859,-12.7468,-12.8212,-12.9024,-12.9092,-12.9159,-12.9159,-12.9159,-8.2658,-8.2658,-8.2658,-8.2658,-8.2658,-8.2658,-8.2658,-8.2658,-8.2658,-8.2658,-8.2608,-8.2357,-8.1754,-8.0951,-7.9947,-7.9394,-7.9394,-7.9394,-7.9394,-7.9394,-7.9394,-7.9394,-7.9394,-7.9394,-7.9394,-7.9394,-7.9394,-7.9495,-7.9796,-8.0097,-8.0398,-8.0449,-8.1252,-8.1805,-8.2106,-8.2407,-8.2658,-8.2658,-8.2658,-8.3301,-8.4153,-8.4576,-8.6046,-8.7905,-8.9895,-9.2134,-9.4528,-9.7462,-9.9691,-10.0779,-10.1893,-10.2518,-10.2578,-10.2997,-10.3476,-10.3835,-10.4673,-10.5331,-10.551,-10.569,-10.5929,-10.6229,-10.6408,-10.6229,-10.6288,-10.6408,-10.6588,-10.6647,-10.7007,-10.7426,-10.7904,-10.8383,-10.8922,-10.9341,-10.964,-10.9939,-11.0178,-11.0059,-10.9999,-10.9819,-10.952,-10.9221,-10.8682,-10.8204,-10.7904,-10.7725,-10.7785,-10.7964,-10.9096,-11.0487,-11.203,-11.3741,-11.5606,-11.7625,-11.9459,-12.12,-12.2272,-12.3485,-12.422,-12.4536,-12.4694,-12.4694,-12.4694,-12.5032,-12.5506,-12.6047,-12.6588,-12.7062,-12.7603,-12.8415,-12.9092,-12.9159,-12.9159,-12.9159,-12.9159,-8.2658,-8.2658,-8.2658,-8.2658,-8.2658,-8.2658,-8.2658,-8.2658,-8.2658,-8.2658,-8.2558,-8.1704,-8.1202,-8.075,-7.9997,-7.9394,-7.9394,-7.9394,-7.9394,-7.9394,-7.9394,-7.9394,-7.9394,-7.9394,-7.9394,-7.9394,-7.9394,-7.9645,-8.0147,-8.0549,-8.085,-8.1102,-8.1654,-8.2106,-8.2407,-8.2608,-8.2658,-8.2658,-8.2658,-8.3301,-8.4153,-8.4998,-8.6254,-8.8421,-9.0625,-9.2834,-9.5092,-9.7751,-9.9868,-10.1015,-10.1893,-10.2518,-10.2578,-10.3236,-10.3715,-10.4254,-10.5032,-10.575,-10.6049,-10.6169,-10.6288,-10.6408,-10.6408,-10.6408,-10.6408,-10.6408,-10.6707,-10.7186,-10.7545,-10.8144,-10.8742,-10.9341,-10.964,-10.9819,-10.9999,-11.0119,-11.0238,-11.0238,-11.0238,-11.0238,-11.0059,-10.976,-10.958,-10.9101,-10.8682,-10.8443,-10.8622,-10.8802,-10.9758,-11.1032,-11.2316,-11.3982,-11.5554,-11.7274,-11.9063,-12.069,-12.2272,-12.3418,-12.422,-12.4536,-12.4694,-12.4694,-12.4694,-12.5235,-12.5709,-12.625,-12.6927,-12.7603,-12.828,-12.8821,-12.9159,-12.9159,-12.9159,-12.9159,-12.9159,-8.2658,-8.2658,-8.2658,-8.2658,-8.2658,-8.2658,-8.2658,-8.2658,-8.2658,-8.2658,-8.2608,-8.1553,-8.1051,-8.07,-7.9947,-7.9394,-7.9394,-7.9394,-7.9394,-7.9394,-7.9394,-7.9394,-7.9394,-7.9394,-7.9394,-7.9394,-7.9394,-7.9695,-8.0198,-8.08,-8.1252,-8.1553,-8.2056,-8.2357,-8.2658,-8.2658,-8.2658,-8.2658,-8.2873,-8.3301,-8.4365,-8.4998,-8.6254,-8.8368,-9.1027,-9.3231,-9.5623,-9.8252,-10.0044,-10.1336,-10.2082,-10.233,-10.2698,-10.3416,-10.4014,-10.4493,-10.5331,-10.6049,-10.6288,-10.6408,-10.6408,-10.6408,-10.6408,-10.6468,-10.6588,-10.6767,-10.7066,-10.7545,-10.8144,-10.8862,-10.9161,-10.97,-11.0059,-11.0238,-11.0298,-11.0298,-11.0298,-11.0298,-11.0298,-11.0298,-11.0298,-11.0119,-11.0059,-10.9939,-10.952,-10.9161,-10.94,-10.984,-11.0619,-11.1396,-11.2756,-11.423,-11.5743,-11.7338,-11.9128,-12.069,-12.2437,-12.3256,-12.4061,-12.4379,-12.4694,-12.4694,-12.4829,-12.5303,-12.5979,-12.6724,-12.7468,-12.828,-12.8821,-12.9092,-12.9159,-12.9159,-12.9159,-12.9159,-12.9159,-8.2558,-8.2407,-8.2407,-8.2508,-8.2658,-8.2658,-8.2658,-8.2658,-8.2658,-8.2558,-8.2357,-8.1453,-8.0901,-8.0549,-7.9846,-7.9394,-7.9394,-7.9394,-7.9394,-7.9394,-7.9394,-7.9394,-7.9394,-7.9394,-7.9394,-7.9394,-7.9444,-7.9695,-8.0499,-8.085,-8.1403,-8.2005,-8.2457,-8.2608,-8.2658,-8.2658,-8.2658,-8.2658,-8.2873,-8.3301,-8.4365,-8.5209,-8.662,-8.8991,-9.1813,-9.4161,-9.6552,-9.8794,-10.047,-10.1585,-10.2142,-10.2518,-10.2937,-10.3535,-10.4254,-10.4852,-10.551,-10.6348,-10.6408,-10.6408,-10.6528,-10.6707,-10.6767,-10.6827,-10.7066,-10.7426,-10.7785,-10.8144,-10.8922,-10.946,-10.958,-11.0059,-11.0238,-11.0298,-11.0298,-11.0298,-11.0298,-11.0298,-11.0298,-11.0298,-11.0298,-11.0298,-11.0238,-11.0178,-10.9999,-10.99,-11.022,-11.0341,-11.086,-11.1972,-11.3206,-11.4612,-11.6115,-11.77,-11.9368,-12.1096,-12.2602,-12.3323,-12.4128,-12.4536,-12.4694,-12.4761,-12.5032,-12.5573,-12.6318,-12.7197,-12.7874,-12.855,-12.8889,-12.9159,-12.9159,-12.9159,-12.9159,-12.9159,-12.9159,-8.2307,-8.1855,-8.1805,-8.2156,-8.2558,-8.2658,-8.2608,-8.2608,-8.2658,-8.2407,-8.1905,-8.1252,-8.075,-8.0248,-7.9645,-7.9394,-7.9394,-7.9394,-7.9394,-7.9394,-7.9394,-7.9394,-7.9394,-7.9394,-7.9394,-7.9394,-7.9495,-7.9896,-8.0951,-8.1001,-8.1604,-8.2307,-8.2608,-8.2658,-8.2658,-8.2658,-8.2658,-8.2658,-8.2658,-8.3515,-8.4365,-8.5367,-8.7501,-8.983,-9.2601,-9.4951,-9.7343,-9.9529,-10.0956,-10.1893,-10.233,-10.2518,-10.2817,-10.3775,-10.4373,-10.4613,-10.575,-10.6348,-10.6408,-10.6408,-10.6707,-10.7126,-10.7126,-10.7426,-10.8024,-10.8383,-10.8503,-10.8862,-10.94,-10.976,-11.0059,-11.0298,-11.0298,-11.0298,-11.0298,-11.0298,-11.0298,-11.0298,-11.0298,-11.0298,-11.0298,-11.0298,-11.0298,-11.0298,-11.0298,-11.044,-11.0902,-11.1102,-11.15,-11.2487,-11.3654,-11.5305,-11.6854,-11.824,-12.0001,-12.1537,-12.293,-12.3485,-12.4128,-12.4536,-12.4829,-12.4897,-12.5303,-12.5912,-12.6724,-12.7603,-12.8144,-12.8686,-12.8956,-12.9159,-12.9159,-12.9159,-12.9159,-12.9159,-12.9159,-8.1805,-8.1302,-8.1302,-8.1403,-8.1604,-8.1604,-8.1754,-8.2106,-8.2457,-8.2357,-8.1805,-8.1252,-8.07,-8.0198,-7.9695,-7.9394,-7.9394,-7.9394,-7.9394,-7.9394,-7.9394,-7.9394,-7.9394,-7.9394,-7.9394,-7.9394,-7.9495,-7.9997,-8.1001,-8.1102,-8.1704,-8.2407,-8.2658,-8.2658,-8.2658,-8.2658,-8.2658,-8.2873,-8.3087,-8.3728,-8.4576,-8.5837,-8.7761,-9.0197,-9.3024,-9.5572,-9.8021,-10.0014,-10.1265,-10.2082,-10.2518,-10.2638,-10.3057,-10.4014,-10.4553,-10.5032,-10.5989,-10.6348,-10.6408,-10.6468,-10.6707,-10.7186,-10.7485,-10.7785,-10.8263,-10.8802,-10.9161,-10.946,-10.976,-11.0059,-11.0298,-11.0298,-11.0298,-11.0298,-11.0298,-11.0298,-11.0298,-11.0298,-11.0298,-11.0298,-11.0298,-11.0298,-11.0298,-11.0298,-11.0298,-11.0701,-11.1102,-11.1699,-11.2094,-11.3206,-11.4359,-11.6052,-11.77,-11.9128,-12.069,-12.2238,-12.3294,-12.3942,-12.4355,-12.4536,-12.4829,-12.5032,-12.5776,-12.6385,-12.7197,-12.7941,-12.8483,-12.8956,-12.9092,-12.9159,-12.9159,-12.9159,-12.9159,-12.9159,-12.9159,-8.1202,-8.075,-8.075,-8.065,-8.0549,-8.085,-8.1252,-8.1553,-8.1905,-8.1805,-8.1252,-8.085,-8.0449,-7.9947,-7.9595,-7.9394,-7.9394,-7.9394,-7.9394,-7.9394,-7.9394,-7.9394,-7.9394,-7.9444,-7.9545,-7.9595,-7.9796,-8.0248,-8.1302,-8.1302,-8.1855,-8.2457,-8.2658,-8.2658,-8.2658,-8.2658,-8.2658,-8.2873,-8.3087,-8.3941,-8.4998,-8.6514,-8.8485,-9.097,-9.3591,-9.608,-9.8389,-10.0206,-10.1324,-10.2082,-10.2578,-10.2817,-10.3416,-10.4074,-10.4732,-10.5391,-10.5989,-10.6348,-10.6408,-10.6767,-10.7126,-10.7725,-10.7725,-10.8144,-10.8862,-10.952,-10.964,-10.9879,-11.0119,-11.0238,-11.0298,-11.0298,-11.0298,-11.0298,-11.0298,-11.0298,-11.0298,-11.0298,-11.0298,-11.0298,-11.0298,-11.0298,-11.0298,-11.0298,-11.05,-11.0902,-11.15,-11.2155,-11.294,-11.4168,-11.5493,-11.7156,-11.879,-12.0392,-12.183,-12.3068,-12.3954,-12.4304,-12.4581,-12.4694,-12.4964,-12.5235,-12.6047,-12.6859,-12.7535,-12.8144,-12.8821,-12.9159,-12.9159,-12.9159,-12.9159,-12.9159,-12.9159,-12.9159,-12.9159,-8.07,-8.0198,-8.0198,-7.9896,-7.9645,-8.0449,-8.0901,-8.1001,-8.1051,-8.08,-8.0248,-8.0298,-7.9997,-7.9545,-7.9394,-7.9394,-7.9394,-7.9394,-7.9394,-7.9394,-7.9394,-7.9394,-7.9444,-7.9495,-7.9746,-8.0047,-8.0298,-8.07,-8.1704,-8.1855,-8.2206,-8.2558,-8.2658,-8.2658,-8.2658,-8.2658,-8.2658,-8.2873,-8.3515,-8.4153,-8.5419,-8.6929,-8.9368,-9.1852,-9.4469,-9.6815,-9.9009,-10.0692,-10.1514,-10.2082,-10.2518,-10.2937,-10.3416,-10.4074,-10.4732,-10.5451,-10.6109,-10.6288,-10.6468,-10.6887,-10.7545,-10.8084,-10.8383,-10.9101,-10.976,-11.0059,-11.0059,-11.0119,-11.0298,-11.0298,-11.0298,-11.0298,-11.0298,-11.0298,-11.0298,-11.0298,-11.0298,-11.0298,-11.0298,-11.0298,-11.0298,-11.0298,-11.0298,-11.0298,-11.0821,-11.1603,-11.2459,-11.3564,-11.4472,-11.5368,-11.667,-11.8304,-12.0043,-12.1885,-12.3134,-12.3992,-12.4345,-12.4624,-12.4581,-12.4761,-12.5032,-12.5438,-12.625,-12.7062,-12.7738,-12.8347,-12.8956,-12.9159,-12.9159,-12.9159,-12.9159,-12.9159,-12.9159,-12.9159,-12.9227,-8.0147,-7.9645,-7.9645,-7.9545,-7.9444,-7.9746,-8.0097,-8.0449,-8.085,-8.07,-8.0198,-8.0198,-7.9846,-7.9394,-7.9394,-7.9394,-7.9394,-7.9394,-7.9394,-7.9394,-7.9394,-7.9394,-7.9545,-7.9746,-8.0047,-8.0298,-8.065,-8.1152,-8.1754,-8.2156,-8.2407,-8.2658,-8.2658,-8.2658,-8.2658,-8.2658,-8.2873,-8.3301,-8.3941,-8.4788,-8.615,-8.7761,-9.0305,-9.2678,-9.5291,-9.7747,-9.9687,-10.0883,-10.1704,-10.233,-10.2518,-10.2937,-10.4074,-10.4373,-10.4792,-10.5989,-10.6348,-10.6408,-10.6528,-10.7007,-10.7665,-10.8323,-10.8802,-10.946,-11.0059,-11.0298,-11.0298,-11.0298,-11.0298,-11.0298,-11.0298,-11.0298,-11.0298,-11.0298,-11.0298,-11.0298,-11.0298,-11.0298,-11.0298,-11.0298,-11.0298,-11.0298,-11.0298,-11.0821,-11.1403,-11.2244,-11.3417,-11.4773,-11.5927,-11.6682,-11.7966,-11.9645,-12.1369,-12.3328,-12.3864,-12.4641,-12.4759,-12.4942,-12.4739,-12.4761,-12.4964,-12.5506,-12.6453,-12.7265,-12.8144,-12.8618,-12.9092,-12.9159,-12.9159,-12.9159,-12.9159,-12.9159,-12.9159,-12.9159,-12.9227,-7.9695,-7.9394,-7.9394,-7.9394,-7.9394,-7.9394,-7.9595,-7.9947,-8.0248,-8.0147,-7.9896,-7.9846,-7.9695,-7.9444,-7.9394,-7.9394,-7.9394,-7.9394,-7.9394,-7.9394,-7.9394,-7.9595,-7.9796,-8.0047,-8.0449,-8.075,-8.1152,-8.1654,-8.2106,-8.2407,-8.2658,-8.2658,-8.2658,-8.2658,-8.2658,-8.2658,-8.3087,-8.3728,-8.4576,-8.5367,-8.7035,-8.9002,-9.143,-9.3647,-9.6308,-9.831,-10.019,-10.1324,-10.1893,-10.2518,-10.2518,-10.3117,-10.4313,-10.4852,-10.5331,-10.6348,-10.6408,-10.6408,-10.6528,-10.7366,-10.7904,-10.8503,-10.9221,-10.9879,-11.0119,-11.0298,-11.0298,-11.0298,-11.0298,-11.0298,-11.0298,-11.0298,-11.0298,-11.0298,-11.0298,-11.0298,-11.0298,-11.0298,-11.0298,-11.0298,-11.0298,-11.0298,-11.062,-11.1142,-11.1984,-11.3083,-11.4631,-11.6488,-11.7439,-11.8371,-11.9704,-12.1304,-12.3016,-12.4598,-12.5055,-12.5164,-12.5323,-12.5212,-12.4897,-12.4897,-12.5032,-12.5844,-12.6927,-12.7806,-12.8618,-12.8956,-12.9159,-12.9159,-12.9159,-12.9159,-12.9159,-12.9159,-12.9159,-12.9159,-12.9227,-7.9394,-7.9394,-7.9394,-7.9394,-7.9394,-7.9394,-7.9394,-7.9394,-7.9495,-7.9394,-7.9444,-7.9394,-7.9444,-7.9394,-7.9394,-7.9394,-7.9394,-7.9394,-7.9394,-7.9394,-7.9394,-7.9595,-7.9997,-8.0298,-8.085,-8.1453,-8.1905,-8.2106,-8.2508,-8.2658,-8.2658,-8.2658,-8.2658,-8.2658,-8.2658,-8.2658,-8.3301,-8.4153,-8.4998,-8.5994,-8.8012,-9.0222,-9.2834,-9.5092,-9.7286,-9.9278,-10.0515,-10.1514,-10.1893,-10.233,-10.2638,-10.3117,-10.4313,-10.557,-10.6169,-10.6348,-10.6408,-10.6408,-10.6707,-10.7545,-10.8084,-10.8742,-10.952,-11.0059,-11.0298,-11.0298,-11.0298,-11.0298,-11.0298,-11.0298,-11.0298,-11.0298,-11.0298,-11.0298,-11.0298,-11.0298,-11.0298,-11.0298,-11.0298,-11.0298,-11.0298,-11.0298,-11.062,-11.1202,-11.2547,-11.3845,-11.5709,-11.7815,-11.9323,-12.0185,-12.1554,-12.296,-12.4188,-12.5565,-12.5784,-12.5863,-12.5956,-12.5844,-12.51,-12.4829,-12.4829,-12.5979,-12.7468,-12.8212,-12.8956,-12.9024,-12.9159,-12.9159,-12.9159,-12.9159,-12.9159,-12.9159,-12.9159,-12.9159,-12.9227,-7.9394,-7.9394,-7.9394,-7.9394,-7.9394,-7.9394,-7.9394,-7.9394,-7.9394,-7.9394,-7.9394,-7.9394,-7.9394,-7.9394,-7.9394,-7.9394,-7.9394,-7.9394,-7.9394,-7.9394,-7.9394,-7.9746,-8.0248,-8.0599,-8.1202,-8.1754,-8.2206,-8.2457,-8.2608,-8.2658,-8.2658,-8.2658,-8.2658,-8.2658,-8.2658,-8.2658,-8.3301,-8.4365,-8.5367,-8.6617,-8.8368,-9.068,-9.3088,-9.5428,-9.7809,-9.9662,-10.1087,-10.1893,-10.233,-10.2518,-10.2518,-10.3176,-10.4313,-10.569,-10.6288,-10.6408,-10.6408,-10.6408,-10.6767,-10.7545,-10.8263,-10.8742,-10.94,-10.9999,-11.0298,-11.0298,-11.0298,-11.0298,-11.0298,-11.0298,-11.0298,-11.0298,-11.0298,-11.0298,-11.0298,-11.0298,-11.0298,-11.0298,-11.0298,-11.0298,-11.0298,-11.0358,-11.068,-11.1704,-11.305,-11.4791,-11.7037,-11.9267,-12.1273,-12.2438,-12.3397,-12.4717,-12.5463,-12.6396,-12.6444,-12.6158,-12.6115,-12.5641,-12.4897,-12.4761,-12.4761,-12.6047,-12.74,-12.8483,-12.9159,-12.9159,-12.9159,-12.9159,-12.9159,-12.9159,-12.9159,-12.9159,-12.9159,-12.9159,-12.9159,-7.9394,-7.9394,-7.9394,-7.9394,-7.9394,-7.9394,-7.9394,-7.9394,-7.9394,-7.9394,-7.9394,-7.9394,-7.9394,-7.9394,-7.9394,-7.9394,-7.9394,-7.9394,-7.9394,-7.9394,-7.9495,-7.9947,-8.0398,-8.0901,-8.1553,-8.2106,-8.2407,-8.2658,-8.2658,-8.2658,-8.2658,-8.2658,-8.2658,-8.2658,-8.2658,-8.2873,-8.3301,-8.4365,-8.5367,-8.703,-8.8775,-9.1282,-9.3626,-9.6207,-9.8252,-10.0235,-10.1277,-10.2142,-10.2518,-10.2757,-10.3057,-10.3535,-10.4613,-10.569,-10.6288,-10.6408,-10.6408,-10.6408,-10.6767,-10.7485,-10.8323,-10.8742,-10.958,-11.0238,-11.0298,-11.0298,-11.0298,-11.0298,-11.0298,-11.0298,-11.0298,-11.0298,-11.0298,-11.0298,-11.0298,-11.0298,-11.0298,-11.0298,-11.0298,-11.0298,-11.0298,-11.056,-11.1001,-11.2388,-11.3875,-11.5823,-11.7929,-12.0278,-12.2404,-12.4301,-12.5364,-12.6164,-12.6667,-12.6859,-12.6673,-12.6385,-12.5844,-12.5303,-12.4761,-12.5303,-12.5709,-12.6453,-12.74,-12.8483,-12.9159,-12.9159,-12.9159,-12.9159,-12.9159,-12.9159,-12.9159,-12.9159,-12.9159,-12.9159,-12.9159,-7.9394,-7.9394,-7.9394,-7.9394,-7.9394,-7.9394,-7.9394,-7.9394,-7.9394,-7.9394,-7.9394,-7.9394,-7.9394,-7.9394,-7.9394,-7.9394,-7.9394,-7.9394,-7.9394,-7.9394,-7.9394,-7.9896,-8.0449,-8.1001,-8.1704,-8.2257,-8.2608,-8.2658,-8.2658,-8.2658,-8.2658,-8.2658,-8.2658,-8.2658,-8.2658,-8.2873,-8.3301,-8.4365,-8.5576,-8.7236,-8.9491,-9.1967,-9.4242,-9.6479,-9.871,-10.0365,-10.1348,-10.2082,-10.2458,-10.2937,-10.3535,-10.4074,-10.4732,-10.563,-10.6169,-10.6408,-10.6408,-10.6408,-10.6647,-10.7605,-10.8144,-10.8682,-10.97,-11.0238,-11.0298,-11.0298,-11.0298,-11.0298,-11.0298,-11.0298,-11.0298,-11.0298,-11.0298,-11.0298,-11.0298,-11.0298,-11.0298,-11.0298,-11.0298,-11.0298,-11.0298,-11.05,-11.1584,-11.2971,-11.4777,-11.6718,-11.8823,-12.1407,-12.3396,-12.5014,-12.6385,-12.6834,-12.7366,-12.732,-12.7062,-12.6453,-12.5844,-12.5303,-12.5032,-12.5844,-12.6588,-12.713,-12.7806,-12.8686,-12.9159,-12.9159,-12.9159,-12.9159,-12.9159,-12.9159,-12.9159,-12.9159,-12.9159,-12.9159,-12.9159,-7.9394,-7.9394,-7.9394,-7.9394,-7.9394,-7.9394,-7.9394,-7.9394,-7.9394,-7.9394,-7.9394,-7.9394,-7.9394,-7.9394,-7.9394,-7.9394,-7.9394,-7.9394,-7.9394,-7.9394,-7.9394,-7.9846,-8.0348,-8.0901,-8.1704,-8.2206,-8.2508,-8.2658,-8.2558,-8.2608,-8.2658,-8.2658,-8.2658,-8.2658,-8.2658,-8.2873,-8.3301,-8.4365,-8.5576,-8.703,-8.9274,-9.1689,-9.3926,-9.6228,-9.8255,-9.9844,-10.1188,-10.2219,-10.2398,-10.2877,-10.3595,-10.4134,-10.4792,-10.551,-10.6109,-10.6408,-10.6408,-10.6408,-10.6827,-10.7605,-10.8084,-10.8503,-10.94,-11.0238,-11.0238,-11.0298,-11.0298,-11.0298,-11.0298,-11.0298,-11.0298,-11.0298,-11.0298,-11.0298,-11.0298,-11.0298,-11.0298,-11.0298,-11.0298,-11.0298,-11.0298,-11.0761,-11.1222,-11.3067,-11.5173,-11.7231,-11.9898,-12.222,-12.3941,-12.5543,-12.7163,-12.757,-12.7898,-12.755,-12.713,-12.6521,-12.5912,-12.5438,-12.537,-12.6318,-12.713,-12.7738,-12.8415,-12.9024,-12.9159,-12.9159,-12.9159,-12.9159,-12.9159,-12.9159,-12.9159,-12.9159,-12.9159,-12.9159,-12.9159]}]]